     2              OBSERVATION DATA    GPS                 RINEX VERSION / TYPE
teqc 1997Jun30 19970702                                     PGM / RUN BY / DATE
                                                            COMMENT
BIT 2 OF LLI FLAGS DATA COLLECTED UNDER A-S CONDITION       COMMENT
BIT 2 OF LLI FLAGS DATA COLLECTED UNDER A-S CONDITION       COMMENT
Original Marker Name: HMCP                                  COMMENT
Campaign Name: HMC San Gabriel Valley 1993-1996             COMMENT
4-Character Station Name: HMCP                              COMMENT
6-Character Antenna Code: DMRCHT                            COMMENT
Vertical Measurement Point: BPA                             COMMENT
Vertical Offset to Rinex Ref. Point: 0.0000                 COMMENT
Radial Measurement Point: RRP                               COMMENT
Radial Offset to Rinex Ref. Point: 0.0000                   COMMENT
Antenna Height from Field Measurement: 0.0000 m             COMMENT
Additional Antenna Identification Info.:                    COMMENT
Turborogue and Ashtech Choke Ring                           COMMENT
Fixed antenna mounting on roof of Parsons                   COMMENT
building, HMC.                                              COMMENT
Original XYZ: -2458593.3268 -4680553.0872 3556459.5514      COMMENT
New XYZ position is based on association with SCEC monument COMMENT
E1D0R2C7+0011. Position of that monument is believed to be  COMMENT
valid to within 1 m horizontally; vertical accuracy         COMMENT
should be no worse than 3-times this value.                 COMMENT
                                                            COMMENT
Revised Rinex header created by UCSD GPS archive for        COMMENT
GSAC on 13-Apr-1999 (1999:103) 20:32:35 GMT                 COMMENT
For assistance contact dagnew@ucsd.edu or hjohnson@ucsd.edu COMMENT
                                                            COMMENT
HARVEY MUDD COLLEGE PHYSICS                                 MARKER NAME
MGB HARVEY MUDD COLLEGE                                     OBSERVER / AGENCY
T-262/263 TURBOROGUE SNR-8000 95.03.08                      REC # / TYPE / VERS
260/329 DORNE-MARGOL. TYPE T                                ANT # / TYPE
 -2458598.0000 -4680494.0000  3556451.0000                  APPROX POSITION XYZ
        0.0000        0.0000        0.0000                  ANTENNA: DELTA H/E/N
     1     1     0                                          WAVELENGTH FACT L1/2
     5    L1    L2    C1    P2    P1                        # / TYPES OF OBSERV
     0                                                      INTERVAL
  1996     4    26     0     0    0.000000                  TIME OF FIRST OBS
  1996     4    26    23    59   30.000000                  TIME OF LAST OBS
     0                                                      # OF SATELLITES
                                                            END OF HEADER
 96  4 26  0  0  0.0000000  0  8G24G 6G16G17G25G 4G20G 5
    488859.70544    380930.84044  21989531.6724   21989532.3064
 -14059330.95544 -10955310.58344  22239486.4624   22239486.6394
 -16035873.43544 -12495469.93444  21363914.2814   21363915.5784
   -859254.90344   -669546.32344  24987607.8114   24987607.9354
   -312809.60344   -243748.11644  25232979.7194   25232980.7924
    859248.68944    669544.88544  24831948.2604   24831949.6874
 -22958951.37544 -17890082.71144  20596147.5314   20596147.6654
 -25689987.72044 -20018164.00644  20449594.8314   20449594.5204
 96  4 26  0  0 30.0000000  0  8G24G 6G16G17G25G 4G20G 5
    559319.05744    435834.22944  22002939.6304   22002939.7144
 -14121189.98044 -11003512.39844  22227715.1614   22227714.7634
 -16082770.76044 -12532013.27044  21354990.1564   21354990.8244
   -954119.26944   -743466.41544  24969554.1164   24969557.4964
   -345112.14744   -268919.91244  25226827.5304
    954494.87844    743762.69344  24850072.1314   24850071.9084
 -22987803.20644 -17912564.65144  20590657.1644   20590656.8904
 -25654153.59244 -19990241.31944  20456413.6824   20456413.4594
 96  4 26  0  1  0.0000000  0  8G24G 6G16G17G25G 4G20G 5
    629867.60144    490807.12244  22016364.6254   22016365.0884
 -14183061.03044 -11051723.59844  22215941.4464   22215941.0544
 -16129220.39944 -12568207.76344  21346151.1634   21346152.3104
  -1048928.88944   -817343.85144  24951512.1184   24951513.8064
   -377014.67344                  25220755.7814
   1049607.54644    817876.39944  24868170.3314   24868170.3094
 -23016168.59544 -17934667.54344  20585259.2534   20585259.3554
 -25617828.57544 -19961936.12044  20463326.1664   20463325.9454
 96  4 26  0  1 30.0000000  0  8G24G 6G16G17G25G 4G20G 5
    700580.65144    545908.19644  22029820.8594   22029821.2054
 -14244852.78944 -11099873.00644  22204183.3084   22204182.7504
 -16175151.88744 -12603998.50544  21337410.4574   21337411.4214
  -1143601.77944   -891114.73544  24933495.0224   24933498.0344
   -408451.57644   -318276.22444  25214771.7244
   1144661.75744                  24886257.0834
 -23043969.82744 -17956330.83444  20579968.9224   20579968.7444
 -25580948.12844 -19933198.11744  20470344.4804   20470344.3834
 96  4 26  0  2  0.0000000  0  8G24G 6G16G17G25G 4G20G 5
    771473.73844    601149.55744  22043311.4184   22043311.7744
 -14306553.60644 -11147951.54544  22192441.7494   22192441.3254
 -16220525.01044 -12639354.15944  21328776.4874   21328777.6394
  -1238091.26644   -964742.65244  24915511.2694   24915517.6104
   -439404.93244   -342395.59844  25208882.7424
   1239687.09744                  24904340.8204
 -23071196.28644 -17977546.25344  20574787.8504   20574787.8194
 -25543493.94844 -19904013.05344  20477471.7984   20477471.5034
 96  4 26  0  2 30.0000000  0  8G24G 6G16G17G25G 4G20G 5
    842530.90544    656518.77144  22056833.1624   22056833.3594
 -14368179.58944 -11195971.76144  22180714.7614   22180714.1834
 -16265347.97144 -12674281.12044  21320246.6294   21320247.6184
  -1332409.03544  -1038236.79444  24897560.4934
   -469894.62544                  25203078.9414
   1334667.77844                  24922416.0554
 -23097874.35244 -17998334.34844  20569711.3154   20569711.4274
 -25505500.00444 -19874407.39044  20484701.4914   20484701.2464
 96  4 26  0  3  0.0000000  0  8G24G 6G16G17G25G 4G20G 5
    913759.24644    712021.37244  22070387.5994   22070388.0464
 -14429702.07344 -11243911.33844  22169007.5114   22169006.8684
 -16309610.95144 -12708771.72744  21311823.9444   21311824.7124
  -1426548.38744                  24879648.1024
   -499890.05244                  25197371.9114
   1429630.71844                  24940487.8344
 -23123981.20644 -18018677.34344  20564743.1954   20564743.4574
 -25466964.35744 -19844379.62344  20492034.7984   20492034.8064
 96  4 26  0  3 30.0000000  0  8G24G 6G16G17G25G 4G20G 5
    985145.72544    767647.18744  22083971.4784   22083971.9304
 -14491123.92944 -11291772.50244  22157318.9194   22157318.4204
 -16353311.74944 -12742824.26644  21303507.8354   21303508.6424
  -1520505.44644  -1184804.97144  24861771.5984
   -529384.10344                  25191758.4474
   1524571.68844                  24958555.0154
 -23149519.60644 -18038577.39144  20559883.2244   20559883.4594
 -25427894.12444 -19813935.29644  20499469.4454   20499469.1464
 96  4 26  0  4  0.0000000  0  8G24G 6G16G17G25G 4G20G 5
   1056658.33844    823371.30244  22097580.1534   22097579.8264
 -14552509.22444 -11339605.17944  22145637.5114   22145637.5034
 -16396489.80344 -12776469.47144  21295291.5014   21295292.0494
  -1614326.54744  -1257912.15444  24843918.7434
   -558408.96144                  25186234.6644
   1619446.19844                  24976608.6234
 -23174537.07844 -18058071.51244  20555122.8624   20555122.7924
 -25388324.06344 -19783101.49444  20506999.4944   20506999.4324
 96  4 26  0  4 30.0000000  0  8G24G 6G16G17G25G 4G20G 5
   1128269.22144    879171.99944  22111207.1494   22111206.8274
 -14613894.08844 -11387437.51444  22133956.3644   22133956.3534
 -16439193.31444 -12809744.90144  21287165.0884   21287166.1764
  -1708053.50544  -1330945.94344  24826083.0764   24826082.0314
   -586988.50444                  25180795.5954
   1714215.27544                  24994641.1354
 -23199053.73644 -18077175.39744  20550457.4254   20550457.6864
 -25348293.12144 -19751908.56144  20514617.2594   20514616.9944
 96  4 26  0  5  0.0000000  0  8G24G 6G16G17G25G 4G20G 5
   1199981.95444    935052.03944  22124853.5774   22124853.5754
 -14675267.78044 -11435261.13944  22122277.2994   22122277.7474
 -16481418.12644 -12842647.31544  21279129.6974   21279130.8544
  -1801678.17944  -1403899.97944  24808265.8934   24808265.9654
   -615116.94744                  25175442.7554
   1808891.89744                  25012658.7274
 -23223055.54044 -18095878.09544  20545890.1084   20545890.2694
 -25307772.31044 -19720333.91144  20522328.1564   20522327.9274
 96  4 26  0  5 30.0000000  0  8G24G 6G16G17G25G 4G20G 5
   1271871.63244    991069.96544  22138533.9074   22138534.1534
 -14736566.96144 -11483026.71044  22110612.5594   22110612.0774
 -16523095.49544 -12875123.16344  21271199.1234   21271199.7214
  -1895117.25844                  24790485.3544
   -642722.85444                  25170191.2934
   1903546.20944                  25030671.6944
 -23246461.84544 -18114116.77244  20541435.9704   20541436.0094
 -25266666.64544 -19688303.53344  20530150.2904   20530150.0994
 96  4 26  0  6  0.0000000  0  7G24G 6G17G16G 4G20G 5
   1343909.45044   1047203.32344  22152242.2404   22152242.4794
 -14797821.65444 -11530757.61444  22098956.1294   22098955.6744
  -1988414.13844  -1549408.10044  24772732.4894
 -16564271.25244 -12907208.13644  21263363.6174   21263364.3734
   1998128.45944                  25048671.4154
 -23269302.45344 -18131914.63944  20537089.4504   20537089.4804
 -25225012.81544 -19655846.01344  20538076.6714   20538076.5514
 96  4 26  0  6 30.0000000  0  7G24G 6G16G17G 4G20G 5
   1416029.01944   1103400.39044  22165966.2064   22165966.0174
 -14859050.03744 -11578468.02144  22087304.9784   22087304.6084
 -16604990.58044 -12938937.45744  21255614.6814   21255615.5504
  -2081609.48844  -1622027.68744  24754997.8534   24754992.8444
   2092592.89144                  25066646.7764
 -23291614.73944 -18149300.83344  20532843.8004   20532843.8194
 -25182863.23344 -19623002.19344  20546097.5114   20546097.4564
 96  4 26  0  7  0.0000000  0  7G24G 6G16G17G 4G20G 5
   1488308.53044   1159722.08144  22179720.1794   22179721.3504
 -14920162.97744 -11626088.46644  22075675.8384   22075675.9104
 -16645162.61744 -12970240.31344  21247970.5204   21247971.1294
  -2174620.69844  -1694503.69944  24737297.0554   24737300.4234
   2187020.13744                  25084613.2704
 -23313317.74044 -18166212.25544  20528713.6254   20528713.7004
 -25140135.91244 -19589708.18744  20554228.2654   20554228.0794
 96  4 26  0  7 30.0000000  0  7G24G 6G16G17G 4G20G 5
   1560791.80044   1216202.54344  22193513.1364   22193513.5354
 -14981133.15744 -11673597.66644  22064072.8444   22064073.3754
 -16684735.17844 -13001076.05044  21240439.9284   21240440.4504
  -2267406.76344  -1766804.31044  24719639.4264   24719645.5394
   2281429.02444                  25102578.1394
 -23334374.26544 -18182619.93444  20524706.6594   20524706.5304
 -25096816.60544 -19555952.89244  20562471.7604   20562471.4814
 96  4 26  0  8  0.0000000  0  6G24G 6G16G17G20G 5
   1633444.41444   1272814.97344  22207338.6874   22207339.0564
 -15041985.69444 -11721015.19844  22052493.5654   22052492.8984
 -16723736.58144 -13031466.72644  21233017.9874   21233018.5314
  -2360015.58544                  24702015.2264
 -23354838.67944 -18198566.22644  20520812.3594   20520812.5064
 -25052967.71444 -19521784.93444  20570815.7304   20570815.6064
 96  4 26  0  8 30.0000000  0  6G24G 6G16G17G20G 5
   1706215.91144   1329520.02944  22221187.3484   22221187.0164
 -15102767.15044 -11768377.35044  22040927.0394   22040926.6824
 -16762197.32644 -13061436.11144  21225699.4294   21225699.9674
  -2452495.57144  -1911028.89044  24684416.5234   24684422.1864
 -23374767.58044 -18214095.23644  20517020.1004   20517020.0464
 -25008629.05244 -19487235.33744  20579253.3314   20579253.2014
 96  4 26  0  9  0.0000000  0  6G24G 6G16G17G20G 5
   1779134.01344   1386339.32244  22235062.6354   22235063.1304
 -15163465.81144 -11815674.98544  22029376.5554   22029376.1304
 -16800087.77444 -13090961.11344  21218488.9134   21218489.6214
  -2544827.33544  -1982975.50244  24666846.5274
 -23394140.00344 -18229190.62244  20513333.7614   20513333.9314
 -24963777.78344 -19452286.30544  20587788.0864   20587788.0024
 96  4 26  0  9 30.0000000  0  6G24G 6G16G17G20G 5
   1852188.88844   1443265.19344  22248964.5714   22248964.4294
 -15224073.14144 -11862901.45244  22017843.1254   22017842.6704
 -16837405.95344 -13120040.18544  21211387.6214   21211388.2424
  -2637017.27544  -2054811.58644  24649302.5124
 -23412959.62344 -18243855.25544  20509752.5214   20509752.4374
 -24918422.55444 -19416944.57844  20596418.7584   20596418.6274
 96  4 26  0 10  0.0000000  0  6G24G 6G16G17G20G 5
   1925396.77544   1500310.29444  22262895.9344   22262896.5294
 -15284544.95844 -11910022.32444  22006335.5014   22006335.4644
 -16874133.34044 -13148658.90244  21204398.7744   21204399.2374
  -2729034.68944  -2126513.31444  24631792.3334   24631798.0214
 -23431178.41344 -18258051.71244  20506285.4044   20506285.7394
 -24872522.65644 -19381178.43444  20605153.2784   20605152.9944
 96  4 26  0 10 30.0000000  0  7G24G 6G16G17G25G20G 5
   1998671.76044   1557407.69044  22276839.1914   22276839.8714
 -15344955.09544 -11957095.12944  21994840.2794   21994839.8934
 -16910344.12744 -13176875.07244  21197507.7004   21197508.2804
  -2820931.54344  -2198121.07144  24614304.4554   24614311.8104
        -0.94754                  25122690.1824
 -23448842.81744 -18271816.17844  20502924.1654   20502923.9594
 -24826133.29844 -19345030.89544  20613981.1784   20613980.8864
 96  4 26  0 11  0.0000000  0  8G24G 6G16G17G25G 4G20G 5
   2072001.66844   1614547.87044  22290793.0374   22290793.4414
 -15405319.47844 -12004132.29644  21983353.4094   21983353.1444
 -16946053.21644 -13204700.30944  21190712.6394   21190713.3204
  -2912712.20944  -2269638.26144  24596840.5614   24596844.9524
    -22317.76144    -17390.81144  25118445.0534
  25118440.7624         -0.86054  25228027.7814
 -23465951.89044 -18285147.91644  20499668.1994   20499668.4204
 -24779286.21444 -19308526.68444  20622895.7244   20622895.5254
 96  4 26  0 11 30.0000000  0  8G24G 6G16G17G25G 4G20G 5
   2145419.03644   1671756.19444  22304764.2074   22304764.8004
 -15465607.73244 -12051110.13744  21971880.7454   21971880.3184
 -16981239.30544 -13232118.01144  21184016.9884   21184017.9254
  -3004342.84544  -2341038.55244  24579404.4734   24579407.5104
    -44163.93044                  25114288.3834
                     93924.16944  25245901.4724
 -23482471.22844 -18298020.12644  20496524.6524   20496524.8274
 -24731954.38844 -19271644.75244  20631902.5124   20631902.6614
 96  4 26  0 12  0.0000000  0  8G24G 6G16G17G25G 4G20G 5
   2218924.22644   1729032.96444  22318751.9264   22318752.2174
 -15525835.43344 -12098040.79944  21960419.6974   21960419.7034
 -17015914.25244 -13259137.42244  21177418.3584   21177418.9884
  -3095813.03444  -2412313.83144  24561999.6054   24562000.7154
    -65544.07844                  25110220.9854
                    187747.46444  25263755.3364
 -23498413.17044 -18310442.42244  20493491.1224   20493491.3484
 -24684145.27044 -19234390.90444  20641000.4174   20641000.1904
 96  4 26  0 12 30.0000000  0  8G24G 6G16G17G25G 4G20G 5
   2292581.07644   1786427.91044  22332768.3834   22332768.9324
 -15585956.74844 -12144888.56144  21948978.8334   21948978.6964
 -17050006.19544 -13285702.54544  21170930.9174   21170931.3724
  -3187077.67544  -2483428.98244  24544632.4664   24544633.9664
    -86405.54144                  25106250.7274
                    281506.22544  25281596.1144
 -23513747.07444 -18322390.91744  20490573.1804   20490573.1964
 -24635816.25544 -19196731.94244  20650196.8504   20650196.9164
 96  4 26  0 13  0.0000000  0  8G24G 6G16G17G25G 4G20G 5
   2366391.40644   1843942.44344  22346813.8424   22346814.1544
 -15645976.87944 -12191657.47644  21937556.9814   21937557.2624
 -17083506.19744 -13311806.41744  21164555.8124   21164556.5944
  -3278162.23744  -2554403.79244  24527299.1114   24527300.2164
   -106765.03244                  25102374.6104
                    375180.84344  25299422.3744
 -23528495.27744 -18333883.02044  20487766.6934   20487766.8264
 -24586974.64344 -19158673.55744  20659491.4664   20659491.5414
 96  4 26  0 13 30.0000000  0  8G24G 6G16G17G25G 4G20G 5
   2440332.29844   1901558.70444  22360884.6034   22360884.6174
 -15705905.80344 -12238355.31344  21926152.8894   21926152.8164
 -17116430.07944 -13337461.36344  21158290.7554   21158291.3944
  -3369089.14044  -2625255.67444  24509994.6584   24509995.8354
   -126645.23244                  25098592.1654
                    468754.79544  25317229.9464
 -23542679.36844 -18344935.55744  20485067.8354   20485067.8884
 -24537620.17344 -19120215.54044  20668883.0794   20668883.0764
 96  4 26  0 14  0.0000000  0  8G24G 6G16G17G25G 4G20G 5
   2514373.45544   1959253.11644  22374974.0934   22374974.6354
 -15765768.19044 -12285001.30344  21914761.7264   21914761.5204
 -17148788.28144 -13362675.52144  21152132.9734   21152133.8554
  -3459891.50944  -2696010.59244  24492714.7194   24492717.5464
   -146072.57344                  25094890.9644
                    562204.33044  25335010.8774
 -23556329.07944 -18355571.69444  20482470.2324   20482470.3014
 -24487777.90644 -19081377.42244  20678368.0634   20678367.7174
 96  4 26  0 14 30.0000000  0  8G24G 6G16G17G25G 4G20G 5
   2588527.51944   2017035.49044  22389084.6644   22389085.2974
 -15825545.86144 -12331581.28344  21903386.5324   21903386.1044
 -17180563.26844 -13387435.22744  21146086.3804   21146086.9814
  -3550568.21144  -2766667.59644  24475458.2694   24475462.1544
   -165041.79944                  25091281.1274
                    655540.64244  25352774.4254
 -23569417.17144 -18365770.20744  20479979.5164   20479979.3484
 -24437421.17444 -19042138.42344  20687950.6424   20687950.4114
 96  4 26  0 15  0.0000000  0  7G24G 6G16G17G 4G20G 5
   2662779.34744   2074894.04044  22403214.8944   22403215.2774
 -15885239.85944 -12378096.06444  21892027.0784   21892026.4594
 -17211786.64944 -13411765.10944  21140145.4554   21140145.9654
  -3641112.31244  -2837221.24244  24458229.1624   24458232.2814
                    748761.27744  25370514.4744
 -23581932.91044 -18375522.73444  20477598.0544   20477597.9484
 -24386550.64344 -19002499.05944  20697630.9724   20697631.0484
 96  4 26  0 15 30.0000000  0  6G24G 6G17G16G20G 5
   2737115.58644   2132818.36344  22417360.5414   22417360.8814
 -15944869.19344 -12424560.46644  21880680.3754   21880679.8074
  -3731519.56144  -2907668.29044  24441023.7944   24441027.0624
 -17242486.53344 -13435687.06744  21134302.9664   21134303.9014
 -23593880.06944 -18384832.20644  20475324.4084   20475324.2654
 -24335191.81444 -18962479.20444  20707403.8034   20707403.7544
 96  4 26  0 16  0.0000000  0  6G24G 6G17G16G20G 5
   2811565.24844   2190831.08844  22431528.2644   22431528.1394
 -16004416.94844 -12470961.29344  21869348.3834   21869348.0354
  -3821768.94744  -2977992.31644  24423849.8844   24423850.7134
 -17272649.87544 -13459190.94544  21128562.9034   21128563.7024
 -23605235.41144 -18393680.52144  20473163.2834   20473163.5114
 -24283328.25444 -18922066.05744  20717273.1764   20717273.4644
 96  4 26  0 16 30.0000000  0  7G24G 6G17G16G25G20G 5
   2886158.04744   2248955.33144  22445722.6194   22445723.1634
 -16063850.30844 -12517272.98544  21858038.7014   21858038.4744
  -3911824.41344  -3048165.20544  24406713.1914   24406718.7524
 -17302251.50644 -13482257.12544  21122929.8824   21122930.8604
        -0.29354                  25077728.6134
 -23615955.72944 -18402034.01744  20471123.4004   20471123.4684
 -24230926.40444 -18881233.45944  20727245.2294   20727245.1804
 96  4 26  0 17  0.0000000  0  7G24G 6G17G16G25G20G 5
   2960862.95544   2307166.95344  22459938.1194   22459938.8094
 -16123208.05044 -12563525.74844  21846743.2754   21846743.0244
  -4001714.88044  -3118209.56344  24389608.1604   24389611.5594
 -17331310.91644 -13504900.79644  21117400.4044   21117400.7304
    -16571.30144                  25074575.8794
 -23626077.25544 -18409920.92144  20469197.2844   20469197.2414
 -24178019.64644 -18840007.42644  20737312.8574   20737312.8954
 96  4 26  0 17 30.0000000  0  7G24G 6G17G16G25G20G 5
   3035705.61944   2365485.89644  22474180.1334   22474180.7654
 -16182469.16644 -12609703.23244  21835466.1704   21835465.5744
  -4091426.36744  -3188114.44644  24372537.0974   24372539.9734
 -17359784.65744 -13527088.10244  21111981.7044   21111982.2514
    -32616.02944                  25071523.6274
 -23635583.67244 -18417328.51844  20467388.4724   20467388.3884
 -24124579.33644 -18798365.64344  20747482.1844   20747482.1664
 96  4 26  0 18  0.0000000  0  6G24G17G 6G16G20G 5
   3110633.44544   2423871.21944  22488438.9654   22488439.3264
  -4181005.80644  -3257916.46444  24355490.5964   24355493.8484
 -16241670.87044 -12655834.41244  21824200.2374   21824199.6944
 -17387711.46144 -13548849.22344  21106667.4124   21106668.0144
 -23644523.95744 -18424294.97344  20465687.1804   20465687.0794
 -24070641.35244 -18756336.06044  20757746.5594   20757746.3984
 96  4 26  0 18 30.0000000  0  6G24G17G 6G16G20G 5
   3185642.66944   2482319.96544  22502712.2904   22502712.9404
  -4270432.80944  -3327599.69144  24338473.0704   24338475.4024
 -16300807.65844 -12701915.00844  21812946.9024   21812946.3324
 -17415068.90644 -13570166.68444  21101461.5034   21101462.2974
 -23652903.67944 -18430824.62644  20464092.6074   20464092.6934
 -24016205.47944 -18713918.50944  20768105.5564   20768105.2754
 96  4 26  0 19  0.0000000  0  6G24G 6G17G16G20G 5
   3260779.08544   2540867.80644  22517010.7594   22517011.2474
 -16359815.95544 -12747895.48044  21801717.8844   21801717.4874
  -4359645.21544  -3397115.68444  24321496.2824   24321500.7704
 -17441807.68944 -13591002.07244  21096373.1134   21096373.8674
 -23660687.86144 -18436890.22244  20462611.1724   20462611.2744
 -23961223.76644 -18671075.63144  20778567.9924   20778567.9024
 96  4 26  0 19 30.0000000  0  6G24G 6G17G16G20G 5
   3336024.26944   2599500.40244  22531329.7444   22531329.6444
 -16418692.13544 -12793773.00744  21790514.3694   21790514.0354
  -4448640.23244  -3466462.25744  24304561.1474   24304564.1204
 -17467943.49744 -13611367.61444  21091399.7444   21091400.0864
 -23667880.58344 -18442494.93844  20461242.3714   20461242.6374
 -23905726.44444 -18627830.97444  20789128.7514   20789128.6674
 96  4 26  0 20  0.0000000  0  6G24G 6G17G16G20G 5
   3411364.72644   2658207.23844  22545665.9944   22545665.6684
 -16477444.35744 -12839553.94244  21779334.2164   21779333.3224
  -4537420.43944  -3535641.47144  24287666.7524   24287666.6744
 -17493484.68444 -13631269.81344  21086539.5574   21086540.1964
 -23674496.51544 -18447650.20644  20459983.5994   20459983.8214
 -23849735.02644 -18584201.31444  20799783.6344   20799783.6104
 96  4 26  0 20 30.0000000  0  6G24G 6G17G16G20G 5
   3486766.81944   2716962.11644  22560015.0284   22560015.2034
 -16536097.72444 -12885257.85544  21768173.0194   21768172.3824
  -4626017.69744  -3604678.17344  24270807.5654   24270808.1744
 -17518453.85244 -13650726.28844  21081788.0664   21081788.6164
 -23680554.71644 -18452370.88044  20458830.5834   20458830.7764
 -23793280.36344 -18540210.68444  20810526.3444   20810526.4904
 96  4 26  0 21  0.0000000  0  7G24G 6G17G16G25G20G 5
   3562235.73444   2775769.05944  22574376.2634   22574376.3404
 -16594644.33944 -12930878.57744  21757031.7684   21757031.3524
  -4714438.01444  -3673576.97544  24253981.6864   24253981.0564
 -17542852.24044 -13669737.99844  21077145.4154   21077145.7374
        -0.13254         0.03254  25052737.5614   25052737.1004
 -23686032.28044 -18456639.11044  20457788.4174   20457788.3264
 -23736350.48844 -18495849.75844  20821359.7334   20821359.7544
 96  4 26  0 21 30.0000000  0  7G24G 6G17G16G25G20G 5
   3637750.52544   2834611.73344  22588745.3824   22588745.7854
 -16653119.46344 -12976443.58844  21745904.4844   21745904.3734
  -4802717.31544  -3742365.91344  24237182.6554   24237183.4994
 -17566694.45944 -13688316.32644  21072608.1474   21072608.5814
    -12190.40944     -9498.87544  25050421.6254   25050422.8254
 -23690943.74744 -18460466.22444  20456853.7324   20456853.5354
 -23678967.57344 -18451135.81944  20832279.3494   20832279.3914
 96  4 26  0 22  0.0000000  0  7G24G 6G17G16G25G20G 5
   3713335.46244   2893509.08444  22603129.1294   22603128.8474
 -16711489.03144 -13021926.35844  21734796.7464   21734796.2574
  -4890836.44244  -3811030.00044  24220412.8614   24220415.8294
 -17589952.37744 -13706439.35844  21068182.0624   21068182.6004
    -23899.55444    -18622.92344  25048195.1844   25048191.4094
 -23695256.94844 -18463827.15844  20456033.1324   20456033.1234
 -23621088.27444 -18406035.08344  20843293.7254   20843293.7414
 96  4 26  0 22 30.0000000  0  7G24G 6G17G16G25G20G 5
   3788976.51044   2952450.15044  22617522.9584   22617523.5804
 -16769760.28644 -13067332.51844  21723708.3324   21723707.6794
  -4978802.11744  -3879574.49244  24203671.7954   24203675.9854
 -17612645.63144 -13724122.38744  21063863.5324   21063864.2864
    -35139.66744    -27381.49944  25046057.8594
 -23698979.71044 -18466728.01044  20455324.4154   20455324.6904
 -23562728.57444 -18360560.00644  20854399.3014   20854399.0704
 96  4 26  0 23  0.0000000  0  7G24G 6G17G16G25G20G 5
   3864687.30244   3011445.57544  22631930.5064   22631930.9244
 -16827930.40244 -13112659.86844  21712638.9414   21712638.3374
  -5066604.67644  -3947991.98444  24186964.3794   24186967.6274
 -17634774.44944 -13741365.59644  21059652.5414   21059653.0394
    -45920.47344    -35782.13044  25044005.6174   25044000.5394
 -23702105.11444 -18469163.39044  20454729.7034   20454729.8054
 -23503902.38644 -18314721.43644  20865593.2674   20865593.1904
 96  4 26  0 23 30.0000000  0  7G24G 6G17G16G25G20G 5
   3940473.12144   3070499.44644  22646352.2804   22646353.2724
 -16885993.06544 -13157903.48344  21701590.0494   21701589.5584
  -5154235.43344  -4016275.58344  24170289.8554   24170292.3764
 -17656343.21444 -13758172.39944  21055548.2864   21055548.8284
    -56247.00544    -43828.77844  25042041.4474   25042038.9644
 -23704626.12344 -18471127.81044  20454249.9014   20454249.9374
 -23444619.74044 -18268527.17944  20876874.3904   20876874.3144
 96  4 26  0 24  0.0000000  0  7G24G17G 6G16G25G20G 5
   4016354.78344   3129628.00644  22660791.9344   22660791.6654
  -5241670.00244  -4084406.30744  24153651.7324   24153653.4224
 -16943925.95744 -13203045.98544  21690565.6514   21690565.0184
 -17677339.79444 -13774533.34544  21051552.7714   21051553.2684
    -66088.20644    -51497.21444  25040167.4864   25040165.7874
 -23706517.58844 -18472601.68044  20453890.0054   20453890.2374
 -23384865.17244 -18221965.19644  20888245.4094   20888245.4214
 96  4 26  0 24 30.0000000  0  7G24G17G 6G16G25G20G 5
   4092341.01144   3188838.03744  22675251.2764   22675252.0214
  -5328905.45644  -4152381.81344  24137050.1874   24137051.6944
 -17001743.05344 -13248098.25644  21679563.1044   21679562.8684
 -17697754.22044 -13790440.66544  21047668.1204   21047668.6004
    -75420.86144    -58769.39944  25038391.4234   25038390.7844
 -23707772.79444 -18473579.76044  20453650.8384   20453651.1584
 -23324631.50044 -18175029.88044  20899707.2954   20899707.5934
 96  4 26  0 25  0.0000000  0  7G24G17G 6G16G25G20G 5
   4168437.45144   3248133.95044  22689731.8284   22689731.6384
  -5415961.87744  -4220217.89344  24120484.7324   24120485.8104
 -17059445.04044 -13293060.82144  21668582.8124   21668583.0314
 -17717584.61044 -13805892.89344  21043894.2954   21043894.9654
    -84244.96144    -65645.35244  25036713.3134   25036711.5674
 -23708398.67744 -18474067.46144  20453532.0064   20453531.9284
 -23263909.55444 -18127714.09644  20911262.0624   20911262.2064
 96  4 26  0 25 30.0000000  0  7G24G17G 6G16G25G20G 5
   4244643.92644   3307515.61844  22704233.2634   22704233.7554
  -5502837.36744  -4287912.95644  24103952.9454   24103954.9564
 -17117022.77244 -13337926.57344  21657626.0594   21657625.8524
 -17736814.31544 -13820877.05144  21040234.9334   21040235.5334
    -92545.45344    -72113.29344  25035131.3504   25035128.2024
 -23708406.49544 -18474073.55244  20453530.4114   20453530.4114
 -23202671.69544 -18079996.30244  20922915.4224   20922915.4334
 96  4 26  0 26  0.0000000  0  7G24G17G 6G16G25G20G 5
   4320931.81244   3366960.71944  22718750.2534   22718751.3134
  -5589548.21444  -4355479.75644  24087452.6894   24087453.7494
 -17174489.16444 -13382705.56144  21646690.6844   21646690.1584
 -17755442.83044 -13835392.75144  21036689.9234   21036690.6084
   -100349.87844    -78194.64144  25033645.8704
 -23707835.21644 -18473628.39844  20453639.0494   20453639.3204
 -23140933.71844 -18031888.80444  20934663.9624   20934664.0314
 96  4 26  0 26 30.0000000  0  7G24G17G 6G16G25G20G 5
   4397294.89244   3426464.40444  22733281.9524   22733282.0184
  -5676093.71544  -4422917.69044  24070982.8704   24070984.7814
 -17231854.82344 -13427406.05544  21635774.6504   21635773.9444
 -17773480.86844 -13849448.33844  21033257.3594   21033258.0634
   -107686.05144    -83911.15044  25032247.8594   25032249.7364
 -23706720.55444 -18472759.83244  20453851.2284   20453851.4714
 -23078719.98244 -17983410.59444  20946502.7494   20946503.0644
 96  4 26  0 27  0.0000000  0  7G24G17G 6G16G25G20G 5
   4473743.15144   3486034.46344  22747829.7934   22747829.5864
  -5762446.51844  -4490205.51444  24054548.9864   24054553.4834
 -17289088.48944 -13472003.69944  21624883.1544   21624882.8594
 -17790918.30344 -13863035.91944  21029939.0664   21029939.7554
   -114570.08544    -89275.43044  25030937.1384
 -23705059.74844 -18471465.70144  20454167.3404   20454167.6094
 -23016031.36544 -17934562.34044  20958431.8454   20958432.0474
 96  4 26  0 27 30.0000000  0  7G24G17G 6G16G25G20G 5
   4550282.30844   3545675.36444  22762394.9134   22762394.8594
  -5848572.60344  -4557316.64844  24038160.8404   24038162.1264
 -17346175.01744 -13516486.69444  21614019.9554   21614019.4434
 -17807729.67744 -13876135.66844  21026739.9914   21026740.5644
   -120970.63444    -94262.81644  25029719.5174   25029722.5244
 -23702815.64944 -18469717.05344  20454594.4284   20454594.2204
 -22952858.21244 -17885336.52544  20970453.4794   20970453.4614
 96  4 26  0 28  0.0000000  0  7G24G17G 6G16G25G20G 5
   4626879.95744   3605361.83844  22776970.4194   22776970.9304
  -5934504.06844  -4624276.13244  24021810.1924   24021811.2434
 -17403159.59644 -13560890.24344  21603175.9514   21603176.0154
 -17823961.62844 -13888783.91744  21023651.4524   21023651.9764
   -126910.46744    -98891.34644  25028587.5134   25028589.0274
 -23700009.61944 -18467530.53544  20455128.3184   20455128.3674
 -22889248.02444 -17835770.15944  20982558.1764   20982557.8484
 96  4 26  0 28 30.0000000  0  7G24G17G 6G16G25G20G 5
   4703501.20544   3665066.70544  22791551.7674   22791552.1954
  -6020291.17744  -4691123.12944  24005483.8454   24005488.1234
 -17460081.53244 -13605244.98344  21592344.1414   21592343.8254
 -17839660.35144 -13901016.66944  21020663.8654   21020664.3394
   -132418.01544                  25027540.2684
 -23696652.41544 -18464914.53444  20455767.3294   20455767.5114
 -22825239.29444 -17785893.24544  20994738.6104   20994738.8144
 96  4 26  0 29  0.0000000  0  7G24G17G 6G16G25G20G 5
   4780150.19044   3724793.17944  22806137.7374   22806137.1084
  -6105932.22544  -4757856.31344  23989186.5004   23989188.9714
 -17516913.78144 -13649529.83044  21581529.4354   21581528.9484
 -17854792.85544 -13912808.21344  21017784.4684   21017784.9144
   -137466.90744   -107117.15444  25026579.7134
 -23692685.29044 -18461823.26844  20456522.0644   20456522.2294
 -22760800.56444 -17735681.26544  21007000.9244   21007001.0814
 96  4 26  0 29 30.0000000  0  7G24G17G 6G16G25G20G 5
   4856826.23244   3784540.72944  22820728.4564   22820728.7474
  -6191439.39544  -4824485.19644  23972915.8214   23972918.3604
 -17573670.04944 -13693755.47044  21570729.0234   21570728.4984
 -17869352.36744 -13924153.27444  21015013.5814   21015014.0974
   -142045.68344   -110685.01144  25025708.0434
 -23688098.47944 -18458249.13344  20457395.0184   20457395.0304
 -22695925.64944 -17685129.40044  21019346.3074   21019346.4684
 96  4 26  0 30  0.0000000  0  7G24G17G 6G16G25G20G 5
   4933545.27144   3844321.78544  22835327.0664   22835327.3664
  -6276803.96544  -4891002.96744  23956671.6034   23956673.3364
 -17630333.42944 -13737908.74044  21559946.4254   21559945.6414
 -17883332.89044 -13935047.17544  21012353.2154   21012353.8994
   -146176.59244   -113903.92944  25024922.2134
 -23682889.66644 -18454190.31944  20458386.2524   20458386.3434
 -22630596.92744 -17634223.92344  21031777.7664   21031778.0804
 96  4 26  0 30 30.0000000  0  7G24G17G 6G16G25G20G 5
   5010330.02344   3904154.04644  22849938.5264   22849939.5964
  -6361993.68044  -4957384.49344  23940460.4244   23940462.7904
 -17686867.74044 -13781961.42944  21549187.9344   21549187.9154
 -17896693.83544 -13945458.28844  21009810.6004   21009811.0934
   -149842.74844   -116760.71744  25024225.7204
 -23677027.12044 -18449622.11044  20459501.7904   20459502.1894
 -22564784.07944 -17582941.20244  21044301.2364   21044301.5354
 96  4 26  0 31  0.0000000  0  7G24G17G 6G16G25G20G 5
   5087191.13844   3964045.82644  22864564.9184   22864565.1324
  -6446981.76444  -5023608.88644  23924285.8494   23924289.9694
 -17743278.07944 -13825917.51544  21538453.5364   21538453.1024
 -17909422.56044 -13955376.76244  21007388.5144   21007388.9974
   -153023.12444   -119238.98644  25023621.8694
 -23670521.36744 -18444552.69844  20460739.6444   20460739.8574
 -22498471.65444 -17531269.20444  21056920.3874   21056920.3334
 96  4 26  0 31 30.0000000  0  7G24G17G 6G16G25G20G 5
   5164149.14244   4024013.07944  22879209.6604   22879210.2814
  -6531732.49544  -5089648.34444  23908158.7954   23908160.5574
 -17799553.03144 -13869768.11244  21527744.8204   21527744.2524
 -17921512.87044 -13964797.77444  21005088.1194   21005088.5494
   -155694.28444   -121320.33644  25023112.1674
 -23663378.45244 -18438986.79444  20462098.8314   20462099.0624
 -22431642.28044 -17479194.38544  21069637.6834   21069637.5014
 96  4 26  0 32  0.0000000  0  7G24G17G 6G16G25G20G 5
   5241201.81544   4084054.11844  22893872.0644   22893872.4124
  -6616229.00044  -5155489.70444  23892079.9084   23892081.8144
 -17855670.82644 -13913496.25244  21517065.8174   21517065.2714
 -17932967.94044 -13973723.79044  21002907.8204   21002908.3114
   -157848.04844   -122998.65344  25022702.5044   25022702.9014
 -23655607.45644 -18432931.47444  20463577.5714   20463577.6194
 -22364298.46244 -17426718.70144  21082452.8774   21082452.8724
 96  4 26  0 32 30.0000000  0  7G24G17G 6G16G25G20G 5
   5318328.83544   4144153.08644  22908548.9394   22908549.4574
  -6700488.36044  -5221146.28144  23876045.1734   23876047.0964
 -17911638.00044 -13957107.01944  21506415.5694   21506414.9194
 -17943806.58644 -13982169.46844  21000845.2894   21000845.6924
   -159481.60744   -124271.54844  25022393.0524   25022395.2744
 -23647235.24744 -18426407.67744  20465170.9114   20465171.0514
 -22296471.11844 -17373866.24944  21095359.7174   21095359.8224
 96  4 26  0 33  0.0000000  0  7G24G17G 6G16G25G20G 5
   5395501.19144   4204287.36144  22923234.3654   22923235.2504
  -6784536.19144  -5286638.01044  23860050.8574   23860054.4344
 -17967467.91444 -14000610.83944  21495791.3624   21495790.7994
 -17954068.17044 -13990165.49044  20998892.3234   20998892.9534
   -160639.24044   -125173.66244  25022172.1024   25022174.1184
 -23638300.09944 -18419445.23044  20466871.1624   20466871.1904
 -22228199.22444 -17320667.39044  21108351.5084   21108351.7154
 96  4 26  0 33 30.0000000  0  7G24G17G 6G16G25G20G 5
   5472736.68544   4264470.85044  22937931.5444   22937931.9274
  -6868364.57544  -5351958.73444  23844099.8704   23844103.3164
 -18023128.93144 -14043983.04744  21485199.7154   21485199.2804
 -17963746.45544 -13997706.99044  20997050.6064   20997051.1314
   -161325.08844   -125708.13744  25022041.2304   25022042.7324
 -23628791.46144 -18412035.90644  20468680.5064   20468680.8324
 -22159479.47644 -17267119.55244  21121428.6134   21121428.7374
 96  4 26  0 34  0.0000000  0  7G24G17G 6G16G25G20G 5
   5550022.40244   4324693.47544  22952638.9054   22952638.7284
  -6952008.47744  -5417135.73144  23828182.6104   23828185.8264
 -18078635.94944 -14087235.25344  21474636.9354   21474636.6534
 -17972851.77644 -14004802.02244  20995318.0794   20995318.5014
   -161564.15844   -125894.40444  25021995.0394   25021996.3254
 -23618725.23244 -18404192.09444  20470596.0994   20470596.2344
 -22090336.02744 -17213241.55844  21134586.0614   21134586.4154
 96  4 26  0 34 30.0000000  0  7G24G17G 6G16G25G20G 5
   5627353.18044   4384951.22144  22967354.7634   22967354.7894
  -7035489.59144  -5482185.89744  23812297.2554   23812299.3254
 -18134023.36544 -14130394.26744  21464097.0694   21464096.4874
 -17981393.49944 -14011457.88844  20993692.7924   20993693.1414
   -161385.93444   -125755.51044  25022028.2494   25022030.1974
 -23608096.79044 -18395910.19444  20472618.6394   20472618.9134
 -22020783.78344 -17159045.02444  21147821.4564   21147821.6644
 96  4 26  0 35  0.0000000  0  7G24G17G 6G16G25G20G 5
   5704735.66744   4445249.25444  22982079.9884   22982080.0604
  -7118790.62944  -5547095.73744  23796445.8334   23796448.6664
 -18189302.81644 -14173469.15444  21453577.5854   21453577.1464
 -17989351.26144 -14017658.71544  20992178.3414   20992178.7544
   -160780.78344   -125284.01044  25022143.8824   25022147.5414
 -23596885.69844 -18387174.28244  20474751.9284   20474752.0064
 -21950808.45344 -17104518.81244  21161137.0094   21161137.3044
 96  4 26  0 35 30.0000000  0  7G24G17G 6G16G25G20G 5
   5782157.96444   4505578.30644  22996812.7624   22996814.1404
  -7201942.49144  -5611889.30644  23780622.5084   23780622.3304
 -18244509.23444 -14216487.12944  21443071.6394   21443071.1884
 -17996734.39944 -14023411.78744  20990773.4984   20990773.7894
   -159746.73544   -124478.27144  25022340.5434
 -23585104.63144 -18377994.23144  20476993.8524   20476993.7274
 -21880425.41544 -17049674.90844  21174530.7544   21174530.9384
 96  4 26  0 36  0.0000000  0  7G24G17G 6G16G25G20G 5
   5859614.75544   4565934.22544  23011552.3264   23011552.6694
  -7284938.96644  -5676561.81244  23764828.2604   23764828.7904
 -18299638.05644 -14259444.64144  21432581.6874   21432581.1444
 -18003527.38744 -14028705.00344  20989480.6884   20989480.9154
   -158279.78644   -123335.24044  25022619.9214   25022620.5594
 -23572731.71444 -18368353.00144  20479348.1824   20479348.4334
 -21809642.16344 -16994519.14444  21188000.1974   21188000.3924
 96  4 26  0 36 30.0000000  0  7G24G17G 6G16G25G20G 5
   5937115.23444   4626324.20544  23026299.9754   23026299.9334
  -7367753.59844  -5741092.61944  23749070.1304   23749070.8584
 -18354670.79344 -14302327.27744  21422109.0174   21422108.5854
 -18009722.20544 -14033532.10944  20988301.6564   20988302.3124
   -156363.49944   -121842.09544  25022983.0504
 -23559753.29144 -18358239.94544  20481818.1424   20481818.4434
 -21738453.23744 -16939047.27644  21201547.2274   21201547.4424
 96  4 26  0 37  0.0000000  0  7G24G17G 6G16G25G20G 5
   6014655.76244   4686745.37144  23041055.7024   23041055.3224
  -7450378.63344  -5805475.66144  23733346.3894   23733347.9874
 -18409584.02244 -14345116.78644  21411659.3544   21411658.7264
 -18015315.82544 -14037890.75044  20987237.3764   20987237.9304
   -153974.27944   -119980.38744  25023436.7704
 -23546181.20844 -18347664.29944  20484400.7824   20484401.1024
 -21666857.45144 -16883258.36944  21215171.1234   21215171.4904
 96  4 26  0 37 30.0000000  0  7G24G17G 6G16G25G20G 5
   6092249.73844   4747208.19744  23055821.3504   23055821.5774
  -7532795.77344  -5869696.72244  23717661.9274   23717662.5724
 -18464339.94444 -14387783.72144  21401239.8524   21401239.2644
 -18020306.83344 -14041779.82844  20986287.5034   20986287.8684
   -151100.36444   -117740.93444  25023983.5794
 -23532001.21244 -18336614.95544  20487099.0564   20487099.0064
 -21594830.79344 -16827133.72344  21228877.6184   21228877.9404
 96  4 26  0 38  0.0000000  0  7G24G17G 6G25G16G20G 5
   6169868.87744   4807690.61844  23070592.1374   23070592.8064
  -7615003.68044  -5933754.77244  23702018.7024   23702021.1154
 -18518936.72544 -14430326.65144  21390850.2414   21390849.3334
   -147759.54744   -115137.74144  25024620.4204   25024620.0854
 -18024711.96244 -14045212.37844  20985449.3834   20985449.7124
 -23517224.72344 -18325100.81144  20489911.0534   20489911.3504
 -21522381.15144 -16770679.47344  21242664.3334   21242664.9194
 96  4 26  0 38 30.0000000  0  7G24G17G 6G25G16G20G 5
   6247514.73644   4868193.89844  23085367.2614   23085367.4054
  -7696998.32444  -5997646.61344  23686415.6804   23686417.0924
 -18573373.49044 -14472744.89044  21380491.3644   21380490.8684
   -143937.88544                  25025348.4474
 -18028539.80544 -14048195.09544  20984721.0054   20984721.4854
 -23501857.85144 -18313126.63044  20492835.2284   20492835.1824
 -21449490.09444 -16713881.27544  21256535.1314   21256535.3514
 96  4 26  0 39  0.0000000  0  7G24G17G 6G25G16G20G 5
   6325205.37044   4928732.04844  23100151.1104   23100151.6374
  -7778761.27644  -6061357.89344  23670856.8274   23670859.2784
 -18627617.23244 -14515012.73144  21370169.1814   21370168.6904
   -139606.02744   -108784.36644  25026170.8514
 -18031758.79444 -14050703.38244  20984108.0844   20984108.9784
 -23485869.00044 -18300667.78444  20495877.7054   20495878.0054
 -21376124.08144 -16656712.98144  21270496.3344   21270496.6194
 96  4 26  0 39 30.0000000  0  7G24G17G 6G25G16G20G 5
   6402948.88544   4989311.39244  23114945.8344   23114946.7324
  -7860300.24044  -6124894.69244  23655339.8404   23655340.6924
 -18681662.59944 -14557125.99044  21359884.3634   21359883.9224
   -134773.69844   -105018.99444  25027091.6594   25027093.5444
 -18034355.02344 -14052726.40044  20983614.2364   20983614.6884
 -23469247.99344 -18287716.35644  20499040.7294   20499041.1464
 -21302282.13344 -16599173.82144  21284547.6304   21284547.9604
 96  4 26  0 40  0.0000000  0  7G24G17G 6G25G16G20G 5
   6480697.78744   5049894.93244  23129740.4724   23129740.8414
  -7941680.14944  -6188307.51644  23639853.7264   23639856.3114
 -18735575.13744 -14599135.74544  21349625.4694   21349624.6104
   -129499.53644   -100909.30044  25028095.8204   25028097.6064
 -18036362.12844 -14054290.36144  20983232.3134   20983232.9524
 -23452051.33244 -18274316.36344  20502313.2284   20502313.2974
 -21228033.77944 -16541317.98844  21298676.4434   21298676.9844
 96  4 26  0 40 30.0000000  0  7G24G17G 6G25G16G20G 5
   6558465.38744   5110493.04444  23144539.3354   23144540.4034
  -8022889.37244  -6251587.36844  23624400.8614   23624403.8854
 -18789354.32444 -14641041.58844  21339391.6264   21339391.0634
   -123782.99144    -96454.86644  25029183.6374   25029185.4724
 -18037761.65844 -14055380.89444  20982965.9334   20982966.4074
 -23434272.49244 -18260462.72444  20505696.2874   20505696.5904
 -21153372.64944 -16483140.50544  21312884.2224   21312884.7244
 96  4 26  0 41  0.0000000  0  7G24G17G 6G25G16G20G 5
   6636273.75844   5171122.92944  23159345.8644   23159346.3094
  -8103919.38344  -6314727.55444  23608980.3504   23608983.9444
 -18842987.07844 -14682833.32644  21329185.3054   21329184.9014
   -117624.37544    -91655.96944  25030355.5814   25030359.3584
 -18038532.83044 -14055981.78944  20982819.3134   20982819.7484
 -23415901.16844 -18246147.41344  20509192.4644   20509192.4054
 -21078301.09644 -16424643.21844  21327169.9664   21327170.3454
 96  4 26  0 41 30.0000000  0  7G24G17G 6G25G16G20G 5
   6714122.89044   5231784.58344  23174159.6454   23174160.2004
  -8184763.51944  -6377722.88244  23593595.7654   23593598.9304
 -18896496.29844 -14724528.81044  21319002.9284   21319002.4534
   -111045.67844    -86529.71144  25031607.1024   25031611.3584
 -18038694.06844 -14056107.41444  20982788.7274   20982789.1204
 -23396949.68244 -18231380.02644  20512798.7484   20512799.0544
 -21002834.89044 -16365838.40444  21341531.0414   21341531.4274
 96  4 26  0 42  0.0000000  0  7G24G17G 6G25G16G20G 5
   6792021.71344   5292484.93944  23188982.7704   23188984.1284
  -8265390.16144  -6440548.80044  23578253.4654   23578255.2954
 -18949872.25844 -14766120.45744  21308846.1004   21308845.5494
   -104028.41744    -81061.81444  25032943.7214
 -18038245.83144 -14055758.12244  20982873.8324   20982874.3354
 -23377399.31444 -18216145.98544  20516519.2204   20516519.4064
 -20926963.00344 -16306717.47144  21355969.0454   21355969.5384
 96  4 26  0 42 30.0000000  0  7G24G17G 6G25G16G20G 5
   6869967.70844   5353222.06844  23203816.5804   23203816.5454
  -8345793.85144  -6503200.95544  23562953.3684   23562954.9864
 -19003107.72444 -14807602.62844  21298715.8394   21298715.3534
    -96566.81444    -75247.53744  25034364.3374
 -18037211.93544 -14054952.47544  20983070.5414   20983071.0104
 -23357249.40644 -18200444.76544  20520353.0814   20520353.4754
 -20850683.07344 -16247278.58644  21370484.6944   21370484.8134
 96  4 26  0 43  0.0000000  0  7G24G17G 6G25G16G20G 5
   6947987.53044   5414016.72744  23218663.1024   23218663.4824
  -8425961.08344  -6565668.85444  23547698.1344   23547700.1314
 -19056179.95344 -14848957.60044  21288616.3794   21288615.9204
    -88634.76944    -69066.75144  25035872.8544   25035874.5764
 -18035578.52544 -14053679.67244  20983381.5904   20983381.9414
 -23336485.00744 -18184264.72044  20524304.7724   20524305.2014
 -20773973.54044 -16187504.94944  21385082.0324   21385082.0804
 96  4 26  0 43 30.0000000  0  7G24G17G 6G25G16G20G 5
   7026036.79344   5474834.32744  23233514.8114   23233515.4114
  -8505909.74444  -6627966.45244  23532484.3494   23532486.8754
 -19109111.37244 -14890202.85244  21278543.6734   21278543.3064
    -80259.13444    -62540.29844  25037466.5684   25037469.7794
 -18033369.71944 -14051958.51244  20983801.7414   20983802.2254
 -23315134.14944 -18167627.69544  20528367.7504   20528367.8484
 -20696850.35244 -16127408.98444  21399757.6404   21399757.8854
 96  4 26  0 44  0.0000000  0  7G24G17G 6G25G16G20G 5
   7104096.39844   5535660.00544  23248369.1554   23248370.2584
  -8585667.28044  -6690115.11744  23517307.2064   23517308.3334
 -19161911.73744 -14931345.98144  21268496.2754   21268495.8894
    -71456.38644    -55681.04744  25039142.7284
 -18030592.28144 -14049794.26344  20984330.2394   20984330.7064
 -23293220.75544 -18150552.32844  20532537.5664   20532537.6204
 -20619319.73244 -16066995.53644  21414511.4074   21414511.6334
 96  4 26  0 44 30.0000000  0  7G 6G24G17G25G16G20G 5
 -19214589.45344 -14972393.54344  21258472.0994   21258471.4154
   7182160.68044   5596489.26444  23263224.5304   23263224.5694
  -8665253.38744  -6752130.21744  23502162.5504   23502164.0264
    -62245.74044    -48503.91544  25040896.7914   25040899.9504
 -18027243.80544 -14047185.04544  20984967.6094   20984967.9724
 -23270760.73344 -18133051.02244  20536811.5934   20536811.9024
 -20541395.53044 -16006275.40644  21429340.0184   21429340.3954
 96  4 26  0 45  0.0000000  0  7G24G17G 6G16G25G20G 5
   7260234.62644   5657326.05544  23278081.3704   23278081.9614
  -8744663.64544  -6814008.30244  23487050.8694   23487051.9684
 -19267135.27844 -15013338.33144  21248472.7514   21248472.2074
 -18023300.62544 -14044112.42344  20985717.7144   20985718.1834
    -52634.48444    -41014.61244  25042725.7374
 -23247743.75544 -18115115.72344  20541191.5234   20541191.8364
 -20463077.18744 -15945248.15044  21444243.3704   21444243.9214
 96  4 26  0 45 30.0000000  0  7G24G17G 6G16G25G20G 5
   7338340.64444   5718187.87744  23292945.1694   23292944.7604
  -8823867.20744  -6875725.28844  23471978.6134   23471980.2004
 -19319512.57144 -15054151.79844  21238505.8084   21238505.2924
 -18018739.55044 -14040558.32844  20986585.6634   20986586.0624
    -42598.98444    -33194.72344  25044635.6984   25044634.5024
 -23224135.69344 -18096719.84144  20545683.9544   20545684.3464
 -20384344.35244 -15883897.91944  21459225.5964   21459226.1884
 96  4 26  0 46  0.0000000  0  7G24G17G 6G16G25G20G 5
   7416450.01344   5779052.31444  23307808.7974   23307808.5984
  -8902915.38344  -6937321.22044  23456936.9194   23456938.3334
 -19371755.49244 -15094860.55444  21228564.1184   21228563.6474
 -18013595.92044 -14036550.28944  20987564.2894   20987564.7744
    -32162.31044    -25062.43644  25046622.1694   25046621.9504
 -23199958.62144 -18077880.57144  20550284.7904   20550285.2124
 -20305253.18644 -15822268.46744  21474276.2484   21474277.0474
 96  4 26  0 46 30.0000000  0  7G24G17G 6G16G25G20G 5
   7494591.94944   5839942.11644  23322678.0314   23322678.5534
  -8981777.00844  -6998771.77344  23441929.8264   23441930.8524
 -19423830.28244 -15135438.30144  21218654.6844   21218654.2884
 -18007840.99344 -14032065.91444  20988659.3614   20988659.9404
    -21278.82044    -16581.80444  25048692.0754   25048695.2804
 -23175174.16444 -18058568.01644  20555001.1184   20555001.6294
 -20225790.38244 -15760349.43344  21489397.4634   21489398.0784
 96  4 26  0 47  0.0000000  0  7G24G17G 6G16G25G20G 5
   7572763.31744   5900854.85544  23337553.6264   23337554.7604
  -9060433.88044  -7060062.76844  23426960.8404   23426962.7964
 -19475710.62944 -15175864.53544  21208782.0034   21208781.5234
 -18001476.56744 -14027106.60844  20989870.6984   20989870.6904
     -9925.83244     -7735.35444  25050851.1764   25050851.8934
 -23149770.27944 -18038772.78744  20559835.3324   20559835.5324
 -20145936.17244 -15698125.39844  21504593.2934   21504593.8414
 96  4 26  0 47 30.0000000  0  7G24G17G 6G16G25G20G 5
   7650956.54144   5961784.62744  23352433.9254   23352434.3144
  -9138881.83444  -7121190.99244  23412033.0994   23412032.8414
 -19527391.51544 -15216135.34344  21198947.6184   21198947.0204
 -17994503.30044 -14021672.87744  20991197.4704   20991197.8404
      1918.77844      1494.15844  25053104.4734   25053106.4504
 -23123746.85744 -18018494.80644  20564787.4874   20564787.8004
 -20065687.57944 -15635594.05144  21519864.1624   21519864.6364
 96  4 26  0 48  0.0000000  0  7G24G17G 6G16G25G20G 5
   7729161.32844   6022723.41344  23367315.1164   23367315.2994
  -9217134.99844  -7182167.43644  23397142.5234   23397143.7544
 -19578897.11844 -15256269.56944  21189146.4994   21189145.8124
 -17986933.17944 -14015774.06944  20992637.9704   20992638.3514
     14241.21944     11096.03844  25055449.5194   25055448.8824
 -23097130.85744 -17997755.07444  20569852.4574   20569852.6794
 -19985064.92944 -15572771.23244  21535206.2904   21535206.0854
 96  4 26  0 48 30.0000000  0  7G24G17G 6G16G25G20G 5
   7807380.93044   6083673.75744  23382200.4454   23382200.9534
  -9295163.87044  -7242969.10144  23382293.1814   23382296.1714
 -19630206.56044 -15296250.93944  21179382.3464   21179381.7994
 -17978765.17544 -14009409.37644  20994192.2314   20994192.6654
     27038.82244     21068.18944  25057884.7784   25057884.9834
 -23069933.92244 -17976562.66644  20575027.4454   20575027.8084
 -19904047.11944 -15509640.49444  21550623.5614   21550623.5644
 96  4 26  0 49  0.0000000  0  7G24G17G 6G16G25G20G 5
   7885604.21544   6144626.93844  23397084.9554   23397085.4564
  -9372966.43044  -7303594.38944  23367487.4374   23367491.6034
 -19681318.37144 -15336078.31744  21169655.9914   21169655.3044
 -17969994.54344 -14002575.10344  20995861.3614   20995861.5964
     40303.36344     31404.14244  25060411.1104   25060408.8104
 -23042162.93944 -17954922.94844  20580312.2584   20580312.5874
 -19822630.91244 -15446199.31544  21566116.7214   21566117.0854
 96  4 26  0 49 30.0000000  0  7G24G17G 6G16G25G20G 5
   7963840.87144   6205590.53944  23411973.2554   23411974.2284
  -9450554.95344  -7364052.88944  23352723.5034   23352725.9384
 -19732259.46944 -15375772.67044  21159962.6954   21159962.2104
 -17960620.44944 -13995270.60244  20997645.4474   20997645.9324
     54015.74644     42089.10744  25063020.0004   25063019.8524
 -23013837.10344 -17932850.87644  20585702.8154   20585702.9594
 -19740831.89944 -15382459.84544  21581682.1844   21581682.7354
 96  4 26  0 50  0.0000000  0  7G24G17G 6G16G25G20G 5
   8042099.87044   6266571.52944  23426866.1534   23426866.3824
  -9527928.12744  -7424343.64444  23338000.0194   23338001.4334
 -19783042.79044 -15415344.07844  21150298.7524   21150298.2114
 -17950650.69644 -13987501.95344  20999542.6284   20999542.8854
     68155.59244     53107.15044  25065709.4864   25065709.8174
 -22984961.14344 -17910350.13844  20591197.5714   20591197.9354
 -19658657.43944 -15318427.83244  21597319.8004   21597320.3264
 96  4 26  0 50 30.0000000  0  7G24G17G 6G16G25G20G 5
   8120374.92644   6327565.03844  23441761.3554   23441761.7074
  -9605079.20644  -7484461.33044  23323318.9594   23323320.0164
 -19833663.66444 -15454788.90144  21140665.7554   21140665.2514
 -17940079.88244 -13979264.94444  21001554.0304   21001554.4054
     82719.64344     64455.76544  25068479.7804
 -22955511.08744 -17887402.05344  20596801.7224   20596802.0574
 -19576105.80344 -15254101.90844  21613028.5484   21613029.0404
 96  4 26  0 51  0.0000000  0  7G24G17G 6G16G25G20G 5
   8198659.19344   6388565.75044  23456658.0774   23456658.0474
  -9682035.59044  -7544427.28644  23308674.6324   23308675.5774
 -19884161.71444 -15494138.02044  21131056.5424   21131055.5794
 -17928921.79644 -13970570.32544  21003677.2704   21003677.6014
     97680.91244     76113.82844  25071325.9364   25071322.0714
 -22925486.71344 -17864006.44544  20602515.0174   20602515.3214
 -19493188.05344 -15189490.71244  21628807.4034   21628807.8324
 96  4 26  0 51 30.0000000  0  7G24G17G 6G16G25G20G 5
   8276952.86344   6449573.78844  23471556.7914   23471556.7834
  -9758799.39544  -7604243.18444  23294066.2744   23294068.5774
 -19934545.91744 -15533398.43344  21121468.6724   21121467.9994
 -17917196.80544 -13961433.96144  21005908.5744   21005908.6004
    113017.06044     88063.99944  25074243.6704   25074244.2754
 -22894887.26344 -17840162.72844  20608337.9414   20608338.3014
 -19409917.84244 -15124604.86144  21644653.7054   21644654.2154
 96  4 26  0 52  0.0000000  0  7G24G17G 6G16G25G20G 5
   8355249.13044   6510583.86044  23486456.1214   23486457.2464
  -9835353.95544  -7663896.02944  23279498.3384   23279500.3174
 -19984796.51944 -15572554.74144  21111906.4804   21111905.7034
 -17904894.08444 -13951847.41844  21008249.6994   21008249.9974
    128746.16644    100320.39644  25077237.3384   25077240.5504
 -22863684.09144 -17815848.58044  20614275.9724   20614276.2154
 -19326291.42744 -15059441.44544  21660567.2014   21660567.6044
 96  4 26  0 52 30.0000000  0  7G24G17G 6G16G25G20G 5
   8433536.34644   6571586.88744  23501353.2754   23501353.7564
  -9911699.59844  -7723386.08244  23264970.5514   23264971.9514
 -20034885.86344 -15611585.38744  21102374.7014   21102374.1904
 -17892013.00044 -13941810.20144  21010700.6044   21010700.9684
    144877.38444    112890.17144  25080305.8064   25080306.1644
 -22831884.24644 -17791069.49144  20620327.0274   20620327.3374
 -19242300.23244 -14993993.78744  21676549.6274   21676549.7194
 96  4 26  0 53  0.0000000  0  7G24G17G 6G16G25G20G 5
   8511835.00644   6632598.81444  23516253.9254   23516254.5234
  -9987834.94344  -7782712.29044  23250482.5054   23250483.2914
 -20084777.71744 -15650462.14844  21092880.4304   21092879.7914
 -17878544.82744 -13931315.51544  21013263.7084   21013264.0574
    161425.40444    125784.64444  25083455.4534   25083457.3634
 -22799494.60044 -17765830.81744  20626490.8174   20626490.7344
 -19157928.32844 -14928249.47944  21692605.1164   21692605.6314
 96  4 26  0 53 30.0000000  0  7G24G17G 6G16G25G20G 5
   8590141.58344   6693616.91044  23531155.0604   23531155.4164
 -10063759.32844  -7841874.10444  23236035.2524   23236036.1764
 -20134454.40044 -15689171.24544  21083427.2094   21083426.7504
 -17864481.71444 -13920357.24044  21015939.7384   21015940.2754
    178407.46244    139017.34344  25086688.2244   25086690.4234
 -22766533.33444 -17740146.72144  20632762.9724   20632763.2994
 -19073195.55044 -14862223.96844  21708729.8244   21708730.0604
 96  4 26  0 54  0.0000000  0  7G24G17G 6G16G25G20G 5
   8668451.77144   6754637.82444  23546056.8174   23546057.7754
 -10139491.78044  -7900886.36444  23221622.7674   23221624.4594
 -20183917.64744 -15727714.02844  21074014.8424   21074014.1754
 -17849823.44644 -13908935.20544  21018729.3914   21018729.7304
    195828.59444    152592.13244  25090002.9154
 -22733014.16744 -17714027.90444  20639141.4704   20639141.8274
 -18988097.90244 -14795914.13744  21724923.0084   21724923.4764
 96  4 26  0 54 30.0000000  0  7G24G17G 6G16G25G20G 5
   8746787.46444   6815678.59544  23560963.9704   23560963.6184
 -10215027.14344  -7959745.02644  23207249.5404   23207250.6874
 -20233146.10944 -15766073.86444  21064646.7694   21064646.1594
 -17834556.78844 -13897039.10244  21021634.3414   21021634.6544
    213689.93744    166509.93444  25093402.2754
 -22698927.11344 -17687466.57744  20645628.1734   20645628.5244
 -18902625.05044 -14729311.95644  21741188.0144   21741188.4794
 96  4 26  0 55  0.0000000  0  7G24G17G 6G16G25G20G 5
   8825141.34044   6876733.53644  23575873.3974   23575875.9734
 -10290361.97944  -8018447.44144  23192914.0004   23192914.2584
 -20282169.36644 -15804273.79944  21055318.2014   21055317.5734
 -17818679.86644 -13884667.46744  21024655.5804   21024655.8874
    231977.75944                  25096882.7974
 -22664270.75544 -17660461.63644  20652223.1034   20652223.4174
 -18816800.66344 -14662435.84044  21757519.5744   21757520.3504
 96  4 26  0 55 30.0000000  0  7G24G17G 6G16G25G20G 5
   8903489.93344   6937784.35444  23590783.2644   23590784.9964
 -10365493.95044  -8076991.78444  23178616.3664   23178616.4084
 -20331016.40744 -15842336.42444  21046022.6244   21046021.8344
 -17802207.06044 -13871831.50644  21027790.3644   21027790.7374
    250675.70444                  25100440.7564
 -22629048.84444 -17633016.00144  20658925.4874   20658925.7174
 -18730647.69644 -14595303.68844  21773914.2434   21773914.6204
 96  4 26  0 56  0.0000000  0  7G24G17G 6G16G25G20G 5
   8981857.05144   6998849.64544  23605695.1884   23605696.7074
 -10440381.26044  -8135345.48644  23164365.0274   23164366.1644
 -20379646.52144 -15880230.01544  21036768.8424   21036768.1944
 -17785113.24144 -13858511.63744  21031043.3094   21031043.5354
    269798.29044    210229.00144  25104080.2074   25104078.7364
 -22593211.98244 -17605091.18544  20665745.1334   20665745.6784
 -18644126.74544 -14527884.79744  21790378.6494   21790378.8034
 96  4 26  0 56 30.0000000  0  7G24G17G 6G16G25G20G 5
   9060214.95644   7059907.73644  23620607.0084   23620607.7734
 -10515029.23444  -8193512.69644  23150160.8314   23150161.1454
 -20428084.33444 -15917973.75444  21027551.3384   21027550.7774
 -17767424.13444 -13844727.90844  21034409.5784   21034409.7274
    289315.34344    225434.95944  25107792.8324   25107793.4254
 -22556793.84744 -17576713.43344  20672675.2124   20672675.5524
 -18557279.16744 -14460211.38944  21806905.5484   21806905.6484
 96  4 26  0 57  0.0000000  0  7G24G17G 6G16G25G20G 5
   9138518.82844   7120923.71444  23635507.1824   23635507.6834
 -10589481.99944  -8251527.77944  23135992.5784   23135993.6414
 -20476391.88444 -15955615.99344  21018358.5054   21018358.0514
 -17749204.97144 -13830531.15244  21037876.3054   21037876.5314
    309185.06744    240915.65044  25111573.9674   25111570.9654
 -22519859.01344 -17547933.05444  20679703.7524   20679703.6024
 -18470157.67144 -14392324.54244  21823484.0344   21823484.6124
 96  4 26  0 57 30.0000000  0  7G24G17G 6G16G25G20G 5
   9216835.08944   7181949.34244  23650410.1234   23650411.1214
 -10663701.99844  -8309361.48844  23121869.2604   23121870.8614
 -20524510.44944 -15993110.97044  21009201.9034   21009201.3494
 -17730406.40444 -13815882.90944  21041453.4114   21041453.7964
    329466.66744    256718.25644  25115435.3904   25115437.0494
 -22482359.94544 -17518713.01144  20686839.6614   20686839.6874
 -18382704.72244 -14324179.42144  21840125.6884   21840125.7914
 96  4 26  0 58  0.0000000  0  7G24G17G 6G16G25G20G 5
   9295200.03144   7243012.90544  23665323.1294   23665324.1234
 -10737664.10944  -8366994.25044  23107794.3464   23107796.0624
 -20572416.64844 -16030440.46944  21000085.6624   21000084.7534
 -17711001.57444 -13800762.25444  21045146.0504   21045146.5314
    350203.58644    272876.55444  25119382.8684   25119385.7494
 -22444276.47144 -17489037.58844  20694086.3714   20694086.6654
 -18294893.42944 -14255755.07244  21856835.4904   21856836.1364
 96  4 26  0 58 30.0000000  0  6G24G17G 6G16G20G 5
   9373612.73444   7304113.69244  23680244.9344   23680244.5554
 -10811381.47044  -8424436.28044  23093765.8804   23093767.4364
 -20620138.65344 -16067626.44144  20991004.7324   20991004.1544
 -17691003.06144 -13785178.98444  21048951.7374   21048952.2054
 -22405636.66544 -17458928.66144  20701439.2784   20701439.6024
 -18206735.54244 -14187060.64844  21873611.3434   21873611.7074
 96  4 26  0 59  0.0000000  0  6G24G17G16G 5G 6G20
   9452060.96344   7365242.16544  23695173.0784   23695174.1774
 -10884880.03844  -8481707.84344  23079779.8744   23079780.7704
 -17670411.12644 -13769133.31344  21052870.1124   21052870.2754
 -18118226.55044 -14118092.63644  21890454.4234   21890455.0424
 -20667679.07544 -16104670.91344  20981957.8424   20981957.5844
 -22366436.12244 -17428382.79744  20708899.1024   20708899.6554
 96  4 26  0 59 30.0000000  0  7G24G17G16G23G 5G 6G20
   9530518.98244   7426378.27744  23710103.4004   23710102.9494
 -10958170.58744  -8538817.29544  23065832.9324   23065834.2584
 -17649221.83544 -13752622.16644  21056902.1634   21056902.5424
        -0.05954         0.53454  25250206.1394   25250211.6524
 -18029360.91744 -14048846.73344  21907364.8534   21907365.2244
 -20715032.20444 -16141569.44444  20972946.7344   20972946.0934
 -22326678.03944 -17397402.48144  20716464.4974   20716465.0624
 96  4 26  1  0  0.0000000  0  7G24G17G16G23G 5G 6G20
   9608947.09944   7487491.07744  23725027.7204   23725028.8614
 -11031276.53844  -8595782.91744  23051921.3194   23051923.8884
 -17627466.36944 -13735669.84444  21061042.0354   21061042.2494
   -107288.63544                  25229789.2904
 -17940167.54844 -13979345.44444  21924337.8484   21924338.6134
 -20762208.20244 -16178329.95744  20963969.3644   20963968.8754
 -22286388.28344 -17366007.88344  20724131.4144   20724131.9574
 96  4 26  1  0 30.0000000  0  6G24G17G16G 5G 6G20
   9687328.18244   7548567.20244  23739942.4344   23739943.0024
 -11104212.91244  -8652616.39944  23038042.3664   23038044.5034
 -17605142.70844 -13718274.77544  21065289.9784   21065290.3714
 -17850656.00844 -13909596.22744  21941371.0184   21941371.4134
 -20809195.96144 -16214943.78644  20955028.0084   20955027.4834
 -22245563.96544 -17334196.74044  20731900.4084   20731900.5894
 96  4 26  1  1  0.0000000  0  6G24G17G16G 5G 6G20
   9765635.35844   7609585.78044  23754844.3904   23754846.1204
 -11177002.83444  -8709335.74844  23024191.2814   23024192.7544
 -17582279.45344 -13700459.24044  21069640.8004   21069640.9924
 -17760865.06344 -13839629.29144  21958457.9324   21958458.3094
 -20855996.99544 -16251412.11644  20946122.3114   20946121.5634
 -22204210.17644 -17301973.02044  20739769.6494   20739769.9184
 96  4 26  1  1 30.0000000  0  6G24G17G16G 5G 6G20
   9843905.88144   7670575.77544  23769737.9504   23769740.2374
 -11249593.68744  -8765900.00544  23010377.3494   23010377.6904
 -17558848.47044 -13682201.32044  21074099.5244   21074099.8724
 -17670781.74044 -13769434.51944  21975600.6304   21975601.0674
 -20902576.57644 -16287707.88344  20937258.0874   20937257.6374
 -22162297.56744 -17269313.85744  20747745.2914   20747745.6164
 96  4 26  1  2  0.0000000  0  6G24G17G16G 5G 6G20
   9922189.46244   7731575.95044  23784634.8614   23784636.3044
 -11321942.77744  -8822275.86244  22996609.2604   22996610.2024
 -17534820.32444 -13663478.08244  21078672.2384   21078672.6044
 -17580390.48444 -13698999.80444  21992800.6684   21992801.6324
 -20948906.12744 -16323808.82944  20928441.8774   20928441.3784
 -22119776.17144 -17236180.31244  20755836.5414   20755837.1144
 96  4 26  1  2 30.0000000  0  6G24G17G16G 5G 6G20
  10000477.42244   7792579.53644  23799532.0584   23799535.2734
 -11394061.31344  -8878472.07344  22982885.4014   22982886.5554
 -17510213.11744 -13644303.63044  21083354.5424   21083355.0024
 -17489698.59344 -13628330.83544  22010059.4254   22010060.0534
 -20995014.17144 -16359737.17144  20919668.1724   20919667.5224
 -22076661.15044 -17202584.20644  20764041.0444   20764041.6514
 96  4 26  1  3  0.0000000  0  7G24G17G16G23G 5G 6G20
  10078768.48844   7853585.54544  23814431.4664   23814432.0164
 -11465948.74144  -8934488.20644  22969205.1024   22969206.6124
 -17485045.56244 -13624692.53944  21088143.8884   21088144.1574
        -1.18454                  25107256.9974
 -17398697.91944 -13557421.24344  22027376.0474   22027376.4374
 -21040911.78844 -16395501.54144  20910934.0064   20910933.2774
 -22032982.66244 -17168549.03944  20772353.2484   20772353.7294
 96  4 26  1  3 30.0000000  0  7G24G17G16G23G 5G 6G20
  10157092.90244   7914617.53144  23829336.5754   23829336.4864
 -11537577.38544  -8990302.66944  22955575.2984   22955576.8714
 -17459272.91644 -13604609.95644  21093048.1714   21093048.7324
   -107220.31444                  25086854.7094
 -17307327.30344 -13486223.40944  22044763.0854   22044763.9314
 -21086566.71744 -16431076.80644  20902246.2154   20902245.5954
 -21988729.12944 -17134065.77844  20780774.5694   20780774.8824
 96  4 26  1  4  0.0000000  0  6G24G17G16G 5G 6G20
  10235432.66344   7975661.47044  23844243.8734   23844242.7114
 -11608984.59844  -9045944.59944  22941986.8274   22941988.3374
 -17432924.30344 -13584078.55944  21098062.0894   21098062.4134
 -17215594.11544 -13414743.04044  22062219.6834   22062220.1204
 -21132003.55544 -16466482.13244  20893599.7214   20893599.1494
 -21943935.76944 -17099161.87144  20789298.3824   20789298.7994
 96  4 26  1  4 30.0000000  0  6G24G17G16G 5G 6G20
  10313757.73844   8036693.97244  23859148.4734   23859149.0514
 -11680190.43744  -9101429.61444  22928436.6374   22928438.5674
 -17406010.99244 -13563107.14044  21103183.4844   21103184.0034
 -17123516.54944 -13342994.31444  22079741.1004   22079741.6134
 -21177232.97644 -16501725.83044  20884992.9194   20884992.5484
 -21898656.00444 -17063878.94944  20797914.7324   20797915.1944
 96  4 26  1  5  0.0000000  0  7G24G17G16G23G 5G 6G20
  10392090.66644   8097732.57944  23874054.6624   23874055.8214
 -11751165.55044  -9156734.86344  22914930.7324   22914930.9294
 -17378500.23344 -13541670.18044  21108418.6124   21108418.9154
        -0.19454                  25025659.1844
 -17031087.51244 -13270971.72844  22097330.1594   22097330.9144
 -21222218.74444 -16536779.66244  20876432.2424   20876431.8374
 -21852862.52344 -17028195.73044  20806629.0044   20806629.3424
 96  4 26  1  5 30.0000000  0  7G24G17G16G23G 5G 6G20
  10470405.06544   8158756.77544  23888956.4984   23888957.0264
 -11821935.88644  -9211880.52244  22901462.5674   22901463.3854
 -17350411.52244 -13519782.86444  21113763.6824   21113764.1004
   -107183.24144                  25005262.5084
 -16938369.03544 -13198723.59644  22114973.8014   22114974.6484
 -21266994.05244 -16571669.50944  20867911.9224   20867911.2764
 -21806558.59544 -16992114.76144  20815440.2964   20815440.6574
 96  4 26  1  6  0.0000000  0  7G24G17G16G23G 5G 6G20
  10548663.40444   8219737.29944  23903849.0764   23903851.0884
 -11892527.46444  -9266886.89944  22888030.0594   22888031.4904
 -17321796.10944 -13497485.13544  21119209.0904   21119209.4194
   -214400.98844   -167063.55844  24984860.4434
 -16845431.33344 -13126304.63644  22132659.4134   22132659.9814
 -21311610.40944 -16606435.49944  20859421.5804   20859420.9704
 -21759764.89744 -16955652.15644  20824344.7014   20824345.1904
 96  4 26  1  6 30.0000000  0  7G24G17G16G23G 5G 6G20
  10626877.78544   8280683.56544  23918733.6494   23918732.4334
 -11962917.72144  -9321736.40244  22874635.2264   22874636.8954
 -17292630.28744 -13474758.51444  21124759.1534   21124759.6114
   -321621.66944   -250611.81144  24964457.3194
 -16752266.01944 -13053708.31444  22150388.1814   22150388.8744
 -21356039.31844 -16641055.42344  20850966.9044   20850966.2654
 -21712440.24344 -16918775.81644  20833350.1734   20833350.5734
 96  4 26  1  7  0.0000000  0  7G16G24G17G23G 5G 6G20
 -17262916.78144 -13451605.13044  21130413.3004   21130413.8224
  10705053.26244   8341599.49344  23933608.7384   23933609.2744
 -12033100.35744  -9376424.12344  22861279.7344   22861280.4294
   -428835.64244                  24944055.8464
 -16658868.38944 -12980930.98444  22168160.6894   22168161.6074
 -21400277.35544 -16675526.61444  20842548.7604   20842548.3424
 -21664556.36144 -16881463.71444  20842462.3354   20842462.7964
 96  4 26  1  7 30.0000000  0  7G16G24G17G23G 5G 6G20
 -17232642.51344 -13428014.78844  21136174.6954   21136175.0944
  10783211.52044   8402502.00844  23948482.8614   23948482.7824
 -12103056.65544  -9430935.47744  22847967.2344   22847968.9594
   -536024.07544                  24923658.2154
 -16565210.99044 -12907951.22744  22185983.4114   22185984.1364
 -21444304.51544 -16709833.48144  20834170.6734   20834170.1994
 -21616097.94444 -16843703.92144  20851683.6734   20851683.9324
 96  4 26  1  8  0.0000000  0  7G16G24G17G23G 5G 6G20
 -17201797.77744 -13403979.92244  21142044.0124   21142044.3794
  10861363.46644   8463399.60244  23963354.2604   23963356.3604
 -12172778.91644  -9485264.47144  22834699.7414   22834700.4214
   -643182.18444   -501177.43744  24903267.3354   24903273.8194
 -16471256.63544 -12834740.08344  22203862.4644   22203863.6514
 -21488089.53444 -16743951.67444  20825838.6794   20825838.0584
 -21567060.14344 -16805492.66144  20861014.9754   20861015.4474
 96  4 26  1  8 30.0000000  0  7G16G24G17G23G 5G 6G20
 -17170381.54044 -13379499.73244  21148022.4974   21148022.8794
  10939499.23244   8524284.54844  23978221.5354   23978220.9094
 -12242288.15644  -9539427.48144  22821472.6354   22821473.7894
   -750319.57844   -584660.71744  24882878.8844   24882885.4194
 -16377008.69444 -12761300.17644  22221797.4884   22221798.1294
 -21531623.91044 -16777874.56344  20817554.4114   20817553.5804
 -21517464.50644 -16766846.72544  20870452.9524   20870453.5634
 96  4 26  1  9  0.0000000  0  7G16G24G17G23G 5G 6G20
 -17138396.07044 -13354575.98244  21154108.8994   21154109.3354
  11017624.79644   8585161.58444  23993089.8174   23993090.8944
 -12311572.32944  -9593415.10644  22808288.4434   22808290.3144
   -857427.51644                  24862496.5544
 -16282467.36644 -12687631.63744  22239787.6694   22239789.0044
 -21574913.02044 -16811606.33244  20809316.7874   20809316.1464
 -21467329.06844 -16727780.16344  20879993.5354   20879994.0614
 96  4 26  1  9 30.0000000  0  7G16G24G17G23G 5G 6G20
 -17105842.87644 -13329209.84944  21160303.9244   21160304.1244
  11095752.78144   8646040.54444  24007957.5244   24007957.9264
 -12380641.45444  -9647235.15944  22795144.9284   22795145.8054
   -964508.75544   -751560.61944  24842119.2484   24842126.0544
 -16187632.95544 -12613734.73744  22257834.6814   22257835.3874
 -21617956.12244 -16845146.40544  20801125.8454   20801125.1744
 -21416669.74844 -16688305.38744  20889633.7404   20889634.1644
 96  4 26  1 10  0.0000000  0  7G16G24G17G23G 5G 6G20
 -17072714.79944 -13303395.75744  21166607.5924   21166608.0864
  11173879.76744   8706918.70744  24022825.5764   24022825.1104
 -12449499.01744  -9700890.35344  22782041.7464   22782043.5424
  -1071543.28844   -834963.76344  24821751.8334   24821761.0174
 -16092512.71044 -12539615.09744  22275934.9764   22275935.5954
 -21660755.48244 -16878496.55544  20792981.4304   20792981.0654
 -21365496.31744 -16648430.00244  20899371.7844   20899372.0334
 96  4 26  1 10 30.0000000  0  7G16G24G17G23G 5G 6G20
 -17039033.13844 -13277150.29944  21173016.8834   21173017.3784
  11251982.81544   8767778.18944  24037688.1744   24037689.4954
 -12518158.56044  -9754391.25744  22768976.2654   22768978.4584
  -1178538.42244   -918336.24344  24801390.5284
 -15997131.37844 -12465292.01244  22294085.7794   22294086.2674
 -21703347.53944 -16911685.16744  20784876.6954   20784876.0964
 -21313840.11444 -16608178.43344  20909201.5064   20909201.9384
 96  4 26  1 11  0.0000000  0  7G16G24G17G23G 5G 6G20
 -17004779.38744 -13250459.06144  21179535.4354   21179535.8064
  11330077.33044   8828631.01544  24052547.7004   24052547.9384
 -12586581.12844  -9807707.48944  22755956.3704   22755956.6534
  -1285469.65144  -1001658.88144  24781041.2844
 -15901451.51544 -12390736.29944  22312293.1174   22312294.2704
 -21745713.15044 -16944697.32744  20776814.7174   20776813.9144
 -21261675.37944 -16567530.60144  20919127.9764   20919128.5834
 96  4 26  1 11 30.0000000  0  7G16G24G17G23G 5G 6G20
 -16969931.34044 -13223304.73544  21186166.6274   21186167.0684
  11408169.75244   8889482.21744  24067407.7524   24067408.2774
 -12654752.23544  -9860827.80044  22742983.4454   22742984.0164
  -1392323.08544  -1084920.94944  24760707.3654
 -15805454.31344 -12315933.33344  22330560.7354   22330561.2914
 -21787822.45844 -16977509.77444  20768801.3934   20768800.6704
 -21208978.23844 -16526467.91144  20929155.9504   20929156.4614
 96  4 26  1 12  0.0000000  0  7G16G24G17G23G 5G 6G20
 -16934534.07344 -13195722.44444  21192902.5704   21192902.9934
  11486215.58044   8950297.14644  24082260.2834   24082262.6204
 -12722695.76344  -9913770.77244  22730054.2694   22730054.4994
  -1499129.75244  -1168146.58044  24740382.9064   24740386.1024
 -15709181.74844 -12240915.78644  22348880.9554   22348882.0134
 -21829703.43744 -17010144.30944  20760831.7484   20760831.1094
 -21155774.79544 -16485010.69544  20939280.3604   20939280.8584
 96  4 26  1 12 30.0000000  0  7G16G24G17G23G 5G 6G20
 -16898605.85444 -13167726.42444  21199739.2994   21199739.8544
  11564215.67344   9011076.40944  24097103.4374   24097103.2364
 -12790406.46344  -9966532.30344  22717169.2854   22717170.3994
  -1605902.29144                  24720063.4824
 -15612638.18644 -12165687.06344  22367252.8814   22367254.2194
 -21871341.91844 -17042589.87444  20752908.3264   20752907.7514
 -21102059.44744 -16443154.59744  20949501.8914   20949502.2764
 96  4 26  1 13  0.0000000  0  7G16G24G17G23G 5G 6G20
 -16862159.33744 -13139326.53844  21206674.6054   21206674.7684
  11642173.63344   9071822.83744  24111937.4114   24111937.4144
 -12857905.86044 -10019129.20144  22704324.2624   22704325.2014
  -1712656.43444  -1334530.33244  24699749.2584   24699751.3194
 -15515850.67344 -12090268.25844  22385671.1264   22385671.6674
 -21912733.19344 -17074842.81144  20745032.0004   20745031.1284
 -21047843.17344 -16400908.16444  20959819.0374   20959819.6004
 96  4 26  1 13 30.0000000  0  7G16G24G17G 6G23G20G 5
 -16825177.65844 -13110509.64244  21213712.4814   21213712.7144
  11720131.83544   9132569.46844  24126771.8904   24126774.1494
 -12925191.61444 -10071559.60544  22691520.3834   22691521.5124
 -21953843.38644 -17106876.72344  20737208.5664   20737208.0654
  -1819362.40544  -1417677.57244  24679443.9604
 -20993101.81144 -16358252.57444  20970235.9864   20970236.5874
 -15418821.69044 -12014661.30044  22404134.4794   22404135.5804
 96  4 26  1 14  0.0000000  0  7G24G17G 6G16G23G20G 5
  11798075.55744   9193304.81244  24141605.6124   24141604.8994
 -12992288.31244 -10123842.70844  22678752.6394   22678753.3394
 -21994696.45344 -17138710.27744  20729434.5104   20729434.1404
 -16787682.21344 -13081292.41144  21220847.4934   21220848.3584
  -1926035.34944  -1500799.03444  24659143.0454
 -20937856.02944 -16315203.92844  20980749.0094   20980749.6684
 -15321574.12544 -11938884.00744  22422640.1884   22422641.1134
 96  4 26  1 14 30.0000000  0  7G24G17G 6G16G23G20G 5
  11876038.46444   9254055.12944  24156440.5364   24156442.9014
 -13059164.34944 -10175953.84444  22666026.7604   22666027.3194
 -22035263.48744 -17170320.95444  20721714.8534   20721714.2904
 -16749621.02244 -13051634.34244  21228090.4674   21228090.7264
  -2032638.24044  -1583865.98344  24638857.3594
 -20882070.45744 -16271734.66944  20991364.5114   20991365.0614
 -15224072.49344 -11862908.75744  22441194.0924   22441195.3944
 96  4 26  1 15  0.0000000  0  7G24G17G 6G16G23G20G 5
  11953958.65944   9314772.08544  24171269.1954   24171268.3714
 -13125881.46444 -10227941.17044  22653331.0134   22653331.1664
 -22075613.59144 -17201762.60244  20714036.7614   20714035.7764
 -16711038.96844 -13021570.40644  21235432.3194   21235432.7184
  -2139216.01744  -1666913.31244  24618577.0944
 -20825808.98544 -16227894.57744  21002070.5494   21002071.0744
 -15126372.79044 -11786779.16444  22459786.2074   22459786.7454
 96  4 26  1 15 30.0000000  0  7G24G17G 6G16G23G20G 5
  12031850.56644   9375467.07044  24186091.9784   24186090.8004
 -13192403.75644 -10279776.67844  22640671.7564   22640672.0694
 -22115731.32644 -17233023.17044  20706402.4434   20706401.9514
 -16671918.74944 -12991087.12444  21242876.3284   21242876.8974
  -2245732.52644  -1749912.87244  24598306.4104   24598314.8504
 -20769043.72944 -16183661.92844  21012872.9144   21012873.5224
 -15028436.51844 -11710465.20744  22478422.2974   22478423.0014
 96  4 26  1 16  0.0000000  0  7G24G17G 6G16G23G20G 5
  12109710.62044   9436137.22944  24200907.9004   24200908.4544
 -13258707.49944 -10331441.88544  22628054.5674   22628054.7574
 -22155624.97844 -17264109.12944  20698810.6994   20698810.4414
 -16632254.87544 -12960180.20944  21250424.3614   21250424.7034
  -2352185.94044  -1832863.36344  24578048.9204   24578057.8554
 -20711774.86944 -16139036.86244  21023770.8754   21023771.6524
 -14930239.74744 -11633948.28944  22497108.6924   22497109.8144
 96  4 26  1 16 30.0000000  0  7G24G17G 6G16G23G20G 5
  12187554.41644   9496794.69544  24215720.1194   24215722.1994
 -13324774.70444 -10382922.78244  22615482.1754   22615482.7824
 -22195268.86644 -17295000.46944  20691266.9324   20691266.4524
 -16592045.11944 -12928847.93144  21258075.9384   21258076.2654
  -2458548.52944  -1915743.02944  24557808.2574   24557812.5694
 -20653988.15944 -16094008.27644  21034767.2704   21034767.9974
 -14831769.08444 -11557217.94044  22515846.7514   22515848.0724
 96  4 26  1 17  0.0000000  0  7G24G17G 6G16G23G20G 5
  12265367.57744   9557428.30344  24230528.3834   24230530.4044
 -13390617.48444 -10434228.80944  22602952.6974   22602952.8314
 -22234668.16544 -17325701.22144  20683769.6014   20683768.9874
 -16551313.28444 -12897108.84544  21265827.1614   21265827.5464
  -2564820.87344  -1998552.36544  24537586.4834   24537593.8244
 -20595704.24944 -16048592.25944  21045858.0914   21045858.6354
 -14733039.69244 -11480285.98844  22534634.6994   22534635.3234
 96  4 26  1 17 30.0000000  0  7G24G17G 6G16G23G20G 5
  12343153.31644   9618040.54444  24245329.3094   24245331.7974
 -13456225.33244 -10485351.75844  22590467.4864   22590468.6524
 -22273809.21344 -17356200.74244  20676321.0594   20676320.4194
 -16510049.35244 -12864955.12844  21273679.3774   21273679.7604
  -2671007.56944  -2081294.98544  24517379.5134   24517385.2114
 -20536912.30044 -16002780.36844  21057046.1834   21057046.4654
 -14634054.47144 -11403154.67044  22553470.5014   22553471.6034
 96  4 26  1 18  0.0000000  0  7G24G17G 6G16G23G20G 5
  12420892.87944   9678616.78644  24260122.4164   24260125.5894
 -13521608.02344 -10536299.27744  22578025.5864   22578026.5584
 -22312686.99944 -17386495.12144  20668922.8954   20668922.5194
 -16468246.54044 -12832381.51344  21281633.8064   21281634.3054
  -2777111.42044  -2163973.07544  24497189.1174   24497191.8774
 -20477623.41444 -15956581.25044  21068328.7384   21068328.9684
 -14534834.97644 -11325840.81444  22572352.0254   22572352.6234
 96  4 26  1 18 30.0000000  0  7G24G17G 6G16G23G20G 5
  12498574.21344   9739147.62844  24274904.5544   24274905.0164
 -13586778.25844 -10587081.24844  22565624.3644   22565625.1834
 -22351298.24444 -17416581.80244  20661575.4434   20661575.0544
 -16425906.78944 -12799389.50044  21289691.1664   21289691.3464
  -2883127.93644  -2246583.09244  24477014.6414   24477019.0524
 -20417851.22244 -15910005.53144  21079702.7084   21079703.2964
 -14435402.20544 -11248360.77844  22591273.0784   22591273.9504
 96  4 26  1 19  0.0000000  0  7G24G17G 6G16G23G20G 5
  12576217.91744   9799649.17244  24289680.5594   24289682.3664
 -13651730.60844 -10637693.43744  22553263.9614   22553265.2004
 -22389649.12544 -17446465.60044  20654277.4464   20654276.9624
 -16383013.31344 -12765966.01244  21297853.2694   21297853.4334
  -2989067.14444  -2329132.85844  24456854.7984   24456859.3614
 -20357602.67044 -15863058.62544  21091167.9964   21091168.6344
 -14335753.61944 -11170712.58044  22610235.5374   22610236.0694
 96  4 26  1 19 30.0000000  0  7G24G17G 6G16G23G20G 5
  12653836.88644   9860131.45244  24304451.7054   24304455.1194
 -13716456.69044 -10688129.31144  22540947.6344   22540947.9604
 -22427733.91844 -17476142.05744  20647030.4314   20647029.7314
 -16339567.44944 -12732112.08944  21306121.0234   21306121.4764
  -3094924.72244  -2411619.08444  24436709.6674   24436712.8524
 -20296866.82444 -15815732.01144  21102725.1334   21102725.9254
 -14235880.86644 -11092889.68544  22629241.5034   22629241.8674
 96  4 26  1 20  0.0000000  0  7G24G17G 6G16G23G20G 5
  12731429.15644   9920592.97344  24319216.5874   24319218.0674
 -13780972.98644 -10738401.71644  22528670.1604   22528670.6104
 -22465563.80844 -17505619.89944  20639831.5954   20639831.0264
 -16295605.39344 -12697855.94144  21314486.4744   21314486.7914
  -3200705.25644  -2494045.27044  24416579.0274   24416582.7904
 -20235666.92744 -15768043.80144  21114371.0994   21114371.6644
 -14135793.16944 -11014899.30244  22648286.8234   22648288.0224
 96  4 26  1 20 30.0000000  0  7G24G17G 6G16G23G20G 5
  12809019.47444   9981052.96144  24333981.0764   24333980.5634
 -13845272.24644 -10788505.00744  22516434.4934   22516435.2854
 -22503137.83044 -17534898.35744  20632681.4214   20632681.0554
 -16251142.57544 -12663209.58744  21322947.5464   21322948.0324
  -3306409.79544  -2576412.25244  24396465.9094   24396469.7434
 -20174000.94344 -15719992.40844  21126105.8474   21126106.4124
 -14035485.57744 -10936737.59244  22667375.0854   22667376.1084
 96  4 26  1 21  0.0000000  0  7G24G17G 6G16G23G20G 5
  12886594.82144  10041501.29144  24348744.3144   24348744.6414
 -13909368.48744 -10838450.10144  22504237.1954   22504237.7454
 -22540465.14544 -17563984.57044  20625578.6124   20625578.0734
 -16206197.29444 -12628187.29144  21331500.5194   21331500.7804
  -3412058.24444  -2658735.57444  24376359.7624   24376360.5574
 -20111867.48644 -15671576.74544  21137929.5184   21137930.0184
 -13934977.04144 -10858419.29044  22686501.2834   22686502.1414
 96  4 26  1 21 30.0000000  0  7G24G17G 6G16G23G20G 5
  12964126.28844  10101915.35744  24363498.1414   24363496.6384
 -13973263.24044 -10888238.19544  22492078.6694   22492078.9044
 -22577539.09044 -17592873.35344  20618523.2364   20618522.7244
 -16160777.84344 -12592795.51144  21340143.4974   21340144.0024
  -3517646.54044  -2741011.97444  24356267.5474   24356270.6514
 -20049259.28044 -15622791.15044  21149843.4934   21149843.9404
 -13834284.83044 -10779957.85744  22705662.5744   22705663.3154
 96  4 26  1 22  0.0000000  0  7G24G17G 6G16G23G20G 5
  13041631.51844  10162309.02344  24378246.3374   24378247.4144
 -14036932.83344 -10937850.84144  22479962.0634   22479963.8614
 -22614331.78744 -17621542.98644  20611521.9784   20611521.3604
 -16114856.02244 -12557012.27444  21348882.0194   21348882.5644
  -3623150.77144  -2823222.86844  24336191.9334   24336198.1024
 -19986159.13744 -15573622.22944  21161851.1244   21161851.5064
 -13733403.38744 -10701348.98244  22724859.6224   22724860.4134
 96  4 26  1 22 30.0000000  0  7G24G17G 6G16G23G20G 5
  13119098.29244  10222672.73244  24392987.3574   24392990.0834
 -14100379.17444 -10987289.52444  22467888.4964   22467889.2044
 -22650843.16844 -17649993.41344  20604573.7354   20604573.3384
 -16068405.72044 -12520817.22844  21357721.0604   21357721.4414
  -3728557.78644  -2905358.04844  24316131.8394   24316136.8814
 -19922553.31544 -15524059.27144  21173954.9434   21173955.6364
 -13632347.73144 -10622604.36244  22744089.8724   22744091.4234
 96  4 26  1 23  0.0000000  0  7G24G17G 6G16G23G20G 5
  13196516.72144  10282998.75244  24407719.2504   24407722.7394
 -14163588.22244 -11036543.28744  22455860.6864   22455862.0844
 -22687063.28544 -17678216.87744  20597681.5334   20597681.0574
 -16021410.50344 -12484197.57444  21366664.0274   21366664.7164
  -3833851.72144  -2987405.14244  24296094.9364   24296098.4034
 -19858437.08144 -15474098.58544  21186155.8814   21186156.6624
 -13531110.92544 -10543718.58044  22763354.5234   22763355.8174
 96  4 26  1 23 30.0000000  0  7G24G17G 6G16G23G20G 5
  13273894.21044  10343292.85344  24422441.8964   24422446.7744
 -14226557.43644 -11085610.18144  22443877.7824   22443879.1784
 -22722994.43744 -17706215.17244  20590844.0084   20590843.4624
 -15973874.18444 -12447156.28544  21375710.0134   21375710.3554
  -3939022.63744  -3069356.36044  24276082.7864   24276086.1234
 -19793836.99244 -15423760.87544  21198448.6274   21198449.6024
 -13429682.54444 -10464683.51044  22782656.7214   22782657.3904
 96  4 26  1 24  0.0000000  0  7G24G17G 6G16G23G20G 5
  13351234.68244  10403558.09144  24437159.6384   24437165.1864
 -14289296.94244 -11134498.08144  22431939.0794   22431939.9124
 -22758643.50744 -17733993.66644  20584060.4654   20584059.6184
 -15925797.26244 -12409693.73844  21384858.7114   21384859.2844
  -4044073.01544  -3151213.63644  24256091.1914   24256098.6154
 -19728772.55144 -15373061.33444  21210830.2464   21210830.7634
 -13328053.09344 -10385491.76644  22801995.6194   22801996.0464
 96  4 26  1 24 30.0000000  0  7G24G17G 6G16G23G20G 5
  13428521.27044  10463781.31744  24451868.5874   24451872.9454
 -14351825.20644 -11183221.36244  22420040.2864   22420041.5504
 -22794036.24844 -17761572.42544  20577325.1094   20577324.5734
 -15877199.16144 -12371825.08844  21394106.7104   21394106.9494
  -4149036.29944  -3233003.03044  24236117.9504   24236120.5774
 -19663273.15444 -15322022.86644  21223294.1084   21223294.8164
 -13226222.50444 -10306143.29444  22821373.2204   22821374.2964
 96  4 26  1 25  0.0000000  0  7G24G17G 6G16G23G20G 5
  13505777.28844  10523980.79644  24466570.8734   24466571.4524
 -14414126.18644 -11231767.57244  22408184.9984   22408185.4354
 -22829152.31744 -17788935.59644  20570643.1564   20570642.5234
 -15828082.86444 -12333552.64844  21403452.9794   21403453.1814
  -4253913.59144  -3314725.46144  24216160.7814   24216161.9134
 -19597337.81844 -15270644.70244  21235841.6234   21235842.2154
 -13124160.17144 -10226614.25244  22840794.8824   22840795.7774
 96  4 26  1 25 30.0000000  0  7G24G17G 6G16G23G20G 5
  13582978.31144  10584137.43044  24481261.6914   24481260.4244
 -14476245.68744 -11280172.35944  22396363.7334   22396364.0574
 -22864011.31544 -17816098.45444  20564009.5054   20564008.8994
 -15778479.31744 -12294900.53744  21412892.3604   21412892.7014
  -4358747.08544  -3396413.76044  24196211.0894   24196216.1034
 -19530988.87044 -15218944.24244  21248467.4584   21248467.9254
 -13021903.68844 -10146933.91344  22860253.9164   22860254.6594
 96  4 26  1 26  0.0000000  0  7G24G17G 6G16G23G20G 5
  13660139.32044  10644262.90444  24495945.9794   24495945.4354
 -14538155.35444 -11328413.63644  22384582.8214   22384583.3184
 -22898586.14044 -17843039.87644  20557429.8764   20557429.3574
 -15728369.85044 -12255854.20144  21422427.7514   21422428.3834
  -4463514.03744  -3478050.12744  24176274.3254   24176277.9134
 -19464196.33244 -15166898.13044  21261177.2764   21261178.1904
 -12919448.52344 -10067098.76244  22879750.3914   22879750.4964
 96  4 26  1 26 30.0000000  0  7G24G17G 6G16G23G20G 5
  13737278.41644  10704371.34944  24510624.7124   24510623.1734
 -14599837.75944 -11376477.81544  22372845.4534   22372846.5124
 -22932852.40344 -17869740.85844  20550909.3924   20550908.8944
 -15677749.13044 -12216409.48744  21432060.6324   21432061.0034
  -4568176.53744  -3559605.17544  24156358.4414   24156360.3634
 -19396938.96244 -15114489.81644  21273975.9844   21273976.8534
 -12816783.02944  -9987099.72244  22899286.5514   22899287.9764
 96  4 26  1 27  0.0000000  0  7G24G17G 6G16G23G20G 5
  13814387.94044  10764456.67944  24525296.7684   24525296.6874
 -14661296.42444 -11424367.67244  22361149.8574   22361149.9784
 -22966794.63744 -17896189.35144  20544450.3204   20544449.7774
 -15626628.71044 -12176575.39544  21441788.6484   21441788.6184
  -4672714.72144  -3641063.35744  24136465.7264   24136468.6314
 -19329211.66744 -15061715.32544  21286863.9084   21286864.5124
 -12713925.96444  -9906951.42044  22918859.7584   22918861.1344
 96  4 26  1 27 30.0000000  0  7G24G17G 6G16G23G20G 5
  13891469.29144  10824520.03444  24539964.4824   24539965.6414
 -14722521.51744 -11472075.49944  22349499.3124   22349500.2584
 -23000423.30544 -17922393.50844  20538051.1644   20538050.5464
 -15575006.66044 -12136350.42444  21451611.5704   21451612.1074
  -4777122.54144  -3722419.92044  24116597.6594   24116602.8474
 -19261025.99144 -15008583.64644  21299839.4814   21299839.9184
 -12610881.35644  -9826656.95144  22938468.4454   22938470.4564
 96  4 26  1 28  0.0000000  0  7G24G17G 6G16G23G20G 5
  13968528.96044  10884566.44344  24554627.8874   24554631.6714
 -14783503.06244 -11519593.56544  22337894.5784   22337895.2704
 -23033734.34944 -17948350.16444  20531712.2394   20531711.6594
 -15522878.30344 -12095730.92244  21461531.4674   21461531.9164
  -4881377.34144  -3803657.26144  24096757.5864   24096760.2044
 -19192379.82444 -14955093.14644  21312902.8224   21312903.2064
 -12507636.87344  -9746206.75244  22958115.6644   22958116.4134
 96  4 26  1 28 30.0000000  0  7G24G17G 6G16G23G20G 5
  14045556.23044  10944587.65344  24569284.2324   24569287.3314
 -14844267.75044 -11566942.64444  22326331.6954   22326332.6114
 -23066747.12844 -17974074.40844  20525430.2454   20525429.6714
 -15470266.76444 -12054734.91844  21471543.4574   21471544.1044
  -4985507.86744  -3884797.76844  24076942.2994   24076944.3294
 -19123280.56844 -14901249.59244  21326051.4634   21326052.1004
 -12404207.57344  -9665612.54844  22977797.7894   22977798.8744
 96  4 26  1 29  0.0000000  0  7G24G17G 6G16G23G20G 5
  14122559.06944  11004589.79544  24583938.8914   24583942.8204
 -14904812.55044 -11614120.37844  22314810.1954   22314811.2454
 -23099474.40444 -17999576.18844  20519202.3654   20519201.8604
 -15417175.96644 -12013365.47544  21481646.3614   21481646.4734
  -5089535.09044  -3965857.74944  24057145.7724   24057148.7414
 -19053730.29644 -14847054.59844  21339286.7194   21339287.6504
 -12300608.82844  -9584886.29444  22997511.2024   22997511.7534
 96  4 26  1 29 30.0000000  0  7G24G17G 6G16G23G20G 5
  14199551.34044  11064583.67844  24598590.6784   24598595.1414
 -14965133.18244 -11661123.44144  22303331.3564   22303332.5574
 -23131908.06844 -18024849.17544  20513030.2454   20513029.7654
 -15363585.39344 -11971606.58244  21491844.0714   21491844.6414
  -5193440.51344  -4046822.85544  24037373.9804   24037376.0504
 -18983720.73344 -14792501.70944  21352608.9664   21352609.7434
 -12196832.29944  -9504021.52644  23017259.4134   23017261.2434
 96  4 26  1 30  0.0000000  0  7G24G17G 6G16G23G20G 5
  14276516.43644  11124556.42944  24613237.5384   24613239.9574
 -15025258.25244 -11707974.12644  22291890.1894   22291890.1124
 -23164048.24144 -18049893.46444  20506914.4244   20506913.8774
 -15309514.82444 -11929473.67744  21502133.2194   21502133.8394
  -5297216.82344  -4127687.35044  24017624.8454   24017627.7654
 -18913253.50944 -14737592.20544  21366018.5094   21366019.2964
 -12092913.37644  -9423045.76944  23037034.3204   23037036.5904
 96  4 26  1 30 30.0000000  0  7G24G17G 6G16G23G20G 5
  14353448.86144  11184503.78344  24627878.6884   24627878.9344
 -15085184.57144 -11754669.93444  22280486.5094   22280486.8384
 -23195905.27344 -18074717.12644  20500852.2764   20500851.7124
 -15254981.20744 -11886979.94944  21512510.7904   21512511.1044
  -5400862.47244  -4208450.02644  23997902.3964   23997905.2504
 -18842353.40944 -14682345.38944  21379510.3684   21379511.3364
 -11988865.43144  -9341969.49544  23056834.7574   23056835.9184
 96  4 26  1 31  0.0000000  0  7G24G17G 6G16G23G20G 5
  14430349.81444  11244426.57744  24642512.6044   24642512.3014
 -15144896.52044 -11801198.69444  22269123.8334   22269124.2064
 -23227460.48844 -18099305.60744  20494847.5244   20494846.9824
 -15199972.69944 -11844116.17544  21522978.7294   21522979.1764
  -5504352.91644  -4289091.80344  23978208.7854   23978211.8404
 -18771030.15744 -14626768.85144  21393082.6644   21393083.7124
 -11884680.62144  -9260786.57544  23076660.3094   23076661.8954
 96  4 26  1 31 30.0000000  0  7G24G17G 6G16G23G20G 5
  14507195.24044  11304306.13044  24657135.4604   24657134.7334
 -15204404.72944 -11847568.70344  22257799.7974   22257800.1664
 -23258709.87544 -18123655.78344  20488900.9284   20488900.2684
 -15144502.98544 -11800893.02444  21533534.3514   21533534.3124
  -5607691.38544  -4369615.14944  23958543.9494   23958546.0154
 -18699297.37244 -14570873.19544  21406732.9464   21406734.0844
 -11780367.07844  -9179503.35144  23096511.1334   23096513.4124
 96  4 26  1 32  0.0000000  0  7G24G17G 6G16G23G20G 5
  14583994.30544  11364149.56644  24671748.6824
 -15263691.99844 -11893766.54744  22246517.7324   22246518.0054
 -23289667.36444 -18147778.50144  20483009.8604   20483009.2764
 -15088584.55144 -11757320.21944  21544175.0904   21544175.3784
  -5710888.99444  -4450028.71144  23938905.9164   23938907.0174
 -18627161.11944 -14514663.14744  21420460.0614   21420461.1754
 -11675924.42744  -9098119.51644  23116385.6094   23116386.8504
 96  4 26  1 32 30.0000000  0  7G24G17G 6G16G23G20G 5
  14660748.00644                  24686354.6744
 -15322740.48044 -11939778.31844  22235281.0684   22235281.5634
 -23320328.51644 -18171670.30644  20477175.2434   20477174.7524
 -15032200.97244 -11713384.96444  21554904.5334   21554904.7244
  -5813952.27944  -4530337.63644  23919293.5504   23919294.4104
 -18554618.04644 -14458136.10144  21434264.3644   21434265.5624
 -11571325.72644  -9016614.09144  23136290.1044   23136291.3804
 96  4 26  1 33  0.0000000  0  8G24G17G 6G16G23G26G20G 5
  14737485.67744                  24700953.3294
 -15381535.43744 -11985592.54444  22224092.8994   22224093.8364
 -23350665.97544 -18195309.88644  20471402.2134   20471401.6894
 -14975308.36044 -11669053.06544  21565730.8284   21565731.1824
  -5916853.43944  -4610520.23744  23899712.2994   23899714.7174
        -0.92854                  24009731.6584
 -18481611.86644 -14401248.18944  21448157.1794   21448157.8674
 -11466540.62444  -8934963.41544  23156229.9664   23156230.5404
 96  4 26  1 33 30.0000000  0  8G24G17G 6G16G23G26G20G 5
  14814149.04844  11543490.87744  24715543.3564   24715545.6654
 -15440138.11844 -12031256.94344  22212940.8404   22212941.8684
 -23380741.36144 -18218745.25344  20465679.1204   20465678.5144
 -14917959.13844 -11624365.36044  21576644.4104   21576644.4214
  -6019649.86444  -4690621.19144  23880150.3004   23880153.3944
    -78935.89644                  23994710.5684
 -18408194.85244 -14344040.14544  21462128.3874   21462128.7134
 -11361620.11844  -8853207.22844  23176196.3174   23176197.5734
 96  4 26  1 34  0.0000000  0  6G17G16G 6G23G20G 5
 -15498548.55044 -12076771.53344  22201825.8054   22201826.7074
 -14860141.22544 -11579312.44344  21587647.0314   21587647.4074
 -23410550.05844 -18241972.81144  20460006.8934   20460006.2374
  -6122333.39644  -4770634.20344  23860610.8494   23860612.6124
 -18334375.66044 -14286518.71244  21476175.8684   21476176.3244
 -11256560.59244  -8771342.70844  23196188.1014   23196189.5894
 96  4 26  1 34 30.0000000  0  6G17G 6G16G23G20G 5
 -15556805.50444 -12122166.53344  22190739.8184   22190740.6984
 -23440095.02844 -18264994.86544  20454384.3664   20454383.7854
 -14801876.63144 -11533911.47244  21598733.6664   21598734.0734
  -6224921.54944  -4850572.87944  23841088.2954   23841091.4194
 -18260180.97844 -14228704.68944  21490294.5024   21490295.0034
 -11151385.20344  -8689387.91244  23216201.9774   23216204.7774
 96  4 26  1 35  0.0000000  0  6G17G 6G16G23G20G 5
 -15614850.81244 -12167396.61244  22179694.1804   22179694.6604
 -23469306.24944 -18287756.85444  20448825.9034   20448825.1774
 -14743118.76744 -11488126.12444  21609915.2164   21609915.8494
  -6327357.75944  -4930393.14144  23821595.5944   23821597.7954
 -18185559.51744 -14170558.11744  21504494.1914   21504495.1624
 -11046053.67644  -8607311.46644  23236245.7254   23236246.4104
 96  4 26  1 35 30.0000000  0  7G17G 6G16G23G26G20G 5
 -15672630.94344 -12212420.07244  22168699.3404   22168699.3234
 -23498128.47044 -18310215.72844  20443341.2184   20443340.6034
 -14683845.31544 -11441939.01844  21621194.3774   21621194.9204
  -6429615.25744  -5010074.17444  23802136.6784   23802139.6094
        -0.30254                  23934755.7534
 -18110516.10144 -14112082.75144  21518774.2104   21518775.3064
 -10940543.56544  -8525095.86444  23256323.9974   23256325.4814
 96  4 26  1 36  0.0000000  0  7G17G 6G16G23G26G20G 5
 -15730195.95044 -12257275.89344  22157744.8504   22157745.4194
 -23526599.42544 -18332400.88844  20437923.1344   20437922.6684
 -14624107.56644 -11395390.13044  21632562.1364   21632562.5154
  -6531739.21944  -5089651.14944  23782702.8914   23782705.4554
    -78501.58344                  23919816.6324
 -18035089.17444 -14053308.54544  21533127.8834   21533128.6894
 -10834924.77044  -8442795.54044  23276423.0414   23276423.3764
 96  4 26  1 36 30.0000000  0  7G17G 6G16G23G26G20G 5
 -15787558.81144 -12301974.20444  22146828.3864   22146829.8564
 -23554732.88444 -18354323.06644  20432569.5034   20432568.8634
 -14563926.68044 -11348495.93644  21644014.0274   21644014.4874
  -6633740.58444  -5169132.61244  23763292.7754   23763293.1334
   -156892.36044                  23904897.3054
 -17959273.60644 -13994231.50144  21547554.9504   21547555.8814
 -10729225.73744  -8360432.70744  23296536.8234   23296538.2684
 96  4 26  1 37  0.0000000  0  7G17G 6G16G23G26G20G 5
 -15844685.41644 -12346488.41944  22135958.0894   22135959.0844
 -23582510.01044 -18375967.58244  20427283.8094   20427283.2014
 -14503290.88844 -11301247.27044  21655552.8174   21655553.2524
  -6735591.92444  -5248497.18644  23743910.3264   23743912.9224
   -235129.25544                  23890010.5274
 -17883042.75544 -13934830.85844  21562061.2904   21562061.9354
 -10623430.80444  -8277995.13444  23316668.8834   23316670.1044
 96  4 26  1 37 30.0000000  0  7G17G 6G16G23G26G20G 5
 -15901592.29444 -12390831.41344  22125128.9604   22125129.7464
 -23609947.47744 -18397347.42544  20422062.5624   20422062.1044
 -14442219.06744 -11253658.84444  21667174.1554   21667174.6734
  -6837290.73644  -5327742.89344  23724557.6754   23724558.8744
   -313236.96144                  23875147.5184
 -17806401.70744 -13875110.57744  21576645.7764   21576646.8734
 -10517541.15644  -8195483.77244  23336819.5944   23336819.8464
 96  4 26  1 38  0.0000000  0  7G17G 6G16G23G26G20G 5
 -15958275.46044 -12435000.09244  22114342.5084   22114343.1454
 -23637052.60344 -18418468.30744  20416904.9614   20416903.9984
 -14380706.45044 -11205726.94944  21678879.8004   21678880.1384
  -6938814.86344  -5406852.48944  23705238.7054   23705240.6304
   -391203.50544                  23860309.6154
 -17729317.32544 -13815044.84544  21591314.3224   21591315.0644
 -10411532.64344  -8112879.79844  23356991.6134   23356993.6284
 96  4 26  1 38 30.0000000  0  7G17G 6G16G23G26G20G 5
 -16014734.76944 -12478994.33744  22103598.7484   22103599.3794
 -23663839.00844 -18439340.83244  20411807.4404   20411806.9944
 -14318775.98444 -11157469.45344  21690665.2794   21690665.5884
  -7040165.24644  -5485826.71644  23685952.3574   23685954.3114
   -469043.98844                  23845496.9744
 -17651828.22444 -13754663.74644  21606060.0424   21606060.7664
 -10305389.41144  -8030170.85844  23377190.8424   23377191.4804
 96  4 26  1 39  0.0000000  0  7G17G 6G16G23G26G20G 5
 -16070923.35144 -12522777.62744  22092906.2654   22092906.9074
 -23690260.10644 -18459928.70244  20406779.4474   20406778.9604
 -14256378.95644 -11108848.40244  21702538.8004   21702539.0834
  -7141287.52844  -5564623.18144  23666708.3934   23666710.3454
   -546739.14744                  23830711.2174
 -17573901.29044 -13693941.48144  21620888.9574   21620889.5484
 -10199043.94144  -7947304.30844  23397427.5724   23397429.2394
 96  4 26  1 39 30.0000000  0  7G17G 6G16G23G26G20G 5
 -16126878.16244 -12566378.75344  22082258.9714   22082259.2704
 -23716342.87744 -18480252.94244  20401816.4064   20401815.8814
 -14193521.21044 -11059868.34344  21714500.0024   21714500.4374
  -7242207.24944  -5643261.81144  23647504.6484   23647507.1904
   -624321.23444                  23815949.1224
 -17495567.86844 -13632902.47344  21635795.4904   21635796.2764
 -10092521.92444  -7864300.18044  23417697.0054   23417699.0264
 96  4 26  1 40  0.0000000  0  7G17G 6G16G23G26G20G 5
 -16182632.20544 -12609823.43444  22071649.4564   22071649.6604
 -23742117.76544 -18500337.27544  20396911.5414   20396910.9664
 -14130219.21544 -11010542.12744  21726545.7244   21726546.3404
  -7342954.25744  -5721765.88544  23628332.6204   23628335.6534
   -701792.62344                  23801207.2854
 -17416870.73044 -13571580.05444  21650770.8564   21650771.8584
  -9985868.29444  -7781193.49344  23437992.3214   23437994.0714
 96  4 26  1 40 30.0000000  0  7G17G 6G16G23G26G20G 5
 -16238189.46044 -12653114.78344  22061076.7384   22061077.5464
 -23767559.41444 -18520161.93544  20392070.1514   20392069.6514
 -14066470.67544 -10960867.94344  21738677.0674   21738677.3044
  -7443528.61744  -5800135.40244  23609194.1314   23609197.3094
   -779151.98644                  23786485.5744
 -17337811.86244 -13509975.76944  21665815.1824   21665816.3584
  -9879102.70844  -7697999.57344  23458309.4334   23458311.6464
 96  4 26  1 41  0.0000000  0  7G17G 6G16G23G26G20G 5
 -16293552.11744 -12696254.49044  22050541.3734   22050542.4344
 -23792666.17444 -18539725.64644  20387292.5164   20387291.9604
 -14002263.03544 -10910836.02344  21750895.5354   21750895.8434
  -7543938.61144  -5878376.83844  23590086.6404   23590087.6324
   -856377.88644                  23771790.8714
 -17258371.74144 -13448074.39644  21680932.5094   21680933.0294
  -9772251.48644  -7614738.91944  23478643.1944   23478644.8634
 96  4 26  1 41 30.0000000  0  7G17G 6G16G23G26G20G 5
 -16348719.84844 -12739242.31244  22040043.6834   22040043.8224
 -23817435.18244 -18559026.17144  20382579.0504   20382578.8184
 -13937601.12144 -10860450.12244  21763200.3624   21763200.5604
  -7644186.00244  -5956491.59244  23571010.0734   23571012.7794
   -933441.83344                  23757127.1824
 -17178559.34644 -13385882.94344  21696120.7294   21696121.2434
  -9665338.19644  -7531429.92344  23498987.6234   23498989.9994
 96  4 26  1 42  0.0000000  0  7G17G 6G16G23G26G20G 5
 -16403679.87844 -12782068.28944  22029584.9744   22029585.4494
 -23841859.54344 -18578058.14044  20377931.4894   20377930.8784
 -13872500.89144 -10809722.68244  21775588.0054   21775588.3924
  -7744263.41344  -6034473.87444  23551965.6554   23551966.9034
  -1010342.78244                  23742492.7404
 -17098372.23944 -13323399.49844  21711379.7284   21711380.2004
  -9558369.98544  -7448078.13944  23519344.1764   23519345.1284
 96  4 26  1 42 30.0000000  0  7G17G 6G16G23G26G20G 5
 -16458406.24444 -12824712.19444  22019170.4894   22019171.8804
 -23865931.70644 -18596815.67344  20373350.6394   20373350.0374
 -13806964.42744 -10758655.31744  21788059.4314   21788059.7744
  -7844155.55944  -6112311.82044  23532957.3224   23532959.4774
  -1087083.52844                  23727888.8634
 -17017795.55244 -13260612.49144  21726713.0314   21726714.0694
  -9451332.12044  -7364672.06744  23539712.8564   23539715.0074
 96  4 26  1 43  0.0000000  0  8G22G17G 6G16G23G26G20G 5
        -0.44954                  24956708.2494
 -16512887.31144 -12867164.95944  22008803.5614   22008804.3074
 -23889654.99444 -18615301.35144  20368836.1404   20368835.6894
 -13740976.80844 -10707236.40444  21800616.5594   21800616.6984
  -7943841.69744  -6189989.21044  23513988.0324   23513990.2054
  -1163640.53444                  23713320.0994
 -16936816.24444 -13197511.75344  21742122.5154   21742123.3094
  -9344195.01844  -7281188.65844  23560099.5154   23560101.1574
 96  4 26  1 43 30.0000000  0  7G17G 6G16G23G26G20G 5
 -16567152.32944 -12909449.36544  21998476.8264   21998477.5204
 -23913054.39244 -18633534.64544  20364383.6064   20364383.0164
 -13674587.38544 -10655504.39544  21813249.9674   21813250.2424
  -8043343.02444  -6267522.61344  23495053.0814   23495053.7684
  -1240051.87544                  23698779.0444
 -16855474.24144 -13134128.40244  21757601.7214   21757602.7034
  -9236971.91844  -7197638.25944  23580502.9254   23580504.7194
 96  4 26  1 44  0.0000000  0  7G17G 6G16G23G26G20G 5
 -16621186.18144 -12951553.65644  21988194.8384   21988195.2774
 -23936117.95444 -18651506.25444  20359994.6444   20359994.0854
 -13607788.71244 -10603453.48544  21825961.6854   21825961.8174
  -8142652.72244  -6344906.68944  23476154.7874   23476155.5554
  -1316322.09544                  23684266.1684
 -16773762.25444 -13070456.74944  21773150.7044   21773151.5454
  -9129645.23544  -7114007.11844  23600927.6004   23600928.3944
 96  4 26  1 44 30.0000000  0  7G17G 6G16G23G26G20G 5
 -16674978.26444 -12993469.54944  21977958.6384   21977959.1764
 -23958820.27344 -18669196.37144  20355674.3194   20355673.9734
 -13540550.78044 -10551060.30044  21838756.1994   21838756.9774
  -8241744.96344  -6422121.32744  23457298.1854   23457300.5984
  -1392415.92144                  23669785.2764
 -16691674.89144 -13006492.59144  21788771.1714   21788772.3214
  -9022182.02144  -7030269.59944  23621376.5494   23621377.1664
 96  4 26  1 45  0.0000000  0  7G17G 6G16G23G26G20G 5
 -16728569.03144 -13035228.57644  21967760.7264   21967761.0374
 -23981178.45244 -18686618.32644  20351419.8604   20351419.4284
 -13472897.36744 -10498343.36144  21851630.7514   21851630.9054
  -8340650.26544  -6499190.28644  23438477.1554   23438479.1444
  -1468357.85544                  23655333.6674
 -16609253.99144 -12942268.54244  21804455.8194   21804457.1464
  -8914611.41944  -6946448.42844  23641846.6794   23641848.6864
 96  4 26  1 45 30.0000000  0  7G17G 6G16G23G26G20G 5
 -16781952.24644 -13076825.87044  21957602.4774   21957602.9064
 -24003187.92144 -18703768.56444  20347231.7614   20347231.1114
 -13404820.27444 -10445296.28044  21864585.1264   21864585.6574
  -8439362.22544  -6576108.62044  23419692.3184   23419693.9904
  -1544149.25744  -1203231.62644  23640911.7974
 -16526513.20044 -12877795.22244  21820201.0734   21820201.9804
  -8806949.21544  -6862555.83144  23662334.2144   23662334.9014
 96  4 26  1 46  0.0000000  0  8G22G17G 6G16G23G26G20G 5
        -0.63254                  24862631.2264
 -16835110.88144 -13118248.16744  21947486.6954   21947486.3814
 -24024827.76244 -18720630.77944  20343113.6434   20343113.0484
 -13336294.73244 -10391899.75844  21877625.1854   21877625.7394
  -8537856.22144  -6652857.10644  23400949.8704   23400952.3084
  -1619764.44344  -1262152.43744  23626522.3204
 -16443434.52244 -12813058.62144  21836010.0824   21836011.2004
  -8699197.24944  -6778593.33444  23682838.9474   23682842.1534
 96  4 26  1 46 30.0000000  0  7G17G 6G16G23G26G20G 5
 -16888099.22844 -13159537.77044  21937402.9994   21937403.6304
 -24046140.59844 -18737238.18444  20339058.1234   20339057.4964
 -13267375.77944 -10338196.67944  21890740.0404   21890740.1174
  -8636183.17044  -6729475.40544  23382237.9554   23382239.1584
  -1695234.67544  -1320960.39944  23612161.5274
 -16360053.82044 -12748086.66844  21851876.8594   21851877.6924
  -8591404.09444  -6694598.70544  23703352.2774   23703355.4994
 96  4 26  1 47  0.0000000  0  7G17G 6G16G23G26G20G 5
 -16940999.71844 -13200758.91144  21927336.1984   21927336.5914
 -24067221.87044 -18753665.15144  20335046.5094   20335045.9544
 -13198176.98744 -10284275.54844  21903908.0404   21903908.5424
  -8734452.69044  -6806048.98444  23363538.8354   23363539.4714
  -1770660.24144  -1379733.51844  23597807.7204
 -16276455.38744 -12682945.06144  21867785.4434   21867785.7404
  -8483681.45144  -6610659.05344  23723850.8104   23723853.4384
 96  4 26  1 47 30.0000000  0  7G17G 6G16G23G26G20G 5
 -16993664.27644 -13241796.20744  21917314.8034   21917314.6314
 -24087926.85344 -18769798.90744  20331106.3704   20331105.6554
 -13128569.12544 -10230035.66744  21917153.7724   21917154.4944
  -8832525.87344  -6882469.58244  23344875.6874   23344876.5834
  -1845892.52144                  23583491.0434
 -16192478.77044 -12617508.75644  21883765.5424   21883766.2154
  -8375901.88644  -6526675.04144  23744360.6274   23744363.7314
 96  4 26  1 48  0.0000000  0  8G22G17G 6G16G23G26G20G 5
        -0.26454         0.32554  24801015.8934
 -17046112.88744 -13282665.23644  21907333.7434   21907334.2004
 -24108267.10544 -18785648.46044  20327235.9744   20327235.3914
 -13058585.77944 -10175503.18744  21930471.3714   21930471.7144
  -8930442.36144  -6958768.04244  23326241.8864   23326244.3994
  -1920962.67344  -1496852.13744  23569205.9474
 -16108139.98244 -12551790.24344  21899814.9684   21899816.0034
  -8268082.54644  -6442660.04344  23764877.5054   23764878.6984
 96  4 26  1 48 30.0000000  0  7G17G 6G16G23G26G20G 5
 -17098348.67344 -13323368.42044  21897394.0044   21897394.7414
 -24128246.65644 -18801216.94144  20323433.6904   20323433.2544
 -12988230.09344 -10120680.57344  21943859.6964   21943860.0624
  -9028209.76944  -7034950.36944  23307637.9854   23307638.8394
  -1995881.57644  -1555230.46444  23554949.1304
 -16023452.58344 -12485800.08544  21915930.5154   21915931.5214
  -8160223.95244  -6358614.43844  23785402.6684   23785403.3254
 96  4 26  1 49  0.0000000  0  7G17G 6G16G23G26G20G 5
 -17150349.26344 -13363888.34144  21887498.5214   21887499.0204
 -24147844.54344 -18816488.02144  20319704.5764   20319703.9754
 -12917474.44244 -10065546.30944  21957324.0684   21957324.4994
  -9125784.24944  -7110982.38144  23289069.4324   23289071.3104
  -2070636.98444  -1613481.36544  23540723.1114   23540723.7704
 -15938402.99244 -12419527.70244  21932114.9424   21932115.7144
  -8052315.04344  -6274529.63544  23805936.8034   23805938.0334
 96  4 26  1 49 30.0000000  0  8G22G17G 6G16G23G26G20G 5
        -1.01954                  24755444.3364
 -17202083.20944 -13404200.48444  21877653.7054   21877654.2604
 -24167013.16144 -18831424.61044  20316056.8664   20316056.2004
 -12846250.85044 -10010047.41544  21970877.2654   21970877.7314
  -9223086.49244  -7186802.23144  23270553.9834   23270554.7674
  -2145168.78444  -1671558.02744  23526541.3574   23526542.8454
 -15852948.12144 -12352939.51344  21948375.9074   21948376.7424
  -7944293.46544  -6190357.02244  23826493.3744   23826496.5294
 96  4 26  1 50  0.0000000  0  8G22G17G 6G16G23G26G20G 5
    -79103.24644                  24740389.8914
 -17253581.16344 -13444328.73744  21867853.9044   21867854.5364
 -24185773.16244 -18846042.79344  20312486.7154   20312486.3584
 -12774578.05744  -9954198.49044  21984516.4824   21984516.9804
  -9320121.44144  -7262413.80844  23252089.0684   23252091.6424
  -2219488.46444  -1729469.44244  23512398.4194   23512399.7344
 -15767138.99244 -12286075.28744  21964704.9334   21964706.4954
  -7836164.23144  -6106100.54644  23847069.2754   23847070.9444
 96  4 26  1 50 30.0000000  0  8G22G17G 6G16G23G26G20G 5
   -157860.47444                  24725401.5114
 -17304874.33944 -13484297.42944  21858093.0594   21858093.8494
 -24204145.14344 -18860358.62244  20308990.9544   20308990.2954
 -12702483.14144  -9898020.64044  21998235.8824   21998236.0044
  -9416892.50344  -7337819.74144  23233673.9144   23233676.3204
  -2293591.42644  -1787211.92844  23498297.0684   23498297.1034
 -15681006.64144 -12218959.20344  21981095.3414   21981096.7074
  -7727944.07344  -6021773.20844  23867663.1014   23867665.9954
 96  4 26  1 51  0.0000000  0  8G22G17G 6G16G23G26G20G 5
   -236262.93144   -184101.60844  24710479.6274
 -17355965.89644 -13524109.01244  21848370.8714   21848371.5344
 -24222120.15444 -18874365.12944  20305570.2564   20305569.6844
 -12629966.25844  -9841513.99444  22012035.2154   22012035.8584
  -9513385.00444  -7413008.66044  23215312.4194   23215314.1194
  -2367453.74844  -1844766.94844  23484240.5764   23484242.4964
 -15594533.62244 -12151577.66044  21997550.8134   21997551.5924
  -7619628.61244  -5937371.59844  23888275.0384   23888278.1854
 96  4 26  1 51 30.0000000  0  8G22G17G 6G16G23G26G20G 5
   -314332.23444   -244934.70044  24695623.5594   24695623.3784
 -17406865.70144 -13563771.18444  21838684.9084   21838685.0784
 -24239712.91944 -18888073.77744  20302222.5484   20302222.0744
 -12557053.63344  -9784698.97144  22025909.9334   22025910.5894
  -9609623.69744  -7487999.78444  23196998.3054   23196998.8184
  -2441073.77644  -1902133.14744  23470232.5394   23470234.2984
 -15507744.46544 -12083949.77544  22014066.4284   22014067.4964
  -7511229.46144  -5852904.77644  23908902.7574   23908902.8164
 96  4 26  1 52  0.0000000  0  8G22G17G 6G16G23G26G20G 5
   -392112.84544   -305542.90244  24680822.0744
 -17457587.58144 -13603294.71244  21829033.2044   21829033.0564
 -24256957.68244 -18901511.25444  20298941.0014   20298940.4914
 -12483797.55944  -9727616.32644  22039850.1024   22039850.5204
  -9705664.73044  -7562836.88744  23178722.3514   23178723.6184
  -2514482.48144  -1959334.65544  23456262.7594   23456265.5554
 -15420671.69244 -12016100.88544  22030636.4144   22030637.0984
  -7402803.55044  -5768417.12744  23929535.3314   23929536.4044
 96  4 26  1 52 30.0000000  0  8G22G17G 6G16G23G26G20G 5
   -469594.59844                  24666082.5074
 -17508127.49244 -13642676.44344  21819415.7364   21819415.5974
 -24273864.86044 -18914685.68044  20295723.4874   20295723.0024
 -12410206.35144  -9670272.53444  22053854.0314   22053854.2964
  -9801522.40744  -7637531.12644  23160481.5404   23160482.6794
  -2587691.72744  -2016380.78644  23442331.1534   23442331.7854
 -15333309.06444 -11948026.13544  22047260.8814   22047261.3114
  -7294376.78444  -5683928.78544  23950167.8204   23950169.4874
 96  4 26  1 53  0.0000000  0  7G17G 6G16G23G26G20G 5
 -17558411.41644 -13681858.70644  21809846.9224   21809847.5294
 -24290381.39044 -18927555.70544  20292580.8104   20292580.3684
 -12336221.39344  -9612621.92444  22067932.7424   22067933.2444
  -9897136.31344  -7712035.42244  23142286.3334   23142286.9294
  -2660650.64544  -2073231.85244  23428447.1644   23428448.7234
 -15245597.78044 -11879679.70244  22063951.6724   22063952.1804
  -7185895.92144  -5599398.32344  23970813.0534   23970813.3584
 96  4 26  1 53 30.0000000  0  7G17G 6G16G23G26G20G 5
 -17608456.07544 -13720854.52844  21800323.6334   21800324.6404
 -24306529.09644 -18940138.33244  20289507.7624   20289507.1494
 -12261864.28644  -9554681.33644  22082082.2754   22082082.8724
  -9992542.57544  -7786377.88444  23124131.1974   23124133.7194
  -2733388.96444  -2129910.99344  23414606.1914   23414608.2844
 -15157586.20244 -11811099.28044  22080699.1584   22080700.4814
  -7077380.90744  -5514841.28244  23991462.3434   23991463.7604
 96  4 26  1 54  0.0000000  0  7G17G 6G16G23G26G20G 5
 -17658287.18244 -13759683.94444  21790840.7644   21790841.3724
 -24322324.37044 -18952446.34144  20286502.1354   20286501.5934
 -12187162.42544  -9496472.10744  22096298.0204   22096298.5804
 -10087761.31544  -7860574.25244  23106011.5474   23106013.6444
  -2805938.10144  -2186442.73044  23400800.6544   23400800.2724
 -15069295.49344 -11742301.35644  22097500.0754   22097501.6454
  -6968859.03044  -5430278.79044  24012112.4464   24012114.6364
 96  4 26  1 54 30.0000000  0  7G17G 6G16G23G26G20G 5
 -17707904.63944 -13798346.88244  21781399.0254   21781399.4434
 -24337749.90444 -18964466.24044  20283566.7164   20283566.2754
 -12112102.27444  -9437983.69344  22110581.7954   22110582.0094
 -10182772.95044  -7934609.23844  23087931.2274   23087933.3124
  -2878298.86944  -2242827.70644  23387030.8364   23387032.0864
 -14980726.35344 -11673286.47944  22114354.3474   22114355.7344
  -6860312.97844  -5345697.57044  24032768.7014
 96  4 26  1 55  0.0000000  0  8G22G17G 6G16G23G26G20G 5
         0.00554                  24593356.7324
 -17757301.28544 -13836837.75444  21771999.1074   21771999.7884
 -24352796.62444 -18976190.95944  20280703.4164   20280702.9034
 -12036676.69944  -9379210.52144  22124934.6464   22124934.6374
 -10277565.98844  -8008473.88444  23069893.1354   23069894.4244
  -2950461.22144  -2299058.05544  23373297.7654   23373297.5934
 -14891871.51244 -11604048.97844  22131263.6014   22131264.9674
  -6751748.65244  -5261102.01044  24053428.2514
 96  4 26  1 55 30.0000000  0  8G22G17G 6G16G23G26G20G 5
    -75419.09644    -58768.00644  24579005.9594   24579008.1864
 -17806523.69244 -13875192.86244  21762632.7504   21762633.2784
 -24367500.42744 -18987648.47544  20277905.3884   20277904.8574
 -11960922.92544  -9320181.61844  22139349.7084   22139350.5264
 -10372175.86244  -8082195.81344  23051888.4034   23051891.1534
  -3022451.38344  -2355154.23844  23359598.9464   23359599.0184
 -14802760.11044 -11534611.54844  22148220.6884   22148221.2294
  -6643214.37844                  24074079.7264
 96  4 26  1 56  0.0000000  0  7G17G 6G16G23G26G20G 5
 -17855545.05644 -13913391.31944  21753304.3974   21753304.6704
 -24381845.99944 -18998826.84844  20275175.5804   20275175.2124
 -11884826.23244  -9260885.50744  22153830.5684   22153830.8874
 -10466565.98844  -8155746.49144  23033927.0764   23033928.8094
  -3094247.47944  -2411099.17244  23345937.2684   23345936.0584
 -14713356.00044 -11464946.02344  22165234.0664   22165235.1064
  -6534696.83544                  24094729.9584
 96  4 26  1 56 30.0000000  0  7G17G 6G16G23G26G20G 5
 -17904362.57144 -13951430.92244  21744014.7774   21744015.0434
 -24395828.68744 -19009722.45344  20272514.6444   20272514.0904
 -11808368.10344  -9201307.75844  22168380.2874   22168380.0834
 -10560730.02844  -8229120.99744  23016007.9054   23016009.5654
  -3165835.47044  -2466881.96344  23332313.4184   23332312.8854
 -14623654.92144 -11395049.10244  22182303.1674   22182303.8294
  -6426196.76544                  24115377.8944
 96  4 26  1 57  0.0000000  0  8G22G17G 6G16G23G26G20G 5
        -0.20154                  24536349.9294
 -17952939.80844 -13989283.29644  21734770.8874   21734771.0954
 -24409406.92144 -19020302.90044  20269930.9234   20269930.3494
 -11731510.69244  -9141418.86944  22183005.7344   22183005.5084
 -10654625.15144  -8302285.98044  22998140.7514   22998142.2404
  -3237154.22744  -2522454.96344  23318742.0444   23318741.4174
 -14533616.18344 -11324889.07044  22199437.4074   22199438.4354
  -6317661.62344                  24136031.2374
 96  4 26  1 57 30.0000000  0  8G22G17G 6G16G23G26G20G 5
    -74004.61144    -57665.90044  24522265.7664
 -18001315.16444 -14026978.36244  21725565.0984   21725565.4074
 -24422604.13544 -19030586.44744  20267419.5054   20267419.1274
 -11654296.50544  -9081251.99044  22197698.9264   22197698.5494
 -10748277.64444  -8375261.89744  22980320.1734   22980320.7854
  -3308229.93944  -2577838.59144  23305217.1204   23305216.6974
 -14443281.77344 -11254498.64944  22216626.9184   22216628.2464
  -6209101.60844                  24156691.8534
 96  4 26  1 58  0.0000000  0  8G22G17G 6G16G23G26G20G 5
   -147645.27844                  24508255.4124
 -18049466.63044 -14064498.97144  21716402.1854   21716402.6424
 -24435391.45844 -19040550.59944  20264986.2534   20264985.7954
 -11576715.89344  -9020799.57244  22212461.8504   22212462.3284
 -10841680.99744  -8448043.67744  22962545.9374   22962546.0274
  -3379054.86544  -2633026.78444  23291740.0204   23291739.6254
 -14352656.11044 -11183881.28344  22233872.9624   22233874.1434
  -6100504.28544                  24177357.4794
 96  4 26  1 58 30.0000000  0  7G22G17G 6G16G23G26G20
   -220911.59844                  24494311.5144
 -18097400.82644 -14101850.28044  21707280.4434   21707281.0314
 -24447749.38444 -19050180.15944  20262634.7854   20262634.1954
 -11498759.10044  -8960054.02544  22227296.7694   22227297.1914
 -10934835.57544  -8520631.62144  22944819.8964   22944819.8734
  -3449620.91044  -2688013.26944  23278311.0124   23278312.4794
 -14261745.80844 -11113042.11644  22251172.1914   22251173.0514
 96  4 26  1 59  0.0000000  0  7G22G17G 6G16G23G26G20
   -293800.16544   -228935.02044  24480441.9404
 -18145109.88344 -14139026.15444  21698201.6384   21698202.1574
 -24459667.96844 -19059467.37244  20260366.4444   20260365.9874
 -11420440.83644  -8899026.81844  22242200.1304   22242201.0624
 -11027724.60344  -8593012.63944  22927143.3554   22927144.0744
  -3519915.15244  -2742787.93744  23264934.5374   23264934.7564
 -14170552.69944 -11041982.57344  22268525.8454   22268526.9574
 96  4 26  1 59 30.0000000  0  7G22G17G 6G16G23G26G20
   -366308.46944                  24466643.6174
 -18192588.17444 -14176022.20744  21689167.3614   21689167.6754
 -24471140.88844 -19068407.31544  20258183.5354   20258182.9194
 -11341766.09744  -8837721.84044  22257171.2614   22257171.8314
 -11120351.70344  -8665189.54544  22909516.3064   22909518.3064
  -3589929.53044  -2797344.55144  23251611.4144   23251612.6164
 -14079075.67844 -10970701.81144  22285933.4434   22285934.4754
 96  4 26  2  0  0.0000000  0  7G22G17G 6G16G23G26G20
   -438401.01944                  24452924.8584
 -18239820.64844 -14212826.71944  21680178.9784   21680179.3604
 -24482149.99744 -19076985.84844  20256088.5124   20256088.0534
 -11262711.67744  -8776121.00244  22272215.2764   22272215.6524
 -11212696.72944  -8737146.65544  22891943.2254   22891943.9034
  -3659634.48244  -2851660.05344  23238347.2384   23238347.5314
 -13987293.15344 -10899182.98644  22303399.3254   22303400.4164
 96  4 26  2  0 30.0000000  0  7G22G17G 6G16G23G26G20
   -510097.42944                  24439279.6434
 -18286843.72144 -14249468.06444  21671230.8404   21671231.3894
 -24492736.55244 -19085235.11344  20254073.9884   20254073.6724
 -11183308.13644  -8714248.12844  22287325.5484   22287326.9654
 -11304764.51544  -8808887.75344  22874423.1624   22874424.4944
  -3729047.32144  -2905747.91044  23225138.4254   23225138.0864
 -13895224.35044 -10827441.09244  22320918.8474   22320920.5644
 96  4 26  2  1  0.0000000  0  7G22G17G 6G16G23G26G20
   -581396.50644                  24425710.4744
 -18333659.60844 -14285947.96644  21662322.1724   21662322.3964
 -24502921.34744 -19093171.32244  20252135.8664   20252135.4294
 -11103580.53844  -8652122.73744  22302497.0164   22302496.7614
 -11396557.40544  -8880414.62844  22856955.1024   22856956.7054
  -3798169.61844  -2959609.38944  23211984.8054   23211985.5264
 -13802882.85144 -10755486.71144  22338491.4904   22338492.9324
 96  4 26  2  1 30.0000000  0  7G22G17G 6G16G23G26G20
   -652305.68844                  24412217.7734
 -18380291.80544 -14322284.73244  21653447.9264   21653448.4634
 -24512731.35344 -19100815.48744  20250269.0564   20250268.6084
 -11023534.20944  -8589748.98044  22317729.0244   22317729.5104
 -11488097.68644  -8951744.66444  22839535.5364   22839536.9434
  -3867023.04644  -3013261.37744  23198882.1164   23198883.2944
 -13710285.86544 -10683333.24044  22356111.6204   22356113.0754
 96  4 26  2  2  0.0000000  0  7G22G17G 6G16G23G26G20
   -722805.48744                  24398802.9924
 -18426717.44544 -14358460.54444  21644613.5514   21644614.1034
 -24522153.05944 -19108157.07744  20248476.0594   20248475.6644
 -10943147.62844  -8527110.09344  22333026.3944   22333026.9814
 -11579348.53244  -9022849.18644  22822171.5474   22822172.1304
  -3935600.56844  -3066698.34744  23185832.0034   23185833.2294
 -13617419.44644 -10610969.82744  22373783.2474   22373785.4114
 96  4 26  2  2 30.0000000  0  7G22G17G 6G16G23G26G20
   -792898.50744                  24385464.6844
 -18472916.59844 -14394459.87244  21635822.3774   21635822.8054
 -24531175.90944 -19115187.87344  20246759.1334   20246758.5524
 -10862404.15944  -8464193.11844  22348391.7114   22348391.7154
 -11670298.19644  -9093719.01944  22804864.5844   22804865.5754
  -4003904.86444  -3119922.41844  23172833.7854   23172834.4904
 -13524275.84744 -10538390.43644  22391508.6194   22391509.2864
 96  4 26  2  3  0.0000000  0  7G22G17G 6G16G23G26G20
   -862621.04644   -672172.02044  24372197.8314
 -18518919.44144 -14430306.23444  21627068.0954   21627068.4814
 -24539813.09444 -19121918.15044  20245115.6254   20245115.1144
 -10781328.49544  -8401017.28744  22363819.6394   22363820.0914
 -11760986.17944  -9164384.95044  22787607.7334   22787608.3234
  -4071955.34044  -3172948.71644  23159884.5394   23159885.2824
 -13430894.32844 -10465625.63544  22409279.0284   22409279.2794
 96  4 26  2  3 30.0000000  0  7G22G17G 6G16G23G26G20
   -932005.01044   -726237.51244  24358993.3204   24358995.6464
 -18564749.77244 -14466018.17144  21618347.0514   21618347.4854
 -24548073.16044 -19128354.56844  20243543.8144   20243543.3544
 -10699935.21044  -8337593.96444  22379307.9204   22379308.7354
 -11851431.47044  -9234861.77044  22770396.8154   22770397.3294
  -4139765.39644  -3225787.67244  23146980.6964   23146981.0434
 -13337286.29144 -10392684.33844  22427091.7654   22427092.4224
 96  4 26  2  4  0.0000000  0  7G22G17G 6G16G23G26G20
  -1001125.47444   -780097.59344  24345839.5424   24345842.3544
 -18610471.49144 -14501645.47844  21609645.9524   21609646.7934
 -24556007.68044 -19134537.31144  20242033.8354   20242033.3624
 -10618301.36644  -8273983.19044  22394842.4804   22394843.1714
 -11941698.48544  -9305199.66944  22753219.2134   22753220.6024
  -4207393.05144  -3278484.50644  23134111.9944   23134112.1084
 -13243525.38544 -10319623.91944  22444933.7894   22444934.5464
 96  4 26  2  4 30.0000000  0  7G22G17G 6G16G23G26G20
  -1070026.15144   -833786.39044  24332727.1194   24332725.6084
 -18656145.43244 -14537235.56044  21600954.2694   21600955.4754
 -24563662.05644 -19140501.76544  20240577.5104   20240576.8064
 -10536483.66644  -8210229.14944  22410411.9334   22410411.6274
 -12031857.87344  -9375453.69444  22736061.5344   22736062.8444
  -4274882.08144  -3331073.30844  23121269.0094   23121268.6884
 -13149664.13244 -10246485.31444  22462795.1054   22462796.0764
 96  4 26  2  5  0.0000000  0  7G22G17G 6G16G23G26G20
  -1138552.70744   -887183.69244  24319686.8704
 -18701634.94144 -14572681.92144  21592298.1584   21592298.9704
 -24570896.33144 -19146138.86944  20239200.6664   20239200.0494
 -10454371.16844  -8146245.39544  22426037.4324   22426037.4624
 -12121783.15744  -9445525.30444  22718949.1594   22718950.4464
  -4342074.57144  -3383431.04144  23108482.2464   23108482.4144
 -13055573.66344 -10173168.09844  22480699.9324   22480700.8274
 96  4 26  2  5 30.0000000  0  7G22G17G 6G16G23G26G20
  -1206603.67344                  24306737.4724
 -18746846.07244 -14607911.36444  21583694.9064   21583695.5004
 -24577623.59344 -19151380.89844  20237920.5914   20237920.0654
 -10371890.95644  -8081975.11444  22441732.9954   22441733.3014
 -12211385.20044  -9515345.03944  22701898.9414   22701900.4404
  -4408888.30944  -3435493.65544  23095768.3414   23095768.1804
 -12961169.29744 -10099606.28844  22498664.7704   22498665.4064
 96  4 26  2  6  0.0000000  0  7G22G17G 6G16G23G26G20
  -1274134.78944   -992832.03444  24293886.1714
 -18791729.18044 -14642885.20544  21575153.8884   21575154.3884
 -24583812.39444 -19156203.34144  20236742.5984   20236742.2544
 -10289007.66044  -8017390.73244  22457504.8394   22457506.4174
 -12300623.31644  -9584881.19144  22684917.7184   22684918.0354
  -4475297.18944  -3487240.78344  23083130.5674   23083132.1234
 -12866429.64144 -10025783.21544  22516692.4494   22516693.3544
 96  4 26  2  6 30.0000000  0  7G22G17G 6G16G23G26G20
  -1341216.98144  -1045103.84344  24281120.3004
 -18836362.21144 -14677664.18244  21566660.4614   21566660.9484
 -24589551.29144 -19160675.21644  20235651.0174   20235650.2424
 -10205805.09744  -7952557.58344  22473337.4024   22473337.5204
 -12389572.58844  -9654192.28444  22667991.5204   22667991.7874
  -4541389.37444  -3538741.15244  23070554.0774   23070554.5964
 -12771445.32744  -9951769.49544  22534767.4024   22534768.0084
 96  4 26  2  7  0.0000000  0  7G22G17G 6G16G23G26G20
  -1407860.02744  -1097033.49844  24268437.8254
 -18880739.90444 -14712244.19244  21558215.8224   21558216.1714
 -24594831.22644 -19164789.45644  20234645.7424   20234645.4304
 -10122280.23044  -7887473.27844  22489232.1534   22489232.7394
 -12478203.99644  -9723255.68744  22651125.4334   22651125.9284
  -4607153.76144  -3589986.08044  23058039.0324   23058039.8554
 -12676226.27944  -9877572.85944  22552887.4264   22552888.4854
 96  4 26  2  7 30.0000000  0  7G22G17G 6G16G23G26G20
  -1474069.59044  -1148625.32544  24255840.6224
 -18924854.57844 -14746619.26144  21549821.2534   21549821.6474
 -24599643.16844 -19168539.02344  20233730.4124   20233729.8824
 -10038400.62944  -7822112.55844  22505194.1314   22505194.1314
 -12566483.87744  -9792045.16744  22634325.7694   22634327.0784
  -4672590.16544  -3640975.44944  23045587.1914   23045587.9594
 -12580755.41944  -9803180.00744  22571054.9804   22571056.1384
 96  4 26  2  8  0.0000000  0  7G22G17G 6G16G23G26G20
  -1539867.25144  -1199896.25744  24243319.9194   24243319.0504
 -18968732.67744 -14780809.97944  21541471.3804   21541471.9074
 -24604017.06044 -19171947.25744  20232897.9654   20232897.4544
  -9954175.99544  -7756482.99144  22521221.1244   22521221.6144
 -12654427.43744  -9860572.58344  22617590.9724   22617591.4674
  -4737714.64344  -3691721.75544  23033194.4294   23033194.2844
 -12485046.52644  -9728601.67844  22589267.8854   22589268.8594
 96  4 26  2  8 30.0000000  0  7G22G17G 6G16G23G26G20
  -1605352.67844  -1250923.84744  24230860.2964   24230855.9884
 -19012488.23644 -14814905.20844  21533144.7124   21533145.5564
 -24608042.21444 -19175083.74744  20232132.2824   20232131.6714
  -9869715.83444  -7690669.88244  22537293.8364   22537294.4334
 -12742139.48244  -9928919.60044  22600899.6814   22600901.6474
  -4802609.50544  -3742289.14544  23020845.5924   23020845.8934
 -12389197.43044  -9653914.10344  22607506.5344   22607508.3904
 96  4 26  2  9  0.0000000  0  7G22G17G 6G16G23G26G20
  -1670729.97944  -1301867.21044  24218418.0314
 -19056318.52244 -14849058.66644  21524804.3444   21524804.6184
 -24611912.13044 -19178099.27044  20231395.4494   20231394.9394
  -9785218.75644  -7624828.01144  22553373.6464   22553374.0624
 -12829822.04544  -9997243.63344  22584213.8944   22584215.1784
  -4867462.80244  -3792824.13244  23008504.4734   23008503.9504
 -12293392.96444  -9579261.31244  22625737.9764   22625740.0124
 96  4 26  2  9 30.0000000  0  7G17G22G 6G16G23G26G20
 -19099934.79844 -14883045.36744  21516504.5994   21516504.7674
  -1735691.69644  -1352486.73744  24206056.5324   24206057.7714
 -24615354.40544 -19180781.56944  20230740.8844   20230740.2894
  -9700403.89644  -7558738.52544  22569513.2954   22569513.6284
 -12917198.79644 -10065329.37244  22567586.5474   22567588.3664
  -4931994.44744  -3843108.49544  22996224.3154   22996223.8604
 -12197334.95944  -9504410.96344  22644017.6074   22644018.8324
 96  4 26  2 10  0.0000000  0  7G17G22G 6G16G23G26G20
 -19143110.89244 -14916689.06644  21508288.1194   21508288.6064
  -1799999.68244  -1402596.84244  24193818.7424   24193818.0624
 -24618138.20544 -19182950.77044  20230210.8724   20230210.4454
  -9615064.75344  -7492240.48944  22585752.4314   22585752.8554
 -13004067.23944 -10133019.02544  22551055.7674   22551057.5114
  -4995973.50044  -3892962.25544  22984049.6834   22984049.9464
 -12100815.56144  -9429201.07344  22662384.6434   22662385.9794
 96  4 26  2 10 30.0000000  0  7G22G17G 6G16G23G26G20
  -1863991.28344  -1452460.44344  24181639.9894
 -19186176.74944 -14950246.86844  21500092.8544   21500093.3484
 -24620583.68844 -19184856.34544  20229745.6664   20229745.1004
  -9529538.93544  -7425597.01144  22602027.0764   22602028.6354
 -13090765.12144 -10200575.78044  22534558.3604   22534559.4224
  -5059728.99244  -3942641.82044  22971917.6784   22971918.2934
 -12004167.18244  -9353890.68244  22680776.0404   22680777.3364
 96  4 26  2 11  0.0000000  0  7G22G17G 6G16G23G26G20
  -1927579.26144  -1502010.13444  24169541.3534   24169542.1374
 -19229063.03744 -14983664.74844  21491931.8564   21491932.5814
 -24622640.78044 -19186459.28044  20229353.8364   20229353.3964
  -9443754.17844  -7358751.76244  22618351.1974   22618351.7244
 -13177228.69644 -10267949.96444  22518104.8244   22518105.6934
  -5123198.78444  -3992098.75744  22959838.6884   22959839.2044
 -11907315.89844  -9278422.17944  22699205.9664   22699207.4284
 96  4 26  2 11 30.0000000  0  7G22G17G 6G16G23G26G20
  -1990664.03444  -1551167.28744  24157536.5584   24157537.7834
 -19271686.57144 -15016877.88344  21483820.9084   21483821.8544
 -24624219.13944 -19187689.17344  20229053.6404   20229053.2534
  -9357625.62844  -7291638.62644  22634741.3974   22634741.7274
 -13263375.96444 -10335077.66744  22501711.6214   22501712.8514
  -5186285.69044  -4041257.34844  22947833.8874   22947833.4554
 -11810188.91544  -9202738.84944  22717688.7834   22717689.6534
 96  4 26  2 12  0.0000000  0  7G22G17G 6G16G23G26G20
  -2053396.98544  -1600050.06044  24145598.1274   24145596.9104
 -19314188.40444 -15049996.18344  21475733.0524   21475733.7254
 -24625450.07144 -19188648.34744  20228819.3074   20228819.1244
  -9271296.94644  -7224369.54144  22651169.3444   22651169.9054
 -13349350.72144 -10402070.95144  22485350.8564   22485351.6364
  -5249118.83344  -4090218.20744  22935877.1484   22935878.2864
 -11712936.07644  -9126957.44744  22736195.8834   22736197.1634
 96  4 26  2 12 30.0000000  0  7G22G17G 6G16G23G26G20
  -2115700.07544  -1648597.99344  24133743.3754   24133744.4454
 -19356488.37344 -15082957.18844  21467683.8084   21467684.3544
 -24626266.91144 -19189284.85444  20228664.1444   20228663.5674
  -9184685.80444  -7156880.34444  22667651.2484   22667652.2504
 -13435054.83044 -10468853.35044  22469042.3414   22469043.2634
  -5311618.36544  -4138919.10144  22923984.1814   22923984.4014
 -11615471.33944  -9051010.92944  22754742.1944   22754743.6954
 96  4 26  2 13  0.0000000  0  7G22G17G 6G16G23G26G20
  -2177544.39244  -1696788.39144  24121974.2344   24121974.7694
 -19398567.77444 -15115746.32444  21459676.0944   21459676.6694
 -24626653.54344 -19189586.13144  20228590.4844   20228590.0364
  -9097776.38344  -7089158.73444  22684189.3684   22684189.8234
 -13520451.81444 -10535396.43644  22452791.8264   22452792.5354
  -5373755.09644  -4187337.29644  22912160.2764   22912160.3124
 -11517791.59444  -8974896.87944  22773330.3804   22773331.3414
 96  4 26  2 13 30.0000000  0  7G22G17G 6G16G23G26G20
  -2238960.41244  -1744644.99544  24110286.6074   24110290.8244
 -19440438.60344 -15148372.93444  21451708.4494   21451709.0884
 -24626611.25044 -19189553.18444  20228598.5754   20228598.1704
  -9010580.77744  -7021214.10944  22700781.8084   22700782.7934
 -13605533.27844 -10601693.65044  22436601.0814   22436601.6594
  -5435532.44844  -4235475.45844  22900403.7874   22900403.3324
 -11419920.39744  -8898633.63844  22791954.6254   22791955.4034
 96  4 26  2 14  0.0000000  0  7G22G17G 6G16G23G26G20
  -2299956.28744  -1792174.22044  24098680.2584   24098680.5794
 -19482098.68544 -15180835.32744  21443780.6844   21443781.3234
 -24626140.68044 -19189186.51544  20228688.0714   20228687.6434
  -8923101.27544  -6953048.27344  22717428.7064   22717429.2644
 -13690281.97144 -10667731.56544  22420473.8424   22420474.5074
  -5496957.00644  -4283338.70944  22888715.2924   22888715.6584
 -11321854.44644  -8822218.64344  22810615.5064   22810617.1964
 96  4 26  2 14 30.0000000  0  7G22G17G 6G16G23G26G20
  -2360530.43344  -1839374.81644  24087152.8024   24087156.0564
 -19523558.75444 -15213141.86544  21435891.2854   21435891.4114
 -24625238.70044 -19188483.68344  20228859.6644   20228859.1864
  -8835344.97044  -6884666.74644  22734127.9474   22734128.4654
 -13774689.58844 -10733503.71144  22404411.5284   22404413.0294
  -5558027.94044  -4330926.40244  22877093.9804   22877094.1074
 -11223608.17844  -8745663.15044  22829311.7154   22829312.0474
 96  4 26  2 15  0.0000000  0  7G22G17G 6G16G23G26G20
  -2420696.31644  -1886257.33044  24075704.3154   24075705.7024
 -19564838.05644 -15245307.54544  21428036.0484   21428036.4394
 -24623908.35844 -19187447.06244  20229112.8514   20229112.4404
  -8747320.85344  -6816076.53944  22750878.5094   22750878.0684
 -13858773.30544 -10799023.45544  22388410.5324   22388412.1894
  -5618755.84044  -4378246.79244  22865537.6394   22865538.0464
 -11125215.09944  -8668993.24044  22848035.1994   22848035.6354
 96  4 26  2 15 30.0000000  0  7G22G17G 6G16G23G26G20
  -2480464.92244  -1932830.26844  24064330.7264   24064332.1164
 -19605937.84744 -15277333.34144  21420215.2804   21420215.6544
 -24622139.33544 -19186068.60944  20229449.4684   20229449.0194
  -8659041.76044  -6747287.64644  22767677.5964   22767677.5014
 -13942551.76844 -10864305.34144  22372467.7514   22372470.0844
  -5679159.79044  -4425314.76044  22854042.7524   22854044.2474
 -11026688.56844  -8592219.35944  22866784.3354   22866785.9374
 96  4 26  2 16  0.0000000  0  7G22G17G 6G16G23G26G20
  -2539790.44044  -1979057.92644  24053040.8914   24053040.0734
 -19646815.26844 -15309185.86744  21412436.4734   21412437.0314
 -24619880.45544 -19184308.45044  20229879.1874   20229878.6054
  -8570483.32944  -6678281.09144  22784529.4404   22784530.0804
 -14025992.68244 -10929324.19844  22356589.6734   22356591.0934
  -5739200.68844  -4472099.83644  22842617.1924   22842617.8314
 -10927998.60244  -8515318.11244  22885564.2734   22885565.3674
 96  4 26  2 16 30.0000000  0  7G22G17G 6G16G23G26G20
  -2598667.92244  -2024936.49144  24041835.9084   24041833.7504
 -19687477.28044 -15340870.53944  21404698.9194   21404699.3334
 -24617142.16244 -19182174.72144  20230400.3134   20230399.9184
  -8481655.00244  -6609064.24044  22801433.1914   22801434.2464
 -14109109.42244 -10994090.46244  22340773.4004   22340773.8694
  -5798885.39844  -4518607.34544  22831259.7264   22831259.6664
 -10829164.92644  -8438304.89544  22904372.1294   22904374.1664
 96  4 26  2 17  0.0000000  0  7G22G17G 6G16G23G26G20
  -2657096.78744  -2070465.48344  24030718.3514   24030716.5404
 -19727906.27444 -15372373.64044  21397005.3304   21397005.8344
 -24613928.24944 -19179670.37544  20231011.9934   20231011.5454
  -8392561.20844  -6539640.52844  22818387.3484   22818387.2734
 -14191909.17344 -11058609.72744  22325017.7924   22325018.4284
  -5858217.20644  -4564839.89244  22819969.5014   22819969.2534
 -10730175.92244  -8361170.63944  22923209.2224   22923210.5494
 96  4 26  2 17 30.0000000  0  7G22G17G 6G16G23G26G20
  -2715074.19944  -2115642.67244  24019684.0774   24019685.5714
 -19768101.10044 -15403694.26844  21389356.3284   21389356.9164
 -24610227.00844 -19176786.29844  20231716.2374   20231715.8274
  -8303216.94144  -6470021.62444  22835388.7704   22835389.1104
 -14274383.25144 -11122875.21644  22309323.5104   22309323.9094
  -5917179.99244  -4610784.88744  22808748.6164   22808748.3904
 -10631006.02044  -8283895.41544  22942080.7444   22942082.2424
 96  4 26  2 18  0.0000000  0  7G22G17G 6G16G23G26G20
  -2772591.22144  -2160461.09944  24008739.7244   24008741.3294
 -19808062.45544 -15434832.98044  21381752.0984   21381752.5434
 -24606049.51144 -19173531.10944  20232511.4524   20232511.0524
  -8213616.53944  -6400203.12944  22852439.5234   22852440.0414
 -14356522.68444 -11186879.94544  22293692.6004   22293693.0814
  -5975764.41044  -4656435.04144  22797601.2084   22797601.4934
 -10531634.81944  -8206463.34244  22960989.8714   22960990.5724
 96  4 26  2 18 30.0000000  0  7G22G17G 6G16G23G26G20
  -2829658.67244  -2204929.23444  23997879.4764   23997879.8434
 -19847804.72044 -15465800.97244  21374189.2634   21374189.8554
 -24601414.02144 -19169919.04444  20233393.4284   20233393.0184
  -8123771.42844  -6330193.97544  22869535.8874   22869536.5054
 -14438340.07244 -11250633.72944  22278122.8754   22278124.0804
  -6033981.90244  -4701799.30844  22786522.6334   22786522.9664
 -10432070.71644  -8128880.95244  22979936.6294   22979938.0934
 96  4 26  2 19  0.0000000  0  7G22G17G 6G16G23G26G20
  -2886284.32144  -2249053.11944  23987105.4194   23987105.1694
 -19887332.25944 -15496601.64444  21366667.4024   21366667.9834
 -24596309.29244 -19165941.34244  20234365.0224   20234364.5094
  -8033694.92044  -6260004.49844  22886676.8724   22886678.0774
 -14519829.16044 -11314131.69844  22262616.4344   22262617.0564
  -6091819.58344  -4746867.59744  22775515.8734   22775516.8664
 -10332309.05444  -8051144.63244  22998920.4754   22998922.3774
 96  4 26  2 19 30.0000000  0  7G22G17G 6G16G23G26G20
  -2942446.59244  -2292815.95144  23976416.9394   23976417.2534
 -19926663.11944 -15527249.05944  21359183.1094   21359183.7164
 -24590735.40144 -19161598.06344  20235425.5824   20235425.1594
  -7943388.61544  -6189635.95544  22903861.8734   22903862.0984
 -14600982.79444 -11377368.27244  22247173.7094   22247174.1494
  -6149278.63844  -4791640.85744  22764582.4314   22764582.8474
 -10232362.96644  -7973264.60844  23017938.9934   23017941.0684
 96  4 26  2 20  0.0000000  0  7G22G17G 6G16G23G26G20
  -2998139.79344  -2336213.23044  23965818.8544   23965819.9774
 -19965788.50744 -15557736.36744  21351737.7584   21351738.2594
 -24584711.27144 -19156903.94444  20236571.9884   20236571.4234
  -7852854.77244  -6119090.11644  22921089.7304   22921090.3044
 -14681803.80144 -11440345.65444  22231793.3394   22231794.7584
  -6206364.81644  -4836123.57044  22753718.7234   22753718.1784
 -10132260.36244  -7895262.60944  23036988.3854   23036990.2634
 96  4 26  2 20 30.0000000  0  7G22G17G 6G16G23G26G20
  -3053354.01144  -2379237.28744  23955311.5874   23955313.4534
 -20004697.12944 -15588054.76544  21344333.5894   21344334.1964
 -24578229.81144 -19151853.46144  20237805.2974   20237804.8824
  -7762087.47944  -6048362.36044  22938362.1604   22938361.8654
 -14762279.38344 -11503053.86944  22216479.1664   22216480.5304
  -6263047.08544  -4880291.54344  22742932.7184   22742932.2274
 -10032008.96844  -7817144.68344  23056065.7004   23056067.2734
 96  4 26  2 21  0.0000000  0  7G22G17G 6G16G23G26G20
  -3108105.41644  -2421900.70844  23944892.5444   23944893.8724
 -20043411.13744 -15618221.52244  21336966.6234   21336967.0974
 -24571318.27444 -19146467.85844  20239120.5594   20239119.9694
  -7671089.67944  -5977454.98744  22955678.8444   22955679.4834
 -14842431.15844 -11565509.76944  22201226.6524   22201227.8054
  -6319336.81644  -4924153.64144  22732221.4694   22732221.1074
  -9931628.12144  -7738925.88244  23075167.4694   23075168.9144
 96  4 26  2 21 30.0000000  0  7G22G17G 6G16G23G26G20
  -3162387.04944  -2464198.08244  23934564.2334   23934563.5734
 -20081925.41144 -15648232.63444  21329637.6874   21329638.2514
 -24563984.57444 -19140753.29744  20240516.1864   20240515.7904
  -7579837.03644  -5906349.06144  22973043.6604   22973044.1764
 -14922261.12444 -11627714.90144  22186035.2004   22186036.9694
  -6375234.91744  -4967710.56744  22721584.2004   22721584.0784
  -9831114.98944  -7660603.98544  23094294.3994   23094296.6244
 96  4 26  2 22  0.0000000  0  7G22G17G 6G16G23G26G20
  -3216236.66544  -2506158.85544  23924316.8284   23924316.2294
 -20120261.68244 -15678105.04644  21322342.3364   21322342.8884
 -24556255.02744 -19134730.28144  20241987.0944   20241986.6454
  -7488348.94444  -5835059.63644  22990453.7354   22990454.3924
 -15001797.31244 -11689691.12144  22170900.4894   22170901.4124
  -6430755.34144  -5010973.19944  22711018.6924   22711019.1184
  -9730497.52944  -7582200.82444  23113441.7874   23113443.8654
 96  4 26  2 22 30.0000000  0  7G22G17G 6G16G23G26G20
  -3269661.87044  -2547788.88544  23914151.0524   23914151.1754
 -20158436.44244 -15707851.60444  21315077.9074   21315078.5314
 -24548123.02744 -19128393.66844  20243534.5384   20243534.0724
  -7396625.28344  -5763586.67544  23007908.1084   23007907.7524
 -15081053.87144 -11751449.45744  22155818.7074   22155818.8264
  -6485905.19844  -5053947.07344  22700523.9394   22700523.8634
  -9629772.67644  -7503713.95444  23132608.4114   23132610.1824
 96  4 26  2 23  0.0000000  0  7G22G17G 6G16G23G26G20
  -3322634.47244  -2589066.21744  23904070.0404   23904070.0584
 -20196437.33144 -15737462.67744  21307846.7584   21307847.2624
 -24539564.33344 -19121724.56144  20245163.1424   20245162.7584
  -7304653.05944  -5691920.02944  23025409.7874   23025410.0934
 -15160007.66444 -11812971.87344  22140793.9274   22140794.3864
  -6540687.47544  -5096634.53044  22690099.1444   22690100.2454
  -9528917.55844  -7425125.58944  23151801.2894   23151802.1894
 96  4 26  2 23 30.0000000  0  7G22G17G 6G16G23G26G20
  -3375133.98544  -2629974.91344  23894079.4684   23894081.8434
 -20234256.07844 -15766931.82444  21300650.0034   21300650.5114
 -24530545.09144 -19114696.58744  20246879.5354   20246879.0954
  -7212447.82044  -5620071.80544  23042955.4844   23042955.0354
 -15238628.01444 -11874234.45744  22125833.2154   22125834.1634
  -6595088.99044  -5139025.29244  22679747.2434   22679746.9964
  -9427929.30644  -7346433.46744  23171018.9844   23171020.5794
 96  4 26  2 24  0.0000000  0  7G22G17G 6G16G23G26G20
  -3427190.79544  -2670538.64444  23884173.5024   23884172.9934
 -20271915.42344 -15796276.76344  21293483.6554   21293484.2144
 -24521068.80544 -19107312.47644  20248682.7354   20248682.3404
  -7120052.26044  -5548075.28344  23060537.4504   23060538.0374
 -15316928.04144 -11935247.44044  22110932.9894   22110933.4524
  -6649120.62544  -5181127.84044  22669465.1914   22669464.6254
  -9326837.02244  -7267660.29244  23190255.6914   23190256.6944
 96  4 26  2 24 30.0000000  0  7G22G17G 6G16G23G26G20
  -3478816.96444  -2710766.80644  23874348.6184   23874348.3694
 -20309406.59744 -15825490.65944  21286349.4294   21286349.8694
 -24511118.97244 -19099559.36644  20250576.1524   20250575.7824
  -7027473.45444  -5475935.95144  23078155.3094   23078156.1514
 -15394899.30844 -11996004.24944  22096095.9324   22096096.4254
  -6702774.72444  -5222936.18944  22659255.1554   22659255.5014
  -9225627.75644  -7188795.96444  23209515.7594   23209516.9814
 96  4 26  2 25  0.0000000  0  8G22G17G 6G16G23G26G20G21
  -3530011.56544  -2750658.70144  23864608.1984   23864608.7384
 -20346733.54544 -15854576.58444  21279246.0834   21279246.5574
 -24500699.62544 -19091440.40344  20252558.7324   20252558.3584
  -6934726.18944  -5403665.36344  23095803.9354   23095804.8394
 -15472536.90544 -12056501.04744  22081321.4734   22081322.0934
  -6756042.94644  -5264443.85444  22649118.8204   22649118.7444
  -9124311.40244  -7109848.20044  23228794.7894   23228796.3884
        -0.48454                  25594731.8114
 96  4 26  2 25 30.0000000  0  8G22G17G 6G16G23G26G20G21
  -3580775.48844  -2790214.97444  23854948.2074   23854947.7374
 -20383867.95744 -15883512.48244  21272179.8594   21272180.2184
 -24489793.94044 -19082942.47744  20254634.1634   20254633.8524
  -6841796.25044  -5331252.45144  23113488.1894   23113488.8184
 -15549846.76644 -12116742.47444  22066610.0004   22066610.4714
  -6808900.07544  -5305631.19544  22639059.6574   22639059.1774
  -9022888.47644  -7030817.37544  23248094.7554   23248096.4724
   -100337.40644                  25575637.8564
 96  4 26  2 26  0.0000000  0  8G22G17G 6G16G23G26G20G21
  -3631108.60044  -2829435.58844  23845370.1604   23845368.9364
 -20420787.98244 -15912281.32844  21265154.1774   21265154.6174
 -24478412.75244 -19074074.03044  20256800.0384   20256799.6954
  -6748666.96544  -5258684.17644  23131209.8104   23131209.4564
 -15626839.20744 -12176736.55544  22051958.6994   22051959.3334
  -6861336.72944  -5346490.88744  22629081.7054   22629082.2054
  -8921346.69444  -6951693.93544  23267418.3574   23267418.8864
   -200605.31844                  25556557.4524
 96  4 26  2 26 30.0000000  0  7G22G17G 6G16G23G26G20
  -3680983.00544  -2868298.76044  23835879.1834   23835877.6804
 -20457482.81644 -15940874.70444  21258171.3704   21258171.8394
 -24466568.23344 -19064844.54544  20259053.9794   20259053.4844
  -6655329.07144  -5185953.35944  23148971.3654   23148971.7044
 -15703511.73944 -12236481.36244  22037368.0804   22037368.9934
  -6913347.69144  -5387018.87544  22619184.0504   22619183.9494
  -8819680.73844  -6872473.74544  23286764.5624   23286766.2234
 96  4 26  2 27  0.0000000  0  7G22G17G 6G16G23G26G20
  -3730391.25344  -2906798.70144  23826477.1484   23826477.2694
 -20493967.52244 -15969304.34244  21251228.4614   21251228.7714
 -24454285.12944 -19055273.30344  20261391.1024   20261390.6784
  -6561789.60244  -5113065.47944  23166771.5414   23166772.0854
 -15779866.13544 -12295978.27044  22022838.3934   22022839.1664
  -6964955.79944  -5427232.96544  22609363.6724   22609363.8824
  -8717918.89944  -6793178.84844  23306129.3454   23306130.8024
 96  4 26  2 27 30.0000000  0  7G22G17G 6G16G23G26G20
  -3779309.79944  -2944917.04844  23817168.3024   23817168.8484
 -20530223.67444 -15997555.87944  21244329.1194   21244329.2244
 -24441533.62544 -19045337.07644  20263817.9764   20263817.4454
  -6468022.24144  -5040000.00944  23184615.6594   23184616.0084
 -15855868.29844 -12355200.70744  22008376.1434   22008376.9384
  -7016135.86744  -5467113.51444  22599624.6354   22599624.5994
  -8616044.31944  -6713796.06744  23325515.5014   23325515.9884
 96  4 26  2 28  0.0000000  0  8G22G17G 6G16G23G26G20G21
  -3827721.29744  -2982640.27044  23807956.6184   23807955.1894
 -20566263.47444 -16025638.83744  21237470.9424   21237471.1324
 -24428303.50844 -19035027.90244  20266335.5034   20266335.0584
  -6374024.33944  -4966754.87844  23202502.4634   23202503.4304
 -15931487.01644 -12414124.36344  21993986.0424   21993986.6394
  -7066867.31544  -5506644.49444  22589970.3454   22589969.7874
  -8514046.85944  -6634317.57744  23344925.0274   23344927.8754
        -0.42454                  25480375.9784
 96  4 26  2 28 30.0000000  0  8G22G17G 6G16G23G26G20G21
  -3875647.32444  -3019985.24144  23798836.1844   23798834.2714
 -20602113.12944 -16053573.62744  21230649.1134   21230649.2964
 -24414606.24244 -19024354.71744  20268942.0084   20268941.4004
  -6279819.56444  -4893348.56544  23220428.4774   23220427.3214
 -16006734.77044 -12472758.95344  21979667.1544   21979667.4724
  -7117170.27344  -5545841.57844  22580398.5074   22580397.5744
  -8411958.56644  -6554768.28944  23364351.7274   23364352.3804
    -99893.26844    -77838.44244  25461370.2804   25461373.8174
 96  4 26  2 29  0.0000000  0  8G22G17G 6G16G23G26G20G21
  -3923107.51944  -3056967.19644  23789804.9924   23789806.0294
 -20637784.15944 -16081369.23144  21223861.0084   21223861.3994
 -24400425.20044 -19013304.56244  20271640.6354   20271640.1834
  -6185415.38144  -4819786.85944  23238393.0924   23238393.7134
 -16081617.82644 -12531109.36544  21965417.4104   21965418.0034
  -7167052.08344  -5584710.50344  22570905.7834   22570905.8894
  -8309791.06144  -6475157.28144  23383794.5184   23383795.8204
   -199700.21844   -155609.89644  25442376.6954   25442379.7804
 96  4 26  2 29 30.0000000  0  8G22G17G 6G16G23G26G20G21
  -3970103.71844  -3093587.63144  23780861.3254   23780860.6624
 -20673268.37544 -16109019.26644  21217108.7034   21217109.0694
 -24385741.30544 -19001862.57544  20274434.9294   20274434.3654
  -6090817.05444  -4746073.89844  23256394.7954   23256395.5454
 -16156158.05944 -12589192.63744  21951232.3704   21951233.3884
  -7216500.54644  -5623241.74744  22561495.8754   22561495.3774
  -8207541.86744  -6395482.62544  23403250.9854   23403252.3054
   -299408.51244   -233304.49544  25423402.6754   25423405.6674
 96  4 26  2 30  0.0000000  0  8G22G17G 6G16G23G26G20G21
  -4016629.66144  -3129841.60544  23772006.5144   23772007.5974
 -20708540.60444 -16136504.11244  21210396.4934   21210396.8914
 -24370555.55644 -18990029.53844  20277324.5974   20277324.1044
  -5996014.42544  -4672201.71644  23274436.1514   23274435.1224
 -16230352.54744 -12647006.49644  21937113.3144   21937114.4864
  -7265518.60644  -5661437.61744  22552168.4954   22552168.1584
  -8105186.39644  -6315725.14944  23422728.6134   23422730.1174
   -398999.12644   -310907.38844  25404450.1604   25404448.8044
 96  4 26  2 30 30.0000000  0  8G22G17G 6G16G23G26G20G21
  -4062691.71644  -3165734.08744  23763240.7604   23763242.5624
 -20743600.43244 -16163823.45244  21203724.7194   21203725.1684
 -24354889.17344 -18977821.97844  20280305.8334   20280305.3344
  -5901022.00344  -4598181.65144  23292511.9144   23292511.8294
 -16304211.63344 -12704559.00844  21923058.0844   21923059.1994
  -7314130.96144  -5699317.34744  22542917.4354   22542917.3844
  -8002731.67544  -6235890.33744  23442224.9484   23442226.5034
   -498492.09644   -388434.18544  25385517.1724   25385515.3744
 96  4 26  2 31  0.0000000  0  8G22G17G 6G16G23G26G20G21
  -4108314.48644  -3201284.30644  23754558.6684   23754559.4754
 -20778493.49044 -16191012.84644  21197084.9174   21197085.2544
 -24338791.03544 -18965277.99244  20283369.2534   20283368.7624
  -5805885.12044  -4524049.02544  23310615.6304   23310615.1424
 -16377774.00544 -12761880.31044  21909060.0214   21909061.4744
  -7362367.60344  -5736904.31644  22533738.4504   22533738.7104
  -7900220.54244  -6156011.56444  23461732.5014   23461733.1364
   -597949.91544   -465933.57444  25366590.7804
 96  4 26  2 31 30.0000000  0  8G22G17G 6G16G23G26G20G21
  -4153448.62344  -3236453.75744  23745970.7504   23745971.1614
 -20813178.69244 -16218040.26944  21190484.4264   21190484.7614
 -24322238.72944 -18952380.10544  20286518.9264   20286518.5674
  -5710564.88944  -4449773.52044  23328754.3644   23328754.3964
 -16450990.59244 -12818932.17144  21895127.7734   21895128.6654
  -7410175.51144  -5774157.20744  22524641.1524   22524641.3674
  -7797604.86944  -6076051.33144  23481259.2224   23481260.7714
   -697361.29944   -543396.87744  25347672.3214   25347671.1214
 96  4 26  2 32  0.0000000  0  8G22G17G 6G16G23G26G20G21
  -4198065.83644  -3271220.41444  23737479.5524   23737481.2404
 -20847637.22944 -16244891.07444  21183927.5084   21183927.6214
 -24305225.19644 -18939122.82144  20289756.6914   20289756.2114
  -5615038.04244  -4375337.03644  23346931.8584   23346933.4504
 -16523802.08844 -12875668.37644  21881272.3204   21881272.7984
  -7457512.37844  -5811043.04644  22515632.5834   22515632.2164
  -7694857.25344  -5995988.29644  23500811.9334   23500814.0014
   -796703.35944                  25328766.5894
 96  4 26  2 32 30.0000000  0  8G22G17G 6G16G23G26G20G21
  -4242203.04344  -3305613.03144  23729081.5074   23729082.4434
 -20881928.26744 -16271611.35544  21177401.9504   21177402.2934
 -24287792.17844 -18925538.65244  20293074.1564   20293073.7734
  -5519359.37244  -4300782.22344  23365139.3834   23365139.9684
 -16596258.07444 -12932127.56444  21867484.0764   21867484.9284
  -7504399.33444  -5847578.31744  22506710.9704   22506710.6904
  -7592042.99644  -5915873.32544  23520376.8324   23520378.8274
   -896017.40344                  25309862.1964
 96  4 26  2 33  0.0000000  0  8G22G17G 6G16G23G26G20G21
  -4285808.18144  -3339591.04444  23720783.4234   23720785.0984
 -20915997.82644 -16298159.05844  21170918.8784   21170919.3424
 -24269868.30844 -18911572.01244  20296484.8454   20296484.3354
  -5423471.43044  -4226064.35144  23383385.6834   23383387.8324
 -16668307.66544 -12988270.07644  21853773.6524   21853774.6114
  -7550774.26944  -5883714.59944  22497885.9844   22497885.5814
  -7489115.00944  -5835669.72744  23539963.5084   23539963.9054
   -995227.12844                  25290984.0204
 96  4 26  2 33 30.0000000  0  8G22G17G 6G16G23G26G20G21
  -4328932.98044  -3373194.75244  23712577.3274   23712577.8374
 -20949879.11544 -16324560.05844  21164471.4164   21164471.8734
 -24251475.85544 -18897240.24344  20299984.9204   20299984.3964
  -5327410.49644  -4151211.67444  23401665.4944   23401665.8394
 -16739979.90644 -13044118.54544  21840135.1954   21840135.6554
  -7596675.48644  -5919481.75744  22489150.9404   22489151.1184
  -7386106.10344  -5755403.08544  23559564.5484   23559566.2774
  -1094334.11044   -852725.64344  25272129.4194
 96  4 26  2 34  0.0000000  0  8G22G17G 6G16G23G26G20G21
  -4371622.91644  -3406459.61944  23704454.2424   23704454.3504
 -20983620.15244 -16350851.76844  21158050.6014   21158050.9934
 -24232657.07344 -18882576.26544  20303565.8984   20303565.3454
  -5231236.27644  -4076270.74544  23419967.6754   23419966.8424
 -16811330.72944 -13099716.56744  21826557.7754   21826558.1184
  -7642169.61144  -5954931.69144  22480493.6154   22480493.3184
  -7283085.71644  -5675127.48944  23579169.1374   23579171.3124
  -1193371.84644   -929897.71644  25253285.2124
 96  4 26  2 34 30.0000000  0  8G22G17G 6G16G23G26G20G21
  -4413863.56244  -3439374.42044  23696416.7254   23696415.9694
 -21017209.53044 -16377025.30344  21151658.6904   21151659.1434
 -24213377.71544 -18867553.40144  20307234.6784   20307234.2234
  -5134932.02544  -4001228.49544  23438294.0804   23438294.8954
 -16882370.93444 -13155072.54944  21813038.8654   21813039.3074
  -7687262.90444  -5990069.28944  22471913.0844   22471912.6814
  -7180051.54844  -5594841.14444  23598774.9634   23598776.7054
  -1292335.61844  -1007012.19344  25234455.2124   25234456.6704
 96  4 26  2 35  0.0000000  0  8G22G17G 6G16G23G26G20G21
  -4455600.37044  -3471896.64944  23688473.9014   23688471.5384
 -21050578.60044 -16403027.17044  21145308.8344   21145309.3694
 -24193567.80544 -18852117.11744  20311004.4464   20311003.8334
  -5038433.03544  -3926034.48044  23456657.0264   23456656.0664
 -16953036.22944 -13210136.39144  21799591.8644   21799592.3154
  -7731903.52844  -6024854.17344  22463418.2204   22463417.8314
  -7076953.91044  -5514505.36044  23618394.1754   23618394.9914
  -1391179.06244  -1084032.95044  25215645.3484   25215645.5594
 96  4 26  2 35 30.0000000  0  8G22G17G 6G16G23G26G20G21
  -4496840.79944  -3504032.07844  23680625.8644   23680624.1154
 -21083746.17744 -16428872.03144  21138997.3854   21138997.7404
 -24173261.06944 -18836293.69444  20314868.4984   20314867.9944
  -4941766.49344  -3850709.90044  23475051.3934   23475052.3974
 -17023342.70844 -13264920.63444  21786213.0144   21786213.2374
  -7776100.68544  -6059293.48744  22455007.4604   22455007.1574
  -6973804.28544  -5434129.04744  23638023.4004   23638024.7884
  -1489931.05544  -1160982.42744  25196852.8584   25196854.2314
 96  4 26  2 36  0.0000000  0  8G22G17G 6G16G23G26G20G21
  -4537580.73744  -3535777.44844  23672873.5744   23672875.2664
 -21116729.55144 -16454573.35744  21132721.0854   21132721.3004
 -24152477.51944 -18820098.72944  20318823.6514   20318823.3164
  -4844949.38644  -3775268.02744  23493475.4974   23493476.0624
 -17093304.89244 -13319436.60344  21772899.9424   21772900.0844
  -7819863.37044  -6093394.25044  22446679.8384   22446679.5144
  -6870617.02544  -5353723.43144  23657659.0424   23657661.6944
  -1588622.79244  -1237884.92944  25178072.9164   25178076.3924
 96  4 26  2 36 30.0000000  0  8G22G17G 6G16G23G26G20G21
  -4577822.63844  -3567134.76244  23665215.7424   23665217.0454
 -21149516.60644 -16480121.70744  21126482.0074   21126481.9284
 -24131211.29944 -18803527.65944  20322870.2884   20322869.8784
  -4747977.50244  -3699705.52344  23511928.3894   23511928.1664
 -17162907.95944 -13373672.73844  21759654.5624   21759655.1704
  -7863160.16144  -6127131.98844  22438440.3744   22438440.7054
  -6767375.38644  -5273275.42944  23677305.6504   23677306.5154
  -1687246.27744  -1314734.29544  25159305.5374   25159303.4614
 96  4 26  2 37  0.0000000  0  8G22G17G 6G16G23G26G20G21
  -4617539.06144  -3598082.58644  23657658.1024   23657659.1924
 -21182083.52644 -16505498.52344  21120284.6684   21120284.7584
 -24109462.38744 -18786580.47144  20327008.9714   20327008.6324
  -4650848.36644  -3624020.47644  23530410.8334   23530410.8854
 -17232115.31244 -13427600.52144  21746484.5724   21746485.1404
  -7905953.45744  -6160477.39244  22430297.4704   22430297.0904
  -6664058.48544  -5192768.76644  23696966.8454   23696968.1804
  -1785765.44144  -1391502.31444  25140557.1244   25140561.3454
 96  4 26  2 37 30.0000000  0  8G22G17G 6G16G23G26G20G21
  -4656744.36344  -3628632.17344  23650197.3284   23650197.9804
 -21214453.52044 -16530721.89144  21114124.9934   21114125.1654
 -24087257.36344 -18769277.87444  20331234.7564   20331234.3334
  -4553590.20344  -3548234.92344  23548919.1764   23548919.1824
 -17300938.03144 -13481228.59444  21733387.4714   21733388.2344
  -7948268.70744  -6193450.28944  22422245.1314   22422245.2524
  -6560680.98944  -5112214.89944  23716638.5774   23716640.0654
  -1884174.91044  -1468184.94744  25121827.8884
 96  4 26  2 38  0.0000000  0  7G22G17G 6G16G23G26G20
  -4695480.51844  -3658816.17544  23642826.4764   23642826.1364
 -21246652.91144 -16555812.32044  21107997.4184   21107997.4864
 -24064606.40844 -18751627.79744  20335544.9664   20335544.5744
  -4456222.93544  -3472364.31944  23567448.5894   23567448.7064
 -17369408.83744 -13534582.44544  21720357.9974   21720359.2734
  -7990144.94044  -6226081.09944  22414276.2974   22414276.0864
  -6457294.32644  -5031653.91744  23736311.7614   23736314.1574
 96  4 26  2 38 30.0000000  0  7G22G17G 6G16G23G26G20
  -4733752.28144  -3688638.33744  23635542.6534   23635543.7564
 -21278663.48144 -16580755.61544  21101905.9824   21101906.0054
 -24041495.40444 -18733619.23444  20339942.7794   20339942.3394
  -4358732.09444  -3396397.41444  23585999.2984   23585999.7624
 -17437524.06644 -13587659.22744  21707396.3824   21707397.6764
  -8031573.60544  -6258363.15944  22406392.2004   22406392.6224
  -6353898.84944  -4951086.03544  23755987.5504   23755989.8034
 96  4 26  2 39  0.0000000  0  7G22G17G 6G16G23G26G20
  -4771541.39244  -3718084.41244  23628351.5554   23628352.1654
 -21310490.72244 -16605556.05844  21095849.4604   21095849.7524
 -24017917.25044 -18715246.65444  20344429.5084   20344429.1694
  -4261096.97044  -3320318.12744  23604579.1544   23604579.2794
 -17505282.03544 -13640457.61844  21694502.2534   21694503.3324
  -8072552.20044  -6290294.50544  22398595.1574   22398595.1884
  -6250486.92844  -4870505.36544  23775666.5344   23775668.3324
 96  4 26  2 39 30.0000000  0  7G22G17G 6G16G23G26G20
  -4808811.92944  -3747126.39444  23621258.8874   23621261.1134
 -21342093.54444 -16630181.63144  21089835.6524   21089835.6564
 -23993815.97044 -18696466.45244  20349015.8294   20349015.5004
  -4163267.58544  -3244087.44344  23623195.3984   23623195.3714
 -17572644.66944 -13692947.96044  21681683.5594   21681684.6814
  -8113045.83944  -6321847.96844  22390888.7534   22390888.7264
  -6147010.47044  -4789874.37344  23795357.1324   23795358.1574
 96  4 26  2 40  0.0000000  0  8G22G17G 6G16G23G26G20G21
  -4845553.01044  -3775755.82644  23614267.5624   23614269.6714
 -21373469.36344 -16654630.32044  21083865.0424   21083865.0554
 -23969182.92144 -18677271.88244  20353703.4644   20353702.9864
  -4065236.93144  -3167699.92944  23641849.9214   23641850.2484
 -17639611.32744 -13745129.75444  21668940.4624   21668941.2784
  -8153030.19844  -6353004.57944  22383279.7274   22383279.3444
  -6043458.14544  -4709184.28744  23815062.3044   23815063.4534
        -1.11954        -0.82954  25028506.5194
 96  4 26  2 40 30.0000000  0  8G22G17G 6G16G23G26G20G21
  -4881799.17044  -3803999.56844  23607370.2194   23607372.6044
 -21404667.78344 -16678940.77144  21077928.2784   21077928.3694
 -23944079.39644 -18657710.71244  20358480.5814   20358480.1574
  -3967058.42144  -3091197.20144  23660532.1584   23660531.6214
 -17706212.16044 -13797026.48844  21656266.8664   21656267.3914
  -8192531.78244  -6383785.02344  22375763.4594   22375763.0354
  -5939864.92044  -4628462.32244  23834775.9424   23834776.4094
    -97715.93944    -76142.18844  25009912.9564   25009908.4104
 96  4 26  2 41  0.0000000  0  8G22G17G 6G16G23G26G20G21
  -4917553.91944  -3831860.41144  23600567.0994   23600566.9894
 -21435699.06544 -16703120.98544  21072023.0524   21072023.1604
 -23918512.42244 -18637788.40944  20363345.8244   20363345.4574
  -3868752.28944  -3014595.02244  23679240.1304   23679240.1314
 -17772446.40944 -13848637.57144  21643662.8344   21643663.2964
  -8231557.60844  -6414194.73144  22368336.6254   22368336.2264
  -5836238.18344  -4547714.21144  23854495.9504   23854495.3354
   -195344.35344   -152216.20544  24991335.9294   24991334.1244
 96  4 26  2 41 30.0000000  0  8G22G17G 6G16G23G26G20G21
  -4952824.98444  -3859344.36344  23593854.0214   23593855.8754
 -21466548.44444 -16727159.45944  21066152.6824   21066152.9784
 -23892472.17044 -18617497.32444  20368301.1534   20368300.9404
  -3770327.16344  -2937900.12744  23697969.3694   23697970.6684
 -17838309.75144 -13899959.63844  21631129.9034   21631130.2444
  -8270110.64944  -6444236.04144  22361000.4994   22361000.2594
  -5732592.97644  -4466951.71944  23874219.1014   23874220.1214
   -292883.69844   -228220.77844  24972774.8934   24972775.2304
 96  4 26  2 42  0.0000000  0  8G22G17G 6G16G23G26G20G21
  -4987629.17944  -3886464.54044  23587231.0964   23587232.1954
 -21497236.65244 -16751072.34444  21060312.7244   21060313.0644
 -23865982.86144 -18596856.32344  20373341.8284   20373341.7064
  -3671803.67644  -2861128.58744  23716717.5334   23716718.2744
 -17903823.78244 -13951009.51244  21618662.9114   21618663.3534
  -8308202.91644  -6473918.30244  22353751.4914   22353751.7844
  -5628960.38444  -4386199.10444  23893939.0764   23893940.8014
   -390341.98944   -304162.21744  24954227.3754   24954227.1564
 96  4 26  2 42 30.0000000  0  8G22G17G 6G16G23G26G20G21
  -5021942.28744  -3913202.02844  23580701.4904   23580700.4334
 -21527723.72644 -16774828.50244  21054511.2494   21054511.5924
 -23839013.84744 -18575841.52544  20378473.7434   20378473.1684
  -3573150.93744  -2784256.32244  23735490.6544   23735490.3404
 -17968947.93044 -14001755.58444  21606269.9504   21606270.2704
  -8345801.39244  -6503215.79544  22346597.1264   22346596.6984
  -5525314.77744  -4305436.29744  23913662.3664   23913664.6554
   -487676.16644   -380006.91544  24935703.7874   24935706.9424
 96  4 26  2 43  0.0000000  0  8G22G17G 6G16G23G26G20G21
  -5055775.51544  -3939565.58544  23574263.2324   23574265.5334
 -21558018.49744 -16798434.81644  21048746.2914   21048746.6754
 -23811563.62344 -18554451.75144  20383697.4194   20383697.0784
  -3474382.41944  -2707293.83844  23754285.7234   23754286.6354
 -18033697.94344 -14052210.12444  21593948.2624   21593948.7214
  -8382924.97644  -6532143.22844  22339532.5134   22339532.0094
  -5421666.92244  -4224671.75844  23933385.6634   23933387.3194
   -584897.09644   -455763.39644  24917203.1084   24917206.4424
 96  4 26  2 43 30.0000000  0  8G22G17G 6G16G23G26G20G21
  -5089115.28944  -3965544.62544  23567919.4444   23567918.0994
 -21588129.20744 -16821897.70444  21043016.4824   21043016.9174
 -23783637.93644 -18532691.49444  20389011.4704   20389010.9854
  -3375500.03544  -2630242.67844  23773102.6494   23773103.1254
 -18098073.76344 -14102373.07944  21581698.0154   21581698.3864
  -8419568.48644  -6560696.59044  22332559.4044   22332559.1894
  -5318029.71244  -4143915.54144  23953107.1324   23953110.5474
   -682001.41044   -531428.95144  24898722.6934   24898727.9504
 96  4 26  2 44  0.0000000  0  8G22G17G 6G16G23G26G20G21
  -5121942.41344  -3991124.21044  23561673.2724   23561672.8584
 -21618047.56544 -16845210.71244  21037322.9834   21037323.2444
 -23755229.41744 -18510554.99544  20394417.5234   20394417.1134
  -3276490.39144  -2553092.30644  23791943.8694   23791944.2694
 -18162060.71644 -14152233.02844  21569521.8794   21569522.2414
  -8455707.07244  -6588856.50044  22325682.0984   22325682.0654
  -5214384.49344  -4063153.05544  23972829.7144   23972832.9194
   -778993.39744   -607007.02044  24880265.0834   24880272.3254
 96  4 26  2 44 30.0000000  0  8G22G17G 6G16G23G26G20G21
  -5154253.12644  -4016301.38944  23555524.8854   23555523.9944
 -21647759.14044 -16868362.58844  21031669.0944   21031669.3044
 -23726327.83844 -18488034.30044  20399917.2484   20399916.8794
  -3177353.74944  -2475842.96944  23810808.5334   23810809.2924
 -18225654.91144 -14201786.92444  21557420.0224   21557420.6084
  -8491337.20844  -6616620.23044  22318902.5534   22318901.8984
  -5110721.58244  -3982376.76744  23992557.2704   23992559.7724
   -875875.59744                  24861827.2974
 96  4 26  2 45  0.0000000  0  8G22G17G 6G16G23G26G20G21
  -5186030.01844  -4041062.61644  23549478.1384   23549477.5644
 -21677266.92044 -16891355.66144  21026053.7594   21026054.3404
 -23696926.40944 -18465124.11144  20405512.5614   20405512.1104
  -3078087.42244  -2398492.59544  23829698.3214   23829699.7304
 -18288869.08844 -14251044.70444  21545390.7254   21545391.4674
  -8526462.05944  -6643990.21944  22312218.4824   22312218.1154
  -5007043.56344  -3901588.71344  24012285.8854   24012286.6364
   -972659.87144                  24843407.7304
 96  4 26  2 45 30.0000000  0  8G22G17G 6G16G23G26G20G21
  -5217296.25044  -4065425.92444  23543528.3954   23543529.0784
 -21706589.08644 -16914204.10344  21020474.0554   21020474.5764
 -23667047.86044 -18441842.13344  20411197.8834   20411197.7934
  -2978708.34844  -2321054.37244  23848609.0874   23848610.5764
 -18351727.37844 -14300025.17144  21533429.0634   21533429.8774
  -8561094.58444  -6670976.58044  22305628.0024   22305627.4674
  -4903378.29844  -3820810.59244  24032013.1404   24032014.1324
  -1069372.00444   -833275.66544  24825006.7874   24825017.7084
 96  4 26  2 46  0.0000000  0  8G22G17G 6G16G23G26G20G21
  -5248050.31344  -4089390.13744  23537675.8064   23537676.2324
 -21735705.94344 -16936892.56144  21014933.6124   21014933.8174
 -23636677.37244 -18418176.83144  20416977.3544   20416977.1044
  -2879200.73344  -2243515.99144  23867545.0934   23867545.4744
 -18414224.45344 -14348724.17244  21521536.1864   21521537.0134
  -8595212.47544  -6697561.94144  22299135.5344   22299135.0674
  -4799703.09544  -3740024.73844  24051741.8584   24051743.6144
  -1165991.36444   -908563.33644  24806622.5774   24806625.7374
 96  4 26  2 46 30.0000000  0  8G22G17G 6G16G23G26G20G21
  -5278279.12344  -4112945.06444  23531923.1504   23531925.5384
 -21764608.69644 -16959414.18244  21009433.5004   21009433.8134
 -23605803.44244 -18394119.23744  20422852.4414   20422852.3034
  -2779563.53344  -2165876.62444  23886505.4494   23886506.6124
 -18476346.35944 -14397130.83444  21509714.7674   21509715.3064
  -8628806.04144  -6723738.73144  22292742.7624   22292742.3904
  -4696023.46244  -3659235.44444  24071471.7834   24071473.3644
  -1262480.97744   -983749.96944  24788262.7594   24788262.1954
 96  4 26  2 47  0.0000000  0  8G22G17G 6G16G23G26G20G21
  -5307998.24944  -4136102.84344  23526267.2914   23526269.2194
 -21793324.73744 -16981790.31444  21003969.0254   21003969.3804
 -23574443.69444 -18369683.08544  20428819.9964   20428819.7494
  -2679813.67244  -2088149.46844  23905487.8324   23905488.3234
 -18538091.10044 -14445243.59944  21497965.4004   21497965.8654
  -8661883.65344  -6749513.47144  22286448.5014   22286447.9554
  -4592369.93744  -3578466.47644  24091195.7134   24091198.4324
  -1358844.65344  -1058838.47144  24769925.2274   24769926.1704
 96  4 26  2 47 30.0000000  0  7G17G 6G16G23G26G20G21
 -21821852.53544 -17004019.76144  20998540.3544   20998540.6174
 -23542606.95444 -18344875.24444  20434878.4594   20434878.2284
  -2579961.00644  -2010342.19144  23924488.4734   23924489.0884
 -18599446.78644 -14493053.20844  21486289.4384   21486289.8254
  -8694449.35744  -6774889.32344  22280251.2714   22280250.5694
  -4488747.68844  -3497721.88644  24110914.5824   24110914.8154
  -1455062.76644  -1133813.59844  24751615.2314   24751608.7634
 96  4 26  2 48  0.0000000  0  8G17G28G 6G16G23G26G20G21
 -21850191.62144 -17026102.16044  20993147.7764   20993147.9414
        -0.06314        -0.80314  25355671.003    25355672.356
 -23510299.04644 -18319700.26644  20441026.4824   20441026.0594
  -2480016.25244  -1932463.20244  23943507.0614   23943508.8474
 -18660404.99744 -14540553.09144  21474689.8804   21474690.4214
  -8726512.85044  -6799873.84644  22274149.8094   22274149.2724
  -4385164.35344  -3417007.63244  24130625.6504   24130628.8264
  -1551131.18544  -1208672.05944  24733334.6194   24733331.7854
 96  4 26  2 48 30.0000000  0  8G23G26G28G17G 6G16G20G21
 -18720932.81544 -14587717.60844  21463171.9144   21463172.3944
  -8758073.82844  -6824466.79444  22268144.0154   22268143.7934
   -104541.127 4    -81461.288 4  25335777.748    25335776.740
 -21878328.96944 -17048027.35944  20987793.2014   20987793.5344
 -23477491.32844 -18294135.82544  20447269.5024   20447269.0544
  -2379976.07144  -1854509.80444  23962544.4834   23962545.3494
  -4281598.63944  -3336307.09444  24150333.3754   24150334.1154
  -1647037.49744  -1283404.18444  24715083.3204
 96  4 26  2 49  0.0000000  0  8G23G26G28G17G 6G16G20G21
 -18781046.05844 -14634559.07544  21451732.6624   21451733.1824
  -8789160.75744  -6848690.35344  22262228.0774   22262227.7064
   -209122.904 4   -162953.620 4  25315875.675    25315877.268
 -21906275.67044 -17069804.00444  20982475.1084   20982475.4314
 -23444206.40844 -18268199.53944  20453603.1714   20453602.9204
  -2279856.79344  -1776494.80244  23981596.5234   23981596.7224
  -4178053.33744  -3255622.45644  24170038.5124   24170040.8824
  -1742813.56344  -1358034.82844  24696856.6244   24696857.4264
 96  4 26  2 49 30.0000000  0  8G23G26G28G17G 6G16G20G21
 -18840752.35744 -14681083.44344  21440370.7194   21440371.1394
  -8819764.54144  -6872537.42844  22256404.3704   22256404.1484
   -313736.782 4   -244470.849 4  25295969.794    25295969.578
 -21934018.43644 -17091421.73944  20977195.7824   20977196.1964
 -23410436.62544 -18241885.43644  20460029.4794   20460029.0424
  -2179649.62944  -1698411.33944  24000665.0874   24000665.2364
  -4074513.26244  -3174941.87144  24189740.5354   24189743.5224
  -1838459.56844  -1432564.11144  24678656.1834   24678658.3134
 96  4 26  2 50  0.0000000  0  8G23G26G28G17G 6G16G20G21
 -18900066.91944 -14727302.56344  21429083.5084   21429083.9464
  -8849878.42244  -6896002.76944  22250674.3874   22250674.3874
   -418389.873 4   -326018.651 4  25276056.254    25276054.194
 -21961579.13244 -17112897.60344  20971951.1844   20971951.5914
 -23376184.00044 -18215195.09544  20466547.3454   20466546.9784
  -2079370.63144  -1620271.85344  24019748.2774   24019750.3534
  -3970985.92444  -3094271.23844  24209440.2244   24209443.6584
  -1933989.05744  -1507002.60644  24660478.3234   24660479.1524
 96  4 26  2 50 30.0000000  0  8G23G26G28G17G 6G16G20G21
 -18959013.59544 -14773235.02244  21417866.3494   21417866.7984
  -8879504.41944  -6919087.93944  22245036.4844   22245036.2854
   -523094.582 4   -407606.787 4  25256131.456    25256130.512
 -21988984.10644 -17134252.12244  20966736.1594   20966736.5204
 -23341458.87644 -18188136.57544  20473155.7044   20473155.4364
  -1979028.96744  -1542083.57844  24038842.5384   24038842.1714
  -3867480.91344  -3013617.99244  24229137.5224   24229139.3014
  -2029409.44744  -1581356.10044  24642320.9484   24642322.9804
 96  4 26  2 51  0.0000000  0  8G23G26G28G17G 6G16G20G21
 -19017584.34744 -14818874.55044  21406720.7294   21406720.9474
  -8908608.27944  -6941766.25944  22239498.1474   22239496.8744
   -627837.303 4   -489224.556 4  25236199.481    25236199.715
 -22016220.66844 -17155475.41144  20961553.3594   20961553.7294
 -23306262.45644 -18160710.81144  20479853.0374   20479852.8354
  -1878601.70444  -1463828.57144  24057953.4664   24057954.2884
  -3763997.71344  -2932981.70644  24248829.6314   24248831.5604
  -2124704.32844  -1655611.78544  24624186.2684   24624185.0324
 96  4 26  2 51 30.0000000  0  8G23G26G28G17G 6G16G20G21
 -19075754.45644 -14864201.89144  21395651.3754   21395651.7964
  -8937135.33344  -6963995.12444  22234069.6474   22234069.0114
   -732580.509 4   -570842.620 4  25216266.149    25216269.911
 -22043267.78044 -17176551.08044  20956406.4284   20956406.7274
 -23270555.71544 -18132887.38744  20486648.0144   20486647.8494
  -1778051.53844  -1385477.78644  24077086.9604   24077088.4764
  -3660511.47044  -2852343.10444  24268522.2094   24268525.0084
  -2219830.52344  -1729736.01044  24606082.9714   24606085.9384
 96  4 26  2 52  0.0000000  0  8G23G26G28G17G 6G16G20G21
 -19133543.63344 -14909232.39644  21384654.2374   21384654.7634
  -8965114.90944  -6985797.37244  22228744.9154   22228744.6874
   -837349.798 4   -652480.886 4  25196329.363    25196339.388
 -22070147.61944 -17197496.40544  20951291.2984   20951291.5744
 -23234363.44244 -18104685.63444  20493535.1034   20493534.6924
  -1677418.21644  -1307062.22244  24096237.0354   24096239.1424
  -3557060.29344  -2771731.78944  24288208.4184   24288210.5204
  -2314809.65644  -1803745.62744  24588007.4124   24588013.1924
 96  4 26  2 52 30.0000000  0  8G23G26G28G17G 6G16G20G21
 -19190967.17444 -14953977.99544  21373726.7904   21373727.4844
  -8992576.26544  -7007195.81544  22223519.5894   22223519.5884
   -942165.648 4   -734155.445 4  25176383.503    25176388.916
 -22096863.37644 -17218313.87844  20946207.3544   20946207.7784
 -23197711.48344 -18076125.68444  20500509.6224   20500509.3994
  -1576724.46744  -1228599.57244  24115398.2554   24115397.7624
  -3453677.98544  -2691174.16544  24307880.8644   24307879.6294
  -2409672.24344  -1877664.43244  24569955.5404   24569958.2494
 96  4 26  2 53  0.0000000  0  8G23G26G28G17G 6G16G20G21
 -19247998.78444 -14998418.19044  21362874.2164   21362874.7574
  -9019504.19144  -7028178.61744  22218395.5494   22218394.6594
  -1047005.315 4   -815848.637 4  25156432.091    25156435.601
 -22123376.12544 -17238973.15944  20941162.2574   20941162.5904
 -23160586.63644 -18047197.24944  20507574.4254   20507574.2224
  -1475956.77244  -1150079.30544  24134573.1604   24134576.3594
  -3350362.80044  -2610668.80344  24327542.2264   24327544.0854
  -2504401.92644  -1951479.68644  24551927.9594   24551934.9554
 96  4 26  2 53 30.0000000  0  8G23G26G28G17G 6G16G20G21
 -19304636.45544 -15042551.42644  21352096.4734   21352096.8994
  -9045905.08244  -7048750.69344  22213371.2054   22213371.0754
  -1151859.574 4   -897553.305 4  25136479.083    25136480.368
 -22149679.41844 -17259469.22444  20936157.1124   20936157.3114
 -23122976.73244 -18017890.84744  20514731.1944   20514731.0434
  -1375115.26344  -1071501.54644  24153763.0144   24153766.1134
  -3247109.64044  -2530211.78544  24347190.7484   24347191.1404
  -2598990.60744  -2025185.09644  24533929.5464   24533937.2454
 96  4 26  2 54  0.0000000  0  8G23G26G28G17G 6G16G20G21
 -19360880.75944 -15086378.14044  21341393.5434   21341393.9524
  -9071795.21544  -7068924.77844  22208444.9294   22208443.7794
  -1256736.445 4   -979275.464 4  25116522.477    25116528.376
 -22175777.55344 -17279805.43844  20931190.6334   20931191.0004
 -23084896.00344 -17988217.56744  20521977.9094   20521977.8404
  -1274221.80644   -992883.28344  24172962.6234   24172965.1624
  -3143926.96744  -2449809.73044  24366825.3264   24366827.3704
  -2693449.54244  -2098789.37844  24515956.0124   24515959.6844
 96  4 26  2 54 30.0000000  0  8G23G26G28G17G 6G16G20G21
 -19416725.93544 -15129893.84444  21330766.5844   21330766.9334
  -9097167.78144  -7088695.59344  22203616.0964   22203615.6824
  -1361627.100 4  -1061008.295 4  25096561.770    25096570.171
 -22201669.82844 -17299981.23644  20926263.5054   20926263.9344
 -23046344.30044 -17958177.29344  20529314.0224   20529313.7434
  -1173252.98544   -914206.27544  24192175.8894   24192176.4894
  -3040797.16544  -2369448.83344  24386451.0694   24386454.0614
  -2787764.74744  -2172281.66944  24498009.2084   24498010.3364
 96  4 26  2 55  0.0000000  0  8G23G26G28G17G 6G16G20G21
 -19472179.72044 -15173104.57244  21320213.8364   21320214.3834
  -9122021.97244  -7108062.48644  22198886.7564   22198886.1344
  -1466528.370 4  -1142749.515 4  25076597.506    25076599.766
 -22227371.69644 -17320008.66244  20921372.8024   20921373.1854
 -23007313.97444 -17927764.07144  20536741.5464   20536741.1994
  -1072200.28444   -835463.89644  24211406.0034   24211407.8174
  -2937704.35844  -2289116.76844  24406068.2544   24406070.0924
  -2881918.63644  -2245648.30744  24480093.1714   24480093.3194
 96  4 26  2 55 30.0000000  0  8G23G26G28G17G 6G16G20G21
 -19527243.69144 -15216011.54644  21309735.8394   21309736.0974
  -9146342.47444  -7127013.50444  22194258.9394   22194258.5984
  -1571438.732 4  -1224497.802 4  25056632.029    25056631.332
 -22252888.86544 -17339892.17644  20916516.9424   20916517.2174
 -22967790.50444 -17896966.57944  20544262.4024   20544262.0744
   -971072.10744   -756662.75344  24230651.2024   24230652.4344
  -2834628.39644  -2208797.81444  24425683.4074   24425688.5814
  -2975896.70744  -2318877.93744  24462209.3504   24462208.7144
 96  4 26  2 56  0.0000000  0  7G23G26G17G 6G16G20G21
 -19581904.00244 -15258603.98244  21299333.9954   21299334.3584
  -9170115.01644  -7145537.54944  22189734.4974   22189734.0804
 -22278209.34044 -17359622.41644  20911698.7904   20911699.0464
 -22927765.62844 -17865778.38144  20551878.8374   20551878.5044
   -869863.07744   -677798.61544  24249910.2234   24249911.3364
  -2731566.95944  -2128490.19644  24445294.7914   24445292.7974
  -3069688.92544  -2391962.74044  24444361.6004   24444361.7614
 96  4 26  2 56 30.0000000  0  7G23G26G17G 6G16G20G21
 -19636172.24644 -15300890.91344  21289007.3234   21289007.3804
  -9193354.40644  -7163646.15544  22185312.6904   22185312.2754
 -22303341.27344 -17379205.73744  20906916.2404   20906916.4914
 -22887242.54244 -17834201.96544  20559590.0554   20559589.8814
   -768582.43244   -598878.64644  24269182.5814   24269183.5484
  -2628548.96544  -2048216.44644  24464898.1204   24464902.3204
  -3163316.11844  -2464918.98644  24426545.5034   24426543.0274
 96  4 26  2 57  0.0000000  0  8G23G26G28G17G 6G16G20G21
 -19690035.76544 -15342862.46744  21278757.4024   21278757.7394
  -9216047.30944  -7181328.93044  22180994.2284   22180994.1434
        -0.02014        -0.49614  24996734.965    24996734.412
 -22328275.81644 -17398635.24844  20902171.2904   20902171.4504
 -22846209.05944 -17802227.84044  20567398.5334   20567398.2104
   -667248.18344   -519916.88144  24288464.5864   24288466.6254
  -2525578.77844  -1967979.91744  24484493.0414   24484496.8364
  -3256783.81344  -2537750.90444  24408758.1594   24408756.9754
 96  4 26  2 57 30.0000000  0  7G23G26G17G 6G16G20G21
 -19743477.54344 -15384505.39444  21268587.6584   21268587.9304
  -9238182.78144  -7198577.32744  22176781.8734   22176781.6994
 -22352996.03844 -17417897.76244  20897467.2314   20897467.0874
 -22804666.27844 -17769856.85444  20575303.9994   20575303.9064
   -565859.80244   -440912.99044  24307759.4324   24307762.3654
  -2422682.54344  -1887801.02644  24504072.5634
  -3350101.97044  -2610466.31144  24390999.8204   24391001.7704
 96  4 26  2 58  0.0000000  0  7G23G26G17G 6G16G20G21
 -19796542.54644 -15425854.72844  21258489.5674   21258490.1904
  -9259809.40644  -7215429.21944  22172666.9374   22172666.2994
 -22377555.77444 -17437035.21944  20892793.6474   20892793.8164
 -22762666.46144 -17737129.74044  20583296.4144   20583296.1234
   -464441.95144   -361886.08844  24327058.1604   24327058.4444
  -2319930.65544  -1807734.58544  24523626.2784   24523629.1764
  -3443325.00844  -2683107.59244  24373259.8054   24373259.7754
 96  4 26  2 58 30.0000000  0  7G23G26G17G 6G16G20G21
 -19849219.69944 -15466901.84744  21248465.8384   21248466.1644
  -9280908.73944  -7231870.24544  22168651.5744   22168651.0724
 -22401943.82044 -17456038.89044  20888152.5774   20888152.9634
 -22720194.17644 -17704034.46644  20591378.4664   20591378.1814
   -362989.85144   -282832.47244  24346362.9164   24346364.8924
  -2217307.77244  -1727768.70344  24543156.0244   24543157.4454
  -3536433.01044  -2755659.25344  24355539.9664   24355542.4104
 96  4 26  2 59  0.0000000  0  7G23G26G17G 6G16G20G21
 -19901456.48644 -15507605.82344  21238525.0294   21238525.5064
  -9301412.91644  -7247847.50544  22164749.7404   22164749.4704
 -22426106.20444 -17474866.72244  20883554.7914   20883555.1724
 -22677196.58244 -17670529.85744  20599560.7994   20599560.5204
   -261438.18044   -203701.33044  24365688.0674   24365687.7564
  -2114747.23544  -1647851.38444  24562671.5474
  -3629346.22344  -2828059.10544  24337858.8704   24337861.7564
 96  4 26  2 59 30.0000000  0  7G23G26G17G 6G16G20G21
 -19953290.52444 -15547995.96444  21228661.6154   21228662.0854
  -9321346.93944  -7263380.49844  22160956.1584   22160955.6284
 -22450074.17044 -17493543.06044  20878993.7484   20878994.1494
 -22633704.27344 -17636639.75844  20607837.1864   20607836.8424
   -159801.18544   -124503.67844  24385030.2374   24385030.5744
  -2012274.01044                  24582172.7874
  -3722079.21644  -2900318.52344  24320212.3654   24320217.4784
 96  4 26  3  0  0.0000000  0  8G23G26G28G17G 6G16G20G21
 -20004727.37344 -15588076.61044  21218873.3034   21218873.5344
  -9340723.05744  -7278478.75744  22157268.8424   22157268.5024
         0.34714         0.11114  24876922.627    24876949.377
 -22473855.85444 -17512074.23944  20874468.1584   20874468.7344
 -22589720.09744 -17602366.38944  20616206.9374   20616206.7304
    -58090.96844    -45248.97244  24404385.6094   24404387.3374
  -1909863.55644  -1488201.72144  24601659.5914
  -3814630.74344  -2972436.52444  24302600.4174   24302603.8184
 96  4 26  3  0 30.0000000  0  8G23G26G28G17G 6G16G20G21
 -20055808.03944 -15627879.71144  21209153.1624   21209153.4674
  -9359595.56344  -7293184.59644  22153678.2994   22153677.9264
   -104938.720 4    -81770.295 4  24856955.154    24856964.549
 -22497484.27544 -17530485.99144  20869971.7304   20869972.4034
 -22545303.75644 -17567756.26644  20624659.2614   20624658.9384
     43624.74844     34010.04044  24423741.0024   24423740.9424
  -1807546.89944                  24621130.6734
  -3907055.55844  -3044455.81244  24285012.9724   24285016.2344
 96  4 26  3  1  0.0000000  0  8G23G26G28G17G 6G16G20G21
 -20106545.31844 -15667415.23644  21199498.1394   21199498.5094
  -9377980.88344  -7307510.80144  22150179.2294   22150178.8824
   -209920.004 4   -163573.940 4  24836979.900    24836983.299
 -22520968.45744 -17548785.35444  20865502.9354   20865503.3224
 -22500481.31044 -17532829.70044  20633188.6184   20633188.3644
    145345.77444    113273.18444  24443096.7424   24443100.9274
  -1705339.53444                  24640580.2824
  -3999382.96144  -3116399.16044  24267445.2644   24267447.2214
 96  4 26  3  1 30.0000000  0  8G23G26G28G17G 6G16G20G21
 -20156850.22044 -15706613.84944  21189925.0884   21189925.6144
  -9395811.12644  -7321404.48644  22146786.4814   22146785.9914
   -314875.426 4   -245357.419 4  24817005.929    24817012.283
 -22544233.17544 -17566913.70344  20861075.9924   20861076.3214
 -22455191.15144 -17497538.68144  20641806.8374   20641806.5214
    247137.25544    192591.24544  24462468.4644   24462471.0084
  -1603168.91444                  24660023.3754
  -4091555.30044  -3188221.73844  24249906.7554   24249908.1524
 96  4 26  3  2  0.0000000  0  8G23G26G28G17G 6G16G20G21
 -20206729.92144 -15745481.13444  21180433.2404   21180433.6444
  -9413109.16244  -7334883.46044  22143494.5294   22143494.0214
   -419826.538 4   -327137.319 4  24797033.757    24797039.828
 -22567293.66444 -17584882.91244  20856687.6294   20856688.1184
 -22409452.54544 -17461898.22144  20650510.7874   20650510.4694
    348976.28744    271946.26544  24481846.9154   24481850.5954
  -1501064.26344                  24679450.7384
  -4183590.78444  -3259937.66144  24232392.7984   24232394.7874
 96  4 26  3  2 30.0000000  0  8G23G26G28G17G 6G16G20G21
 -20256180.67244 -15784014.17344  21171023.5244   21171023.9724
  -9429864.16244  -7347939.28544  22140306.3724   22140305.7444
   -524775.024 4   -408915.307 4  24777061.959    24777069.280
 -22590149.45844 -17602692.61844  20852338.2884   20852338.8434
 -22363255.70744 -17425900.69844  20659301.7274   20659301.4494
    450867.23844    351341.77344  24501236.5884   24501237.5554
  -1399051.77344                  24698863.6864
  -4275475.27744  -3331535.88244  24214907.3324   24214908.4684
 96  4 26  3  3  0.0000000  0  8G23G26G28G17G 6G16G20G21
 -20305187.54944 -15822201.33544  21161697.3364   21161697.7894
  -9446046.90444  -7360549.20244  22137226.8424   22137226.1484
   -629697.573 4   -490673.082 4  24757096.258    24757103.215
 -22612796.76844 -17620339.87044  20848028.6744   20848029.1234
 -22316562.15244 -17389516.12444  20668187.4564   20668187.1054
    552825.75344    430789.94444  24520638.3364   24520638.9414
  -1297119.87644                  24718263.0344
  -4367176.93344  -3402991.69944  24197456.8454   24197457.2024
 96  4 26  3  3 30.0000000  0  8G23G26G28G17G 6G16G20G21
 -20353754.73644 -15860045.87844  21152455.4454   21152456.1424
  -9461654.43644  -7372710.88844  22134256.3224   22134256.1894
   -734591.870 4   -572408.841 4  24737135.041    24737140.727
 -22635242.08544 -17637829.72144  20843757.4914   20843757.8134
 -22269353.83344 -17352730.43744  20677170.5634   20677170.4594
    654828.89444    510272.91344  24540048.8774   24540049.3184
  -1195277.49844                  24737641.6804
  -4458678.95044  -3474291.93044  24180045.1744   24180045.6534
 96  4 26  3  4  0.0000000  0  8G23G26G28G17G 6G16G20G21
 -20401902.91644 -15897563.92644  21143293.3794   21143293.8034
  -9476685.64944  -7384423.51444  22131396.3724   22131396.1064
   -839458.028 4   -654122.728 4  24717178.554    24717178.864
 -22657485.80744 -17655162.48844  20839524.4614   20839524.9134
 -22221617.23144 -17315533.10444  20686254.7004   20686254.6334
    756858.41644    589776.43444  24559463.6494   24559464.8954
  -1093541.13644                  24757001.2334
  -4549986.14944  -3545440.34744  24162669.3864   24162670.5544
 96  4 26  3  4 30.0000000  0  7G23G26G17G 6G16G20G21
 -20449650.26744 -15934769.64044  21134207.3944   21134207.9454
  -9491133.85344  -7395681.83344  22128646.6384   22128646.5104
 -22679534.36944 -17672343.18244  20835328.6664   20835329.1204
 -22173362.58044 -17277932.09144  20695437.1994   20695436.9394
    858898.35444    669288.04544  24578882.4864   24578885.5584
   -991911.16944                  24776341.0734
  -4641113.28044  -3616448.47744  24145327.6624   24145329.9044
 96  4 26  3  5  0.0000000  0  7G23G26G17G 6G16G20G21
 -20497003.40544 -15971668.17344  21125196.3674   21125196.7094
  -9505007.61744  -7406492.53844  22126006.8904   22126006.3004
 -22701400.27444 -17689381.54644  20831168.0414   20831168.2394
 -22124617.81344 -17239949.16944  20704712.9624   20704712.8464
    960936.45544    748798.26544  24598299.5724   24598303.0994
   -890381.42544                  24795660.4024
  -4732078.14744  -3687330.14644  24128016.8394   24128019.1114
 96  4 26  3  5 30.0000000  0  7G23G26G17G 6G16G20G21
 -20543977.42144 -16008271.28644  21116257.3974   21116257.7144
  -9518333.91244  -7416876.64944  22123470.8504   22123470.8354
 -22723090.07644 -17706282.68644  20827040.7464   20827040.3974
 -22075417.22144 -17201611.06044  20714075.3204   20714075.2764
   1062967.00644    828302.63344  24617715.3264   24617714.4144
   -788988.39144                  24814956.3364
  -4822894.86944  -3758096.37744  24110733.4134   24110737.2354
 96  4 26  3  6  0.0000000  0  7G23G26G17G 6G16G20G21
 -20590538.46644 -16044552.60444  21107397.2044   21107397.4674
  -9531078.00344  -7426807.09944  22121045.9924   22121045.3794
 -22744575.34044 -17723024.44444  20822951.9664   20822951.8564
 -22025753.73844 -17162912.26044  20723526.3614   20723526.2504
   1165043.42944    907842.72044  24637140.4484   24637142.2134
   -687699.96344                  24834230.0034
  -4913529.96344  -3828721.04044  24093486.3694   24093491.8804
 96  4 26  3  6 30.0000000  0  7G23G26G17G 6G16G20G21
 -20636683.28344 -16080509.58944  21098616.2224   21098616.4354
  -9543241.19044  -7436284.88744  22118731.3374   22118730.7084
 -22765869.75144 -17739617.47744  20818900.0344   20818900.0434
 -21975642.33044 -17123864.42844  20733062.2624   20733062.1204
   1267179.55344    987429.28744  24656577.2724   24656579.4184
   -586517.74744                  24853482.5494
  -5003972.36244  -3899195.56944  24076275.5404   24076277.6224
 96  4 26  3  7  0.0000000  0  7G23G26G28G17G 6G16G21
 -20682406.74444 -16116138.25044  21089915.0594   21089915.4774
  -9554836.78144  -7445320.40344  22116524.8374   22116524.2104
        -0.77014        -0.76914  24597573.210    24597573.869
 -22786980.91644 -17756067.73244  20814882.7304   20814882.6454
 -21925072.02344 -17084459.00944  20742685.2524   20742685.1374
   1369386.09744   1067070.75344  24676024.7984   24676023.2284
  -5094212.16044  -3969512.31244  24059103.3244   24059104.7334
 96  4 26  3  7 30.0000000  0  7G23G26G28G17G 6G16G21
 -20727740.95744 -16151463.59844  21081288.3194   21081288.6144
  -9565889.73844  -7453933.09144  22114421.0214   22114420.7104
   -104636.654 4    -81535.183 4  24577661.691    24577662.660
 -22807927.82044 -17772389.98744  20810896.4484   20810896.7734
 -21874049.13744 -17044700.93244  20752394.7904   20752394.4684
   1471640.75044                  24695481.7954
  -5184265.83044  -4039683.95544  24041967.9434   24041971.0714
 96  4 26  3  8  0.0000000  0  7G23G26G28G17G 6G16G21
 -20772683.91044 -16186484.07144  21072735.5914   21072736.1804
  -9576397.08444  -7462120.62044  22112421.5294   22112421.7124
   -209262.028 4   -163061.330 4  24557752.359    24557752.691
 -22828713.99344 -17788586.99644  20806941.0334   20806941.3914
 -21822560.40944 -17004579.86044  20762192.5804   20762192.8014
   1573927.15444   1226453.29444  24714946.9114   24714947.1204
  -5274153.13144  -4109725.95244  24024863.7344   24024865.5564
 96  4 26  3  8 30.0000000  0  8G23G26G28G17G 6G16G22G21
 -20817228.08644 -16221193.80444  21064259.4384   21064259.8844
  -9586366.56244  -7469889.03144  22110524.6674   22110523.9334
   -313881.268 4   -244582.804 4  24537843.501    24537845.865
 -22849335.73344 -17804655.87944  20803017.0904   20803017.0614
 -21770586.05544 -16964080.37744  20772083.1784   20772083.1204
   1676219.41444   1306161.59844  24734409.8274   24734415.5514
        -0.75754        -0.10254  23375223.1504   23375223.0184
  -5363894.42844  -4179654.21544  24007786.5534   24007788.1164
 96  4 26  3  9  0.0000000  0  8G23G26G28G17G 6G16G22G21
 -20861351.66044 -16255575.80144  21055863.1984   21055863.3574
  -9595786.90144  -7477229.53644  22108731.6934   22108731.2564
   -418469.792 4   -326080.345 4  24517941.826    24517943.583
 -22869763.05744 -17820573.27244  20799129.6664   20799129.6774
 -21718103.00244 -16923184.50844  20782070.1264   20782070.1584
   1778517.42944   1385874.26644  24753878.7724   24753883.0464
     -7153.76844     -5573.91644  23373861.4384   23373862.0954
  -5453476.96744  -4249458.77044  23990738.6434   23990740.3474
 96  4 26  3  9 30.0000000  0  8G23G26G28G17G 6G16G22G21
 -20905053.73844 -16289629.35244  21047546.4854   21047546.9714
  -9604650.63544  -7484136.32544  22107045.2154   22107044.6554
   -523016.992 4   -407545.688 4  24498048.045    24498048.653
 -22889978.92644 -17836325.88844  20795282.4504   20795282.8734
 -21665120.70544 -16881899.62044  20792152.8214   20792152.5444
   1880814.42244   1465586.16444  24773346.0874   24773349.2094
    -13836.60044    -10781.34644  23372589.5134   23372589.2174
  -5542905.89544  -4319143.60244  23973721.2054   23973723.9404
 96  4 26  3 10  0.0000000  0  8G23G26G28G17G 6G16G22G21
 -20948347.27844 -16323364.56544  21039308.3184   21039308.5704
  -9612958.39244  -7490609.88344  22105464.0724   22105463.9014
   -627533.263 4   -488986.880 4  24478159.762    24478159.461
 -22910001.76444 -17851928.09444  20791472.0624   20791472.4744
 -21611662.61344 -16840243.97944  20802325.4104   20802325.1924
   1983084.04544   1545276.72544  24792806.8014   24792806.2044
    -20044.91844    -15619.01044  23371407.6634   23371407.7144
  -5632200.13544  -4388723.48744  23956729.1524   23956730.1484
 96  4 26  3 10 30.0000000  0  8G23G26G28G17G 6G16G22G21
 -20991236.37544 -16356784.62444  21031146.4744   21031146.9974
  -9620702.55744  -7496644.28944  22103990.4864   22103989.9094
   -732002.750 4   -570391.673 4  24458279.121    24458279.981
 -22929825.62444 -17867375.25144  20787699.8574   20787700.2344
 -21557738.46544 -16798225.17944  20812586.7284   20812586.7764
   2085332.26644   1624950.64044  24812264.8134   24812267.0444
    -25760.54544    -20072.76544  23370320.0114   23370321.4544
  -5721323.93044  -4458170.55744  23939770.3524   23939771.4454
 96  4 26  3 11  0.0000000  0  8G23G26G28G17G 6G16G22G21
 -21033732.83044 -16389898.73044  21023059.9564   21023060.3024
  -9627876.81744  -7502234.60444  22102625.5484   22102624.7184
   -836418.129 4   -651754.317 4  24438411.364    24438409.884
 -22949443.38944 -17882661.81644  20783966.7024   20783966.9334
 -21503357.52344 -16755850.43544  20822934.9804   20822935.1144
   2187570.65944   1704616.99544  24831719.5504   24831722.3014
    -30963.79644    -24127.26044  23369330.3624   23369331.6274
  -5810258.90544  -4527470.51044  23922846.8394   23922846.9474
 96  4 26  3 11 30.0000000  0  7G23G26G28G22G21G17G 6
 -21075822.26944 -16422695.68244  21015050.4684   21015050.9004
  -9634452.69144  -7507358.66044  22101373.6484   22101373.3784
   -940757.722 4   -733057.848 4  24418555.338    24418555.025
    -35615.61344    -27752.08344  23368445.4834   23368446.3904
  -5898977.83844  -4596602.09744  23905964.8934   23905965.7344
 -22968839.76344 -17897775.86744  20780275.7834   20780276.0244
 -21448498.70544 -16713103.31444  20833373.9784   20833374.2204
 96  4 26  3 12  0.0000000  0  7G23G26G28G17G 6G22G21
 -21117500.99644 -16455172.59344  21007119.1054   21007119.5744
  -9640428.61344  -7512015.20644  22100236.6414   22100236.3194
  -1045021.903 4   -814302.650 4  24398713.550    24398713.536
 -22988026.73044 -17912726.74744  20776624.8394   20776624.9844
 -21393155.52444 -16669978.77244  20843905.9694   20843905.8934
    -39698.22744    -30933.36044  23367667.2764   23367669.4554
  -5987466.41344  -4665554.18044  23889124.8594   23889126.0624
 96  4 26  3 12 30.0000000  0  8G23G26G28G17G 6G16G22G21
 -21158763.32744 -16487325.04444  20999267.2654   20999267.7684
  -9645815.93944  -7516213.10644  22099211.8334   22099211.2074
  -1149204.133 4   -895483.589 4  24378886.896    24378888.240
 -23007001.50544 -17927512.28644  20773013.9014   20773014.1354
 -21337322.47244 -16626472.51444  20854530.6554   20854530.4074
        -0.72254        -0.06154  24890107.3414
    -43208.96544    -33669.01144  23366999.7064   23367000.7444
  -6075722.57744  -4734325.19444  23872330.4364   23872331.3464
 96  4 26  3 13  0.0000000  0  8G23G26G28G17G 6G16G22G21
 -21199635.06544 -16519173.13544  20991489.4834   20991489.8404
  -9650639.23444  -7519971.49944  22098293.9474   22098293.3214
  -1253341.307 4   -976629.435 4  24359070.926    24359070.776
 -23025811.21344 -17942169.19144  20769434.5724   20769434.8864
 -21281027.52144 -16582606.33044  20865243.2904   20865242.9074
    102289.31444                  24909570.6424
    -46193.13544    -35994.35744  23366432.1714   23366433.8154
  -6163800.12244  -4802957.01644  23855569.2414   23855571.6144
 96  4 26  3 13 30.0000000  0  7G26G28G17G 6G23G22G21
  -9654864.46944  -7523263.87844  22097489.8444   22097489.5374
  -1357412.520 4  -1057723.808 4  24339267.206    24339266.650
 -23044449.89544 -17956692.83344  20765887.7714   20765887.8844
 -21224257.02644 -16538369.59744  20876046.2994   20876045.9834
 -21240086.16744 -16550693.45844  20983792.0254   20983792.4484
    -48641.04944    -37901.84244  23365966.2464   23365967.2444
  -6251683.71744  -4871437.68344  23838846.1574   23838846.8274
 96  4 26  3 14  0.0000000  0  8G26G28G17G 6G16G23G22G21
  -9658485.08044  -7526085.12444  22096800.5944   22096800.3284
  -1461422.862 4  -1138770.775 4  24319473.653    24319475.065
 -23062920.43544 -17971085.46444  20762373.2014   20762373.0644
 -21167023.20744 -16493771.82844  20886937.3094   20886937.2844
        -0.27654        -0.21154  24948503.1134   24948503.6334
 -21280110.30944 -16581881.08644  20976175.6394   20976175.9454
    -50576.65644    -39410.10644  23365598.2114   23365599.0914
  -6339379.98644  -4939772.41244  23822156.9484   23822159.7904
 96  4 26  3 14 30.0000000  0  8G26G28G17G 6G16G23G22G21
  -9661524.44644  -7528453.45044  22096222.1264   22096221.2534
  -1565394.489 4  -1219787.604 4  24299687.879    24299689.664
 -23081238.84444 -17985359.54444  20758887.0434   20758887.3974
 -21109348.90044 -16448830.82744  20897912.3864   20897912.4524
    102257.34644     79681.03644  24967961.5394   24967965.4354
 -21319725.86244 -16612750.33444  20968637.1494   20968637.5414
    -52055.94544    -40562.81444  23365317.0474   23365317.6364
  -6426920.20044  -5007985.52844  23805497.1194   23805500.8894
 96  4 26  3 15  0.0000000  0  7G26G28G22G21G17G 6G23
  -9663998.54144  -7530381.29844  22095751.2654   22095750.8114
  -1669345.469 4  -1300788.324 4  24279906.913    24279908.245
    -53099.87444    -41376.26944  23365118.9744   23365118.3474
  -6514313.01144  -5076083.77644  23788866.0984   23788869.6674
 -23099416.58844 -17999524.01744  20755427.7264   20755428.0754
 -21051257.03244 -16403564.45344  20908966.9624   20908966.8644
 -21358954.61544 -16643318.17744  20961172.2404   20961172.5714
 96  4 26  3 15 30.0000000  0  7G26G28G22G21G17G 6G23
  -9665874.99544  -7531843.46144  22095394.3434   22095393.3754
  -1773221.437 4  -1381730.629 4  24260140.244    24260141.697
    -53647.33744    -41802.87244  23365014.2784   23365013.6474
  -6601494.90944  -5144017.68944  23772275.4044   23772278.5224
 -23117381.55644 -18013522.68944  20752009.2144   20752009.2804
 -20992696.24244 -16357932.67744  20920110.8254   20920110.4484
 -21397760.08444 -16673556.18944  20953787.4744   20953787.9464
 96  4 26  3 16  0.0000000  0  7G26G28G17G 6G23G22G21
  -9667193.12944  -7532870.55844  22095143.5094   22095143.1274
  -1877023.970 4  -1462615.726 4  24240387.557    24240387.842
 -23135122.46344 -18027346.77044  20748633.0774   20748633.2644
 -20933666.90644 -16311935.79944  20931344.2764   20931343.8204
 -21436150.42244 -16703470.72144  20946482.3144   20946482.2194
    -53699.32244    -41843.40344  23365003.1354   23365005.0034
  -6688459.66444  -5211782.38144  23755728.1354   23755729.8294
 96  4 26  3 16 30.0000000  0  8G26G28G17G 6G16G23G22G21
  -9667997.03744  -7533496.97144  22094990.0504   22094989.2024
  -1980775.964 4  -1543461.386 4  24220644.729    24220643.366
 -23152667.59244 -18041018.29744  20745294.4054   20745294.6184
 -20874189.46144 -16265589.75044  20942662.0644   20942661.9034
        -0.27054        -0.26554  25045744.2804
 -21474162.64044 -16733090.61444  20939248.8184   20939248.7134
    -53268.22244    -41507.50144  23365085.2314   23365086.6534
  -6775242.23744  -5279405.12744  23739215.5744   23739216.5194
 96  4 26  3 17  0.0000000  0  7G26G28G22G21G17G 6G23
  -9668268.33544  -7533708.35244  22094938.5314   22094938.7304
  -2084463.882 4  -1624257.167 4  24200913.501    24200912.586
    -52318.95744    -40767.82244  23365265.6784   23365268.2814
  -6861830.46444  -5346876.45244  23722738.2334   23722739.9684
 -23170003.46144 -18054526.76344  20741995.5994   20741995.7874
 -20814262.74244 -16218893.61744  20954065.3804   20954065.3624
 -21511790.44344 -16762410.96444  20932088.5134   20932088.8164
 96  4 26  3 17 30.0000000  0  7G26G28G22G21G17G 6G23
  -9667994.99744  -7533495.34644  22094991.1084   22094990.4824
  -2188079.773 4  -1704996.807 4  24181196.296    24181195.354
    -50851.41344    -39624.30544  23365545.3914   23365547.1154
  -6948222.23244  -5414194.67344  23706298.1394   23706299.9104
 -23187117.73144 -18067862.55344  20738738.9674   20738739.1384
 -20753882.85744 -16171844.36644  20965554.9644   20965554.9634
 -21549014.19944 -16791416.47444  20925005.0274   20925005.4334
 96  4 26  3 18  0.0000000  0  7G26G28G17G 6G23G22G21
  -9667146.63644  -7532834.27044  22095152.6344   22095152.1564
  -2291610.828 4  -1785670.344 4  24161495.303    24161494.829
 -23204013.38244 -18081027.99444  20735523.7334   20735523.5404
 -20693045.58544 -16124438.70544  20977132.4464   20977132.5604
 -21585817.64244 -16820094.46644  20918001.6054   20918001.8434
    -48860.62444    -38073.05344  23365924.7284   23365925.2004
  -7034418.80144  -5481360.80944  23689895.6604   23689896.5404
 96  4 26  3 18 30.0000000  0  8G 6G26G28G17G16G23G22G21
 -20631739.15444 -16076667.47044  20988798.5674   20988798.4614
  -9665678.04344  -7531689.89944  22095431.9404   22095431.3314
  -2395042.262 4  -1866266.235 4  24141812.824    24141812.597
 -23220685.38644 -18094019.15944  20732350.9934   20732350.9604
        -0.43854                  25123485.3334
 -21622188.37944 -16848435.28444  20911080.3284   20911080.7504
    -46335.80144    -36105.68244  23366405.7804   23366406.5724
  -7120410.47744  -5548367.27644  23673532.6134   23673531.8864
 96  4 26  3 19  0.0000000  0  8G 6G26G28G17G16G23G22G21
 -20569968.32344 -16028534.36344  21000553.5734   21000553.3104
  -9663579.60244  -7530054.73644  22095831.3274   22095830.5744
  -2498364.332 4  -1946776.934 4  24122150.785    24122150.624
 -23237116.47944 -18106822.60044  20729224.3934   20729224.5284
    102134.37544                  25142921.9894
 -21658120.82144 -16876434.57544  20904242.8134   20904242.9814
    -43278.24144    -33723.20044  23366987.5974   23366986.9714
  -7206174.83544  -5615196.64344  23657213.1174   23657211.4354
 96  4 26  3 19 30.0000000  0  8G 6G26G28G17G16G23G22G21
 -20507758.01544 -15980058.80044  21012391.5444   21012391.3574
  -9660895.32644  -7527963.08944  22096341.7884   22096340.7254
  -2601600.169 4  -2027220.408 4  24102505.429    24102505.561
 -23253342.60344 -18119466.33144  20726136.5294   20726136.8564
    204244.56644                  25162356.6924
 -21693642.73944 -16904113.97644  20897483.2634   20897483.5984
    -39719.92944    -30950.51444  23367664.5404   23367664.8694
  -7291727.04444  -5681860.69044  23640932.9474   23640932.5404
 96  4 26  3 20  0.0000000  0  7G 6G26G28G22G21G17G23
 -20445099.09044 -15931233.66744  21024315.1364   21024315.0724
  -9657639.97244  -7525426.43644  22096961.1484   22096960.5244
  -2704743.951 4  -2107592.191 4  24082877.163    24082878.336
    -35663.03344    -27789.32544  23368436.6014   23368436.9244
  -7377061.18044  -5748354.79344  23624694.3034   23624694.6324
 -23269375.90744 -18131959.80744  20723085.4194   20723085.7954
 -21728756.37144 -16931475.23044  20890801.0714   20890801.1914
 96  4 26  3 20 30.0000000  0  7G 6G26G28G22G21G17G23
 -20381967.67244 -15882040.35944  21036328.6854   21036328.7084
  -9653818.83744  -7522448.92244  22097688.6094   22097688.0654
  -2807782.343 4  -2187881.864 4  24063270.174    24063270.881
    -31104.25344    -24237.04744  23369304.0074   23369303.2044
  -7462164.51544  -5814669.05144  23608498.4754   23608499.0554
 -23285200.47344 -18144290.63244  20720074.1264   20720074.4824
 -21763447.37344 -16958507.16244  20884199.6144   20884199.9044
 96  4 26  3 21  0.0000000  0  7G 6G26G28G22G21G17G23
 -20318366.19144 -15832480.77044  21048431.3714   21048431.4434
  -9649442.05444  -7519038.42644  22098521.3494   22098520.9444
  -2910722.536 4  -2268094.978 4  24043681.647    24043681.933
    -26056.83444    -20304.01744  23370264.3884   23370266.4144
  -7547050.31544  -5880813.80344  23592344.9534   23592346.3344
 -23300833.99744 -18156472.59244  20717099.3734   20717099.3564
 -21797722.18144 -16985214.78744  20877677.2894   20877677.5964
 96  4 26  3 21 30.0000000  0  7G 6G26G28G22G21G17G23
 -20254281.49444 -15782544.64344  21060626.2484   21060626.6784
  -9644498.27744  -7515186.11844  22099462.2284   22099461.7784
  -3013566.041 4  -2348232.710 4  24024110.974    24024111.069
    -20529.59444    -15997.08044  23371316.2564   23371318.5154
  -7631731.50544  -5946799.10444  23576229.6894   23576231.4954
 -23316297.98444 -18168522.44744  20714156.6004   20714156.6324
 -21831582.71744 -17011599.60244  20871234.0064   20871234.3144
 96  4 26  3 22  0.0000000  0  7G 6G26G28G22G21G17G23
 -20189700.11544 -15732221.49544  21072915.8434   21072916.1594
  -9638947.54144  -7510860.85644  22100518.1294   22100517.7504
  -3116298.643 4  -2428284.094 4  24004561.018    24004560.484
    -14513.71744    -11309.42844  23372460.7864   23372461.7934
  -7716212.39444  -6012628.33044  23560152.7204   23560154.1804
 -23331585.27944 -18180434.61944  20711247.6944   20711247.5434
 -21865028.38244 -17037661.14344  20864869.4524   20864869.8004
 96  4 26  3 22 30.0000000  0  7G 6G26G28G22G21G17G23
 -20124641.02444 -15681526.11144  21085296.1894   21085296.0884
  -9632776.00144  -7506051.85644  22101692.8914   22101692.2104
  -3218929.805 4  -2508256.410 4  23985030.942    23985030.328
     -8002.92044     -6236.12444  23373700.3644   23373700.9274
  -7800502.81544  -6078309.14744  23544113.8884   23544114.6544
 -23346703.36644 -18192214.93744  20708370.8494   20708371.1464
 -21898078.71944 -17063414.63544  20858580.1314   20858580.4664
 96  4 26  3 23  0.0000000  0  7G 6G26G28G22G21G17G23
 -20059132.81044 -15630480.75744  21097761.8344   21097762.0494
  -9625982.76944  -7500758.41644  22102985.2524   22102984.6934
  -3321464.643 4  -2588153.681 4  23965519.126    23965519.293
      -992.55244      -773.52644  23375034.2414   23375034.1184
  -7884607.39644  -6143845.15744  23528110.9014   23528110.7154
 -23361661.57044 -18203870.67344  20705524.2584   20705524.3274
 -21930737.04544 -17088862.66144  20852365.1074   20852365.4344
 96  4 26  3 23 30.0000000  0  7G 6G26G28G22G21G17G23
 -19993191.32044 -15579097.78044  21110310.4384   21110310.1924
  -9618584.04744  -7494993.16044  22104393.0434   22104392.1494
  -3423897.152 4  -2667971.217 4  23946027.641    23946027.321
      6530.79244      5088.82944  23376465.7334   23376466.6934
  -7968517.17544  -6209229.37944  23512142.8844   23512144.1704
 -23376446.39544 -18215391.30944  20702710.6784   20702711.0164
 -21963005.16744 -17114006.63644  20846225.1024   20846225.3324
 96  4 26  3 24  0.0000000  0  7G 6G26G28G22G21G17G23
 -19926836.08044 -15527392.40244  21122937.2474   21122937.0124
  -9610610.94844  -7488780.35244  22105910.3804   22105909.9714
  -3526232.918 4  -2747713.361 4  23926554.201    23926554.080
     14575.08944     11357.12644  23377996.5714   23377998.0234
  -8052236.92444  -6274465.47844  23496210.3774   23496213.5474
 -23391051.28344 -18226771.73444  20699931.5194   20699931.7134
 -21994882.92544 -17138846.42744  20840158.6144   20840158.7774
 96  4 26  3 24 30.0000000  0  7G 6G26G28G22G21G17G23
 -19860084.89744 -15475378.49744  21135639.6914   21135639.7274
  -9602097.08544  -7482146.14444  22107530.9614   22107530.5144
  -3628489.950 4  -2827394.142 4  23907095.508    23907095.572
     23117.43744     18013.93444  23379621.7104   23379621.2974
  -8135775.73244  -6339560.61144  23480313.5744   23480315.9184
 -23405480.01744 -18238014.89644  20697185.9684   20697185.8534
 -22026372.08744 -17163383.42144  20834166.3644   20834166.5694
 96  4 26  3 25  0.0000000  0  7G 6G28G26G22G21G17G23
 -19792936.74944 -15423055.26744  21148417.5334   21148417.7174
  -3730665.297 4  -2907011.279 4  23887652.259    23887652.580
  -9593052.97944  -7475098.79444  22109251.4094   22109251.0384
     32137.57644     25041.95244  23381338.4814   23381339.0144
  -8219132.24844  -6404513.69444  23464451.1854   23464453.3934
 -23419729.21444 -18249118.15944  20694474.4484   20694474.5184
 -22057465.71644 -17187612.20444  20828249.8434   20828249.9544
 96  4 26  3 25 30.0000000  0  7G 6G28G26G22G21G17G23
 -19725365.51244 -15370402.35844  21161276.0684   21161276.3794
  -3832741.560 4  -2986551.251 4  23868227.016    23868227.597
  -9583469.61044  -7467631.22644  22111075.5044   22111075.0204
     41633.87444     32441.70044  23383145.7934   23383145.7954
  -8302280.33344  -6469304.36344  23448629.4344   23448631.5584
 -23433775.19644 -18260063.07344  20691801.3424   20691801.3924
 -22088159.90444 -17211529.73744  20822408.8344   20822409.1804
 96  4 26  3 26  0.0000000  0  7G 6G28G26G22G21G17G23
 -19657360.39244 -15317411.36044  21174216.8214   21174216.9624
  -3934718.681 4  -3066013.948 4  23848821.618    23848821.477
  -9573337.87844  -7459736.36044  22113003.4454   22113003.0014
     51582.59344     40193.95444  23385038.9594   23385040.1474
  -8385225.05444  -6533936.59144  23432845.4184   23432846.9524
 -23447617.55244 -18270849.31744  20689167.4384   20689167.5574
 -22118450.20644 -17235132.55144  20816644.9724   20816644.9794
 96  4 26  3 26 30.0000000  0  7G 6G28G26G22G21G17G23
 -19588928.03644 -15264087.46044  21187238.8304   21187238.6634
  -4036596.847 4  -3145399.518 4  23829434.803    23829434.631
  -9562651.32344  -7451409.15444  22115036.9604   22115036.1764
     61957.70544     48278.45344  23387012.4984   23387013.6574
  -8467965.32444  -6598409.47944  23417100.5814   23417101.6224
 -23461256.81244 -18281477.30344  20686571.8264   20686571.8944
 -22148334.25244 -17258418.80144  20810957.9504   20810958.1594
 96  4 26  3 27  0.0000000  0  7G 6G28G26G22G21G17G23
 -19519986.89644 -15210367.09944  21200358.3444   21200358.2604
  -4138284.097 4  -3224636.350 4  23810084.046    23810084.079
  -9551330.95844  -7442588.07644  22117190.8634   22117190.7924
     72852.73744     56768.05844  23389085.8834   23389087.0034
  -8550414.33844  -6662655.44144  23401409.6084   23401411.3634
 -23474612.83744 -18291884.58944  20684030.0934   20684030.1064
 -22177731.38744 -17281325.64044  20805363.8114   20805363.7574
 96  4 26  3 27 30.0000000  0  7G 6G28G26G22G21G17G23
 -19450568.01844 -15156274.47844  21213568.2514   21213568.0234
  -4239812.107 4  -3303749.052 4  23790763.857    23790763.627
  -9539412.05644  -7433300.60844  22119459.3104   22119458.5824
     84242.46344     65643.14344  23391253.0774   23391254.7034
  -8632610.33544  -6726704.21744  23385767.9744   23385769.9804
 -23487716.38744 -18302095.14044  20681536.4404   20681536.7164
 -22206681.85244 -17303884.42944  20799854.8544   20799855.2184
 96  4 26  3 28  0.0000000  0  7G 6G28G26G22G21G17G23
 -19380702.67344 -15101833.95844  21226863.2354   21226863.0684
  -4341209.955 4  -3382760.363 4  23771468.228    23771468.815
  -9526907.62144  -7423556.87944  22121838.7884   22121837.8374
     96104.75444     74886.46544  23393510.5184   23393512.1764
  -8714597.64344  -6790590.38544  23370167.7554   23370169.3164
 -23500607.54044 -18312140.18744  20679083.6174   20679083.7134
 -22235206.03544 -17326111.04844  20794426.6114   20794426.7944
 96  4 26  3 28 30.0000000  0  7G 6G28G26G22G21G17G23
 -19310399.58244 -15047052.33744  21240241.4154   21240241.2484
  -4442474.993 4  -3461668.164 4  23752198.600    23752198.644
  -9513803.54644  -7413345.89744  22124332.5744   22124331.8454
    108460.58044     84514.37044  23395862.9774   23395862.6894
  -8796363.47444  -6854303.98944  23354608.9374   23354609.0794
 -23513299.79344 -18322030.24644  20676668.4344   20676668.4774
 -22263316.43044 -17348015.23844  20789077.3704   20789077.7674
 96  4 26  3 29  0.0000000  0  7G 6G28G26G22G21G17G23
 -19239635.13644 -14991911.21844  21253707.1464   21253706.9374
  -4543590.661 4  -3540459.581 4  23732957.489    23732957.081
  -9500072.53344  -7402646.39444  22126945.0514   22126944.2364
    121342.51044     94552.21144  23398314.4804   23398314.8094
  -8877890.54144  -6917831.53944  23339094.5374   23339093.5904
 -23525785.79544 -18331759.58844  20674292.3324   20674292.4264
 -22291027.00844 -17369607.88244  20783804.0574   20783804.2704
 96  4 26  3 29 30.0000000  0  7G 6G28G26G22G21G17G23
 -19168408.76744 -14936410.15344  21267261.2404   21267261.2444
  -4644549.265 4  -3619128.576 4  23713745.575    23713745.171
  -9485692.45244  -7391441.11544  22129681.4614   22129681.0714
    134755.65344    105003.99744  23400866.6894   23400867.6774
  -8959171.10744  -6981167.01444  23323626.8294   23323627.1834
 -23538061.25944 -18341324.87744  20671956.3614   20671956.6044
 -22318324.57744 -17390878.69644  20778609.8264   20778610.1424
 96  4 26  3 30  0.0000000  0  7G 6G28G26G22G21G17G23
 -19096748.01244 -14880570.60744  21280897.6974   21280897.4684
  -4745371.705 4  -3697691.496 4  23694559.578    23694559.367
  -9470687.41344  -7379748.86744  22132537.2464   22132536.7874
    148672.78744    115848.51844  23403514.9384   23403515.4034
  -9040223.43144  -7044324.63644  23308202.9974   23308202.6964
 -23550159.39444 -18350751.98344  20669654.1784   20669654.4484
 -22345230.35844 -17411844.22144  20773489.6794   20773489.5024
 96  4 26  3 30 30.0000000  0  7G28G 6G26G22G21G17G23
  -4846075.254 4  -3776161.770 4  23675396.068    23675396.086
 -19024678.48944 -14824412.54244  21294612.2354   21294612.3994
  -9455098.79844  -7367601.87244  22135503.3794   22135503.0194
    163070.45344    127067.45544  23406254.4594   23406254.7684
  -9121061.52344  -7107315.31644  23292820.0464   23292821.1394
 -23562100.41244 -18360056.66544  20667382.0554   20667382.0344
 -22371765.47244 -17432520.91544  20768440.2474   20768440.3634
 96  4 26  3 31  0.0000000  0  7G28G 6G26G22G21G17G23
  -4946672.508 4  -3854549.218 4  23656253.397    23656253.491
 -18952217.97944 -14767949.81344  21308400.8404   21308400.6524
  -9438967.73344  -7355032.19644  22138573.5834   22138572.6604
    177916.27144    138635.60144  23409079.0844   23409080.6904
  -9201715.03244  -7170162.16344  23277472.3044   23277474.0994
 -23573879.48144 -18369235.14944  20665140.2424   20665140.5834
 -22397929.05644 -17452908.10844  20763461.5404   20763461.1994
 96  4 26  3 31 30.0000000  0  7G28G 6G26G22G21G17G23
  -5047157.718 4  -3932849.331 4  23637131.898    23637131.268
 -18879377.58844 -14711191.07044  21322262.3384   21322262.2584
  -9422314.20244  -7342055.40044  22141742.3454   22141742.1274
    193194.98744    150541.05644  23411987.0474   23411987.9414
  -9282188.41244  -7232868.63844  23262158.9314   23262159.8004
 -23585493.57344 -18378285.08144  20662930.2114   20662930.5264
 -22423698.27344 -17472987.99944  20758557.6924   20758557.8514
 96  4 26  3 32  0.0000000  0  7G28G 6G26G22G21G17G23
  -5147518.590 4  -4011052.551 4  23618033.430    23618032.883
 -18806148.04344 -14654129.09744  21336197.3564   21336197.5124
  -9405144.46044  -7328676.37144  22145009.0464   22145008.5564
    208911.52944    162787.67644  23414977.2134   23414979.0074
  -9362466.82844  -7295423.21344  23246881.7294   23246881.2924
 -23596928.10944 -18387195.10644  20660754.2634   20660754.3284
 -22449083.56044 -17492768.72744  20753727.1124   20753726.9604
 96  4 26  3 32 30.0000000  0  7G28G 6G26G22G21G17G23
  -5247740.677 4  -4089147.657 4  23598961.514    23598961.117
 -18732522.88644 -14596758.85244  21350207.5204   21350207.2814
  -9387450.15544  -7314888.58144  22148375.9944   22148375.1474
    225083.76044    175389.40944  23418054.5584   23418055.2094
  -9442533.61344  -7357812.87444  23231645.1504   23231645.7564
 -23608155.37644 -18395943.62044  20658617.9584   20658618.1434
 -22474080.63544 -17512246.94744  20748970.1534   20748970.5734
 96  4 26  3 33  0.0000000  0  7G28G 6G26G22G21G17G23
  -5347809.707 4  -4167123.499 4  23579919.424    23579918.568
 -18658493.72444 -14539073.79844  21364294.9334   21364294.4984
  -9369214.49744  -7300678.95344  22151846.6784   22151845.7704
    241709.89044    188344.81644  23421218.8134   23421220.8034
  -9522372.06544  -7420024.59644  23216452.1154   23216453.9664
 -23619164.68944 -18404522.29644  20656522.9864   20656523.0894
 -22498694.11444 -17531426.26544  20744286.3044   20744286.5444
 96  4 26  3 33 30.0000000  0  7G28G 6G26G22G21G17G23
  -5447715.450 4  -4244972.087 4  23560907.378    23560907.043
 -18584044.70144 -14481061.58144  21378462.0124   21378461.9234
  -9350416.43944  -7286031.11144  22155423.5594   22155423.1484
    258797.79244    201660.03544  23424470.5314   23424472.1854
  -9601968.17244  -7482047.50744  23201306.3754   23201307.4544
 -23629956.60244 -18412931.56644  20654469.2374   20654469.3504
 -22522930.20444 -17550311.51444  20739674.1884   20739674.4254
 96  4 26  3 34  0.0000000  0  7G28G 6G26G22G17G23G21
  -5547433.411 4  -4322674.355 4  23541931.649    23541931.999
 -18509150.48544 -14422702.45844  21392714.0644   21392714.0254
  -9331016.65844  -7270914.38444  22159115.7944   22159115.4354
    276373.22444    215355.14744  23427814.4624   23427815.9974
 -23640494.31944 -18421142.76644  20652464.0244   20652464.0054
 -22546769.52244 -17568887.58944  20735137.7784   20735138.0664
  -9681287.35244  -7543854.62244  23186212.9934   23186213.6794
 96  4 26  3 34 30.0000000  0  7G28G 6G26G22G17G23G21
  -5646980.165 4  -4400243.223 4  23522987.756    23522989.372
 -18433828.36244 -14364009.89644  21407047.6654   21407047.4634
  -9311022.44544  -7255334.46644  22162919.5704   22162919.2464
    294413.97244    229412.86044  23431247.7354   23431248.8174
 -23650792.56944 -18429167.36844  20650504.1964   20650504.0544
 -22570209.31044 -17587152.34044  20730677.2754   20730677.4344
  -9760356.57444  -7605466.96244  23171165.8474   23171166.8034
 96  4 26  3 35  0.0000000  0  7G28G 6G26G22G21G17G23
  -5746347.326 4  -4477672.156 4  23504079.784    23504080.074
 -18358066.38644 -14304974.59344  21421464.2744   21421464.2604
  -9290415.59044  -7239277.16544  22166842.2504   22166840.9534
    312921.50944    243834.28344  23434769.8824   23434769.9994
  -9839178.03444  -7666886.23944  23156166.3774   23156167.8274
 -23660859.55544 -18437011.76644  20648588.8614   20648588.4894
 -22593233.02844 -17605092.87844  20726296.2794   20726296.3334
 96  4 26  3 35 30.0000000  0  7G28G 6G26G22G17G23G21
  -5845548.266 4  -4554971.539 4  23485202.390    23485202.581
 -18281883.58844 -14245611.38044  21435961.6824   21435961.3744
  -9269200.80144  -7222746.14544  22170878.4734   22170877.8454
    331908.53244    258629.33744  23438383.6714   23438384.5634
 -23670699.53744 -18444679.27744  20646716.3614   20646716.1194
 -22615844.96044 -17622712.54644  20721993.3764   20721993.3194
  -9917780.05744  -7728134.52444  23141208.7204   23141211.4784
 96  4 26  3 36  0.0000000  0  7G28G 6G26G22G17G23G21
  -5944581.417 4  -4632140.192 4  23466356.469    23466357.230
 -18205286.79544 -14185925.56444  21450537.4444   21450537.7044
  -9247371.60144  -7205736.37244  22175032.1554   22175031.3594
    351376.83344    273799.43844  23442088.0734   23442089.8484
 -23680316.30944 -18452172.85144  20644886.1624   20644886.0894
 -22638038.25044 -17640006.00244  20717770.0024   20717769.8544
  -9996162.44244  -7789211.66044  23126293.1004   23126294.7034
 96  4 26  3 36 30.0000000  0  7G28G 6G26G22G17G23G21
  -6043446.155 4  -4709177.636 4  23447542.798    23447543.837
 -18128274.59744 -14125916.06444  21465192.1284   21465191.7054
  -9224934.83044  -7188253.16544  22179301.9864   22179300.4744
    371327.61144    289345.46644  23445883.8194   23445885.2624
 -23689729.80144 -18459508.02644  20643094.9174   20643094.6724
 -22659817.35844 -17656976.71744  20713625.5224   20713625.4524
 -10074333.87344  -7850124.42644  23111417.5014   23111419.1214
 96  4 26  3 37  0.0000000  0  7G28G 6G26G22G17G23G21
  -6142162.531 4  -4786099.454 4  23428757.990    23428758.510
 -18050871.75444 -14065602.16244  21479921.8094   21479922.1924
  -9201921.01544  -7170320.31144  22183681.4914   22183680.8394
    391737.92644    305249.59144  23449767.8674   23449767.7994
 -23698968.88944 -18466707.30744  20641336.7724   20641336.4884
 -22681207.36644 -17673644.23844  20709555.2504   20709555.3614
 -10152310.61744  -7910885.48744  23096579.1214   23096579.7274
 96  4 26  3 37 30.0000000  0  7G28G 6G26G22G17G23G21
  -6240709.260 4  -4862889.100 4  23410005.228    23410006.058
 -17973063.94344 -14004972.70644  21494727.8364   21494727.6824
  -9178326.42944  -7151934.90444  22188171.6984   22188170.8684
    412614.77844    321517.24544  23453741.2474   23453742.8434
 -23708004.95044 -18473748.38244  20639616.9074   20639616.6454
 -22702181.48244 -17689987.68744  20705563.8924   20705563.9684
 -10230064.51144  -7971472.89744  23081783.5964   23081784.2594
 96  4 26  3 38  0.0000000  0  7G28G 6G26G17G23G22G21
  -6339069.020 4  -4939533.054 4  23391288.198    23391289.064
 -17894829.38844 -13944010.72244  21509615.4154   21509615.2984
  -9154150.86144  -7133096.78444  22192771.8904   22192771.2034
 -23716841.13644 -18480633.71244  20637935.5194   20637935.4854
 -22722722.01344 -17705993.28244  20701655.1134   20701655.2374
    433954.66744    338145.70844  23457802.1344   23457803.5574
 -10307556.50744  -8031856.23244  23067036.9394   23067038.4514
 96  4 26  3 38 30.0000000  0  7G28G 6G26G17G23G22G21
  -6437247.484 4  -5016035.725 4  23372605.633    23372605.966
 -17816168.12344 -13882716.23644  21524584.2324   21524584.3944
  -9129417.06444  -7113823.68344  22197478.5174   22197477.8254
 -23725482.31644 -18487367.08744  20636291.6324   20636291.3474
 -22742834.49944 -17721665.32944  20697827.6924   20697827.8204
    455756.16344    355133.87444  23461950.7564   23461953.0104
 -10384799.93244  -8092045.87044  23052338.5314   23052339.4854
 96  4 26  3 39  0.0000000  0  7G28G 6G26G17G23G22G21
  -6535245.320 4  -5092397.658 4  23353956.722    23353957.458
 -17737093.61844 -13821099.74044  21539631.6824   21539631.7694
  -9104125.40644  -7094115.87744  22202290.7974   22202290.0964
 -23733922.72944 -18493944.02144  20634685.0564   20634684.8794
 -22762519.25644 -17737004.08544  20694081.8594   20694082.1304
    478015.72444    372478.96444  23466186.8094   23466188.1254
 -10461807.68744  -8152051.87444  23037683.3204   23037684.3114
 96  4 26  3 39 30.0000000  0  7G28G 6G26G17G23G22G21
  -6633054.580 4  -5168612.676 4  23335344.654    23335344.642
 -17657602.96944 -13759158.98244  21554757.7014   21554757.7404
  -9078265.78544  -7073965.50644  22207211.8434   22207211.2954
 -23742153.40644 -18500357.51944  20633118.6624   20633118.6654
 -22781791.39844 -17752021.32544  20690414.5404   20690414.5494
    500737.63744    390184.32044  23470510.8714   23470512.4234
 -10538570.82544  -8211867.27144  23023076.2114   23023077.4084
 96  4 26  3 40  0.0000000  0  7G28G 6G26G17G23G22G21
  -6730674.592 4  -5244680.192 4  23316769.067    23316767.628
 -17577704.53344 -13696900.46544  21569961.9114   21569962.0604
  -9051831.95844  -7053367.71644  22212242.5484   22212241.7344
 -23750181.65644 -18506613.28744  20631591.0814   20631590.9714
 -22800677.71044 -17766737.91244  20686820.8734   20686820.5594
    523929.49244    408255.90744  23474923.9214   23474924.6954
 -10615096.60344  -8271497.69944  23008514.3674   23008515.0664
 96  4 26  3 40 30.0000000  0  7G28G 6G26G17G23G22G21
  -6828106.522 4  -5320601.151 4  23298227.827    23298227.390
 -17497418.90544 -13634340.24244  21585240.5214   21585240.7444
  -9024829.14844  -7032326.55744  22217381.0134   22217380.5144
 -23757997.02844 -18512703.17544  20630103.9324   20630103.8324
 -22819191.90144 -17781164.53744  20683297.5434   20683297.5544
    547579.68944    426684.62444  23479425.1804   23479425.2084
 -10691408.73444  -8330961.66944  22993992.8324   22993993.2044
 96  4 26  3 41  0.0000000  0  7G28G 6G26G17G23G22G21
  -6925345.462 4  -5396371.768 4  23279722.912    23279723.574
 -17416754.97544 -13571485.23744  21600589.7624   21600589.8954
  -8997250.28344  -7010836.52144  22222628.8724   22222627.4304
 -23765603.65844 -18518630.40944  20628656.3654   20628656.1964
 -22837339.60344 -17795305.58544  20679844.1594   20679844.0794
    571678.47544    445462.86444  23484010.3844   23484010.4164
 -10767490.42644  -8390246.04844  22979513.8854   22979515.4244
 96  4 26  3 41 30.0000000  0  7G28G 6G26G17G23G22G21
  -7022384.302 4  -5471986.445 4  23261257.482    23261257.737
 -17335693.83044 -13508320.71244  21616015.1554   21616015.2314
  -8969091.04344  -6988894.24444  22227987.0174   22227986.3954
 -23772997.82444 -18524392.08344  20627249.0394   20627249.0104
 -22855119.78544 -17809160.25444  20676460.6484   20676460.3914
    596221.46244    464587.28044  23488681.2094   23488681.4544
 -10843316.63944  -8449331.36844  22965084.8194   22965085.8004
 96  4 26  3 42  0.0000000  0  7G28G 6G26G17G23G22G21
  -7119228.249 4  -5547449.227 4  23242828.835    23242828.878
 -17254238.21344 -13444848.80244  21631516.1164   21631515.9284
  -8940366.68444  -6966511.61044  22233453.0814   22233452.5904
 -23780187.30744 -18529994.26144  20625880.8564   20625881.1404
 -22872525.50744 -17822723.13544  20673148.4194   20673148.1584
    621204.65344    484054.69344  23493435.0084   23493435.2944
 -10918901.92244  -8508228.94644  22950701.6354   22950703.1034
 96  4 26  3 42 30.0000000  0  7G28G 6G26G17G23G22G21
  -7215874.798 4  -5622758.187 4  23224437.564    23224437.998
 -17172384.57444 -13381066.75544  21647092.0714   21647092.3624
  -8911078.51744  -6943689.66244  22239026.7174   22239026.1584
 -23787173.79644 -18535438.26944  20624551.3324   20624551.6004
 -22889537.43944 -17835979.16644  20669911.1614   20669911.1204
    646626.10244    503863.60244  23498272.6524   23498272.3704
 -10994251.33844  -8566942.74044  22936362.5204   22936364.1224
 96  4 26  3 43  0.0000000  0  7G28G 6G26G17G23G22G21
  -7312332.417 4  -5697919.946 4  23206081.722    23206082.269
 -17090142.83044 -13316982.28644  21662742.3684   21662742.5924
  -8881229.02844  -6920430.30944  22244707.0374   22244706.5114
 -23793962.53744 -18540728.18844  20623259.5884   20623259.8574
 -22906170.52544 -17848939.99344  20666745.8344   20666746.0904
    672481.59344    524010.72144  23503192.5814   23503194.0814
 -11069361.42044  -8625470.02544  22922069.5164   22922070.8634
 96  4 26  3 43 30.0000000  0  7G28G 6G17G23G26G22G21
  -7408590.549 4  -5772926.266 4  23187764.142    23187765.005
 -17007511.14044 -13252593.95644  21678466.1984   21678466.0334
 -23800539.95244 -18545853.43344  20622008.2154   20622008.0474
 -22922422.99744 -17861604.23544  20663653.3644   20663653.3064
  -8850820.47944  -6896735.32244  22250493.4404   22250492.0724
    698775.32744    544499.34044  23508196.2514   23508196.0994
 -11144234.17744  -8683812.39544  22907821.7854   22907822.3984
 96  4 26  3 44  0.0000000  0  7G28G 6G26G17G23G22G21
  -7504662.722 4  -5847787.661 4  23169484.012    23169483.279
 -16924522.24444 -13187927.28544  21694258.7764   21694258.8464
  -8819882.55844  -6872627.84044  22256380.7914   22256380.1014
 -23806922.74444 -18550827.01944  20620793.4654   20620793.5804
 -22938309.70344 -17873983.46644  20660629.9854   20660630.0094
    725496.69944    565321.18244  23513281.0344   23513281.7054
 -11218901.19244  -8741994.44344  22893613.5014   22893615.1764
 96  4 26  3 44 30.0000000  0  7G28G 6G17G23G26G22G21
  -7600537.929 4  -5922495.560 4  23151239.174    23151238.418
 -16841177.35244 -13122983.22844  21710118.8414   21710118.9004
 -23813099.88644 -18555640.36144  20619617.7534   20619617.9684
 -22953824.67344 -17886073.03044  20657677.5934   20657677.5424
  -8788399.29844  -6848095.43644  22262372.0414   22262371.4684
    752635.21044    586468.06744  23518445.5294   23518446.0194
 -11293348.55144  -8800005.32644  22879446.5464   22879448.4244
 96  4 26  3 45  0.0000000  0  7G28G 6G17G23G26G22G21
  -7696195.207 4  -5997033.658 4  23133035.091    23133035.279
 -16757450.03844 -13057741.16644  21726051.0274   21726050.6634
 -23819049.32044 -18560276.26544  20618485.9154   20618485.9854
 -22968954.82944 -17897862.73944  20654798.4554   20654798.3694
  -8756359.68644  -6823129.49544  22268468.9634   22268467.7394
    780190.01744    607939.32744  23523689.1484   23523689.7834
 -11367541.22144  -8857817.75444  22865328.1204   22865327.9134
 96  4 26  3 45 30.0000000  0  7G28G 6G17G23G26G22G21
  -7791640.105 4  -6071406.295 4  23114872.883    23114873.183
 -16673332.24544 -12992194.83944  21742058.8244   21742058.4544
 -23824792.80544 -18564751.69144  20617392.9804   20617393.0724
 -22983694.37544 -17909348.07444  20651993.4954   20651993.3774
  -8723773.85244  -6797737.92444  22274669.2864   22274668.5034
    808144.80944    629722.26644  23529008.9944   23529009.5074
 -11441501.65944  -8915449.22444  22851253.9554   22851254.5064
 96  4 26  3 46  0.0000000  0  7G28G 6G17G23G26G22G21
  -7886866.027 4  -6145608.271 4  23096752.298    23096752.460
 -16588823.69544 -12926344.03044  21758139.9994   21758139.6604
 -23830328.35244 -18569065.08844  20616339.3384   20616339.2134
 -22998029.04144 -17920517.92344  20649265.9134   20649265.5984
  -8690625.67344  -6771908.17344  22280977.5404   22280976.4764
    836511.56744    651826.23944  23534407.0264   23534407.5024
 -11515221.02244  -8972892.84244  22837225.1574   22837226.1334
 96  4 26  3 46 30.0000000  0  7G28G 6G17G23G26G22G21
  -7981841.281 4  -6219614.893 4  23078678.880    23078679.170
 -16503895.52544 -12860166.23744  21774301.1484   21774301.3614
 -23835622.92844 -18573190.71744  20615331.7114   20615331.6544
 -23011924.29744 -17931345.37444  20646621.7034   20646621.3794
  -8656881.83444  -6745614.26944  22287398.6964   22287398.9664
    865314.74944    674270.25144  23539887.3584   23539888.0094
 -11588661.03844  -9030118.79244  22823249.7144   22823250.6544
 96  4 26  3 47  0.0000000  0  7G28G 6G17G23G26G22G21
  -8076570.161 4  -6293429.555 4  23060651.829    23060653.079
 -16418559.53744 -12793670.66744  21790540.3634   21790540.0594
 -23840692.43544 -18577140.96544  20614367.2954   20614367.2394
 -23025388.42944 -17941836.88344  20644059.4044   20644059.1934
  -8622560.88644  -6718870.66744  22293929.6074   22293928.5294
    894567.26244    697064.40944  23545453.9014   23545455.5034
 -11661834.65244  -9087137.15344  22809326.1314   22809326.6804
 96  4 26  3 47 30.0000000  0  7G28G 6G17G23G26G22G21
  -8171069.735 4  -6367065.555 4  23042668.941    23042670.226
 -16332857.14944 -12726889.57544  21806849.0544   21806848.6754
 -23845554.16844 -18580929.31644  20613442.2194   20613442.0864
 -23038448.26444 -17952013.35744  20641574.0504   20641574.2314
  -8587682.76044  -6691692.89444  22300566.8234   22300566.6444
    924271.90944    720210.85544  23551105.9074   23551107.2794
 -11734773.20444  -9143972.34844  22795446.3104   22795446.7484
 96  4 26  3 48  0.0000000  0  7G28G17G 6G23G26G22G21
  -8265329.498 4  -6440514.683 4  23024732.618    23024732.589
 -23850183.56944 -18584536.62644  20612560.9924   20612560.8084
 -16246797.55944 -12659830.15444  21823225.4904   21823225.5874
 -23051109.06544 -17961878.89744  20639165.0034   20639164.8914
  -8552242.10244  -6664076.78744  22307311.0884   22307309.9904
    954435.71244    743715.10644  23556846.4124   23556848.4134
 -11807451.60744  -9200604.82044  22781616.1924   22781616.7444
 96  4 26  3 48 30.0000000  0  7G28G17G 6G23G26G22G21
  -8359356.263 4  -6513782.241 4  23006839.856    23006839.765
 -23854588.73444 -18587969.21244  20611722.9494   20611722.8164
 -16160385.76344 -12592496.27944  21839668.6194   21839668.4264
 -23063395.25544 -17971452.53844  20636826.8394   20636827.0104
  -8516254.69344  -6636034.64444  22314159.1164   22314158.3124
    985032.15944    767556.48044  23562668.2634   23562670.2954
 -11879885.99744  -9257047.17244  22767831.9574   22767833.1994
 96  4 26  3 49  0.0000000  0  7G28G17G 6G23G26G22G21
  -8453127.972 4  -6586851.086 4  22988995.280    22988995.866
 -23858748.65944 -18591210.70044  20610931.2234   20610931.2294
 -16073599.79744 -12524870.84444  21856184.0484   21856183.7504
 -23075309.41844 -17980736.28544  20634559.7224   20634559.4274
  -8479693.80844  -6607545.63544  22321116.7234   22321116.2844
   1016078.32644    791748.29444  23568576.5274   23568577.2774
 -11952059.24444  -9313286.02644  22754097.6004   22754098.5774
 96  4 26  3 49 30.0000000  0  7G28G17G 6G23G26G22G21
  -8546653.066 4  -6659727.765 4  22971198.178    22971198.872
 -23862656.90944 -18594256.07344  20610187.3474   20610187.3034
 -15986442.31244 -12456955.91244  21872769.3724   21872769.1814
 -23086870.15344 -17989744.62844  20632359.6574   20632359.6894
  -8442561.50444  -6578611.35944  22328182.6224   22328181.8004
   1047545.57844    816268.21144  23574565.4244   23574566.1754
 -12023976.51644  -9369325.42044  22740412.5724   22740413.7464
 96  4 26  3 50  0.0000000  0  7G28G17G 6G23G26G22G21
  -8639942.234 4  -6732420.584 4  22953446.214    22953446.795
 -23866337.41544 -18597123.98544  20609487.0164   20609487.0164
 -15898917.50844 -12388754.76344  21889424.8664   21889424.8724
 -23098097.48644 -17998493.18144  20630223.4784   20630223.3244
  -8404864.37144  -6549236.95944  22335356.3874   22335355.7974
   1079413.15844    841100.05844  23580629.0504   23580630.6004
 -12095653.61144  -9425177.65344  22726772.3834   22726773.2764
 96  4 26  3 50 30.0000000  0  7G28G17G 6G23G26G22G21
  -8733008.177 4  -6804939.456 4  22935736.268    22935736.605
 -23869808.77644 -18599828.92644  20608826.5644   20608826.6124
 -15811038.05444 -12320277.26644  21906147.5954   21906147.7664
 -23108995.83044 -18006985.37644  20628149.2004   20628149.0474
  -8366621.91844  -6519437.64044  22342633.2944   22342632.9074
   1111677.87744    866241.37144  23586768.4224   23586769.2984
 -12167113.81744  -9480860.89144  22713173.6034   22713175.1964
 96  4 26  3 51  0.0000000  0  7G28G17G 6G23G26G22G21
  -8825828.697 4  -6877267.113 4  22918072.387    22918073.331
 -23873049.09844 -18602353.84144  20608209.5894   20608209.7634
 -15722786.80344 -12251510.05744  21922941.0964   21922941.0634
 -23119526.17044 -18015190.82044  20626145.3964   20626145.3844
  -8327820.62544  -6489202.85544  22350016.6724   22350016.0804
   1144371.27144    891716.74244  23592989.6864   23592989.6964
 -12238324.60944  -9536349.77744  22699623.3754   22699624.9424
 96  4 26  3 51 30.0000000  0  7G28G17G 6G23G26G22G21
  -8918411.319 4  -6949409.397 4  22900454.922    22900455.664
 -23876077.39544 -18604713.53944  20607633.5864   20607633.6134
 -15634176.82944 -12182463.32944  21939802.7704   21939802.8584
 -23129680.39644 -18023103.18344  20624213.1914   20624212.9214
  -8288477.62144  -6458545.95844  22357503.9494   22357502.9074
   1177473.62544    917510.78744  23599288.9234   23599290.4494
 -12309295.95044  -9591652.07844  22686118.0964   22686118.4004
 96  4 26  3 52  0.0000000  0  7G28G17G 6G23G26G22G21
  -9010773.509 4  -7021379.910 4  22882878.878    22882879.847
 -23878919.62844 -18606928.25044  20607092.5584   20607092.5754
 -15545232.47844 -12113156.03044  21956729.0314   21956728.6574
 -23139470.37744 -18030731.72044  20622350.0984   20622350.0014
  -8248623.33244  -6427490.65044  22365087.8054   22365087.4764
   1210967.43344    943609.83344  23605663.7464   23605664.4394
 -12380048.08944  -9646783.59044  22672653.7814   22672654.9134
 96  4 26  3 52 30.0000000  0  7G28G17G 6G23G26G22G21
  -9102900.434 4  -7093167.090 4  22865347.671    22865348.224
 -23881552.86544 -18608980.10944  20606591.6554   20606591.6814
 -15455944.36644 -12043580.89344  21973719.7764   21973720.1044
 -23148855.68844 -18038044.93044  20620564.2124   20620564.0294
  -8208251.08844  -6396031.75444  22372770.4784   22372769.7164
   1244843.55544    970006.79244  23612109.7914   23612111.5254
 -12450563.42544  -9701730.55144  22659234.8474   22659236.0764
 96  4 26  3 53  0.0000000  0  7G28G17G 6G23G26G22G21
  -9194765.320 4  -7164750.083 4  22847866.335    22847866.872
 -23883969.87644 -18610863.47944  20606131.6604   20606131.7144
 -15366285.25444 -11973716.65044  21990780.9874   21990780.7954
 -23157821.98644 -18045031.63044  20618857.8464   20618857.4514
  -8167324.44144  -6364140.83444  22380557.8924   22380557.9044
   1279097.71244    996698.33244  23618627.7374   23618629.6304
 -12520824.66344  -9756479.53044  22645864.7504   22645865.8174
 96  4 26  3 53 30.0000000  0  7G28G17G 6G23G26G22G21
  -9286359.612 4  -7236122.218 4  22830436.494    22830436.860
 -23886153.89744 -18612565.29844  20605716.0614   20605716.0294
 -15276246.44844 -11903556.53644  22007914.7954   22007914.5474
 -23166375.45144 -18051696.65144  20617230.1384   20617230.1824
  -8125826.01144  -6331804.39544  22388455.3994   22388455.0194
   1313727.37644   1023682.47044  23625218.2204   23625219.4124
 -12590832.30244  -9811030.89844  22632543.1254   22632543.6934
 96  4 26  3 54  0.0000000  0  7G28G17G 6G23G26G22G21
  -9377677.978 4  -7307279.351 4  22813059.281    22813060.040
 -23888093.54344 -18614076.69844  20605346.8084   20605346.7414
 -15185839.10444 -11833109.26144  22025119.0024   22025118.9014
 -23174510.17844 -18058035.37844  20615682.2854   20615681.8774
  -8083753.18044  -6299020.35644  22396461.3294   22396460.9494
   1348744.67844   1050968.65244  23631880.9424   23631882.2724
 -12660577.41544  -9865377.70044  22619270.7314   22619270.6384
 96  4 26  3 54 30.0000000  0  7G28G17G 6G23G26G22G21
  -9468720.313 4  -7378221.399 4  22795734.443    22795734.897
 -23889793.58344 -18615401.39144  20605023.4954   20605023.5744
 -15095080.32244 -11762388.12944  22042390.1594   22042389.8644
 -23182236.99044 -18064056.25244  20614211.8694   20614211.6724
  -8041100.49544  -6265784.48644  22404578.4014   22404577.3534
   1384149.63144   1078556.92044  23638618.0514   23638619.6814
 -12730054.21844  -9919515.43544  22606050.0404   22606049.9404
 96  4 26  3 55  0.0000000  0  7G28G17G 6G23G26G22G21
  -9559476.559 4  -7448940.500 4  22778464.124    22778464.611
 -23891246.59244 -18616533.59344  20604746.7904   20604746.8674
 -15003967.58644 -11691391.18944  22059728.0594   22059727.9044
 -23189577.33044 -18069775.97944  20612814.9084   20612814.6054
  -7997867.36144  -6232096.32644  22412804.6224   22412804.1774
   1419971.78844   1106470.28544  23645435.5664   23645435.6844
 -12799248.57044  -9973433.06844  22592882.5544   22592882.9644
 96  4 26  3 55 30.0000000  0  7G28G17G 6G23G26G22G21
  -9649950.706 4  -7519439.787 4  22761247.021    22761247.715
 -23892448.12444 -18617469.83944  20604518.4164   20604518.0364
 -14912517.69144 -11620131.52844  22077130.3924   22077130.5314
 -23196545.03744 -18075205.33744  20611489.0524   20611488.8334
  -7954085.79444  -6197980.80444  22421136.0804   22421134.9834
   1456222.12044   1134717.26344  23652332.7794   23652335.1924
 -12868152.34444 -10027124.27844  22579770.4264   22579771.0894
 96  4 26  3 56  0.0000000  0  7G28G17G 6G23G26G22G21
  -9740154.934 4  -7589728.751 4  22744081.689    22744082.304
 -23893439.87044 -18618242.61344  20604329.2984   20604329.2424
 -14820753.63244 -11548627.06044  22094592.7774   22094593.1684
 -23203162.38844 -18080361.69344  20610229.8304   20610229.6664
  -7909778.84544  -6163455.90144  22429567.4814   22429567.1964
   1492894.40744   1163293.07244  23659311.8024   23659312.6334
 -12936782.84044 -10080602.55444  22566710.8484   22566711.1324
 96  4 26  3 56 30.0000000  0  7G28G17G 6G23G26G22G21
  -9830074.044 4  -7659795.533 4  22726971.157    22726971.247
 -23894212.69944 -18618844.80444  20604182.4934   20604182.2384
 -14728646.83244 -11476855.52744  22112119.8794   22112120.2064
 -23209436.61544 -18085250.67744  20609035.9094   20609035.5984
  -7864948.90444  -6128523.47144  22438098.2444   22438097.8574
   1529994.35044   1192202.11444  23666372.4544   23666371.9674
 -13005137.99044 -10133866.26244  22553703.3704   22553703.2374
 96  4 26  3 57  0.0000000  0  7G28G17G 6G23G26G22G21
  -9919731.471 4  -7729658.414 4  22709909.966    22709910.133
 -23894791.40944 -18619295.73344  20604072.2484   20604072.3364
 -14636210.00344 -11404826.82244  22129709.9404   22129709.6334
 -23215399.36544 -18089896.95144  20607901.1264   20607901.0174
  -7819637.69244  -6093216.02044  22446720.7664   22446720.1134
   1567485.79544   1221416.20644  23673505.6864   23673506.1234
 -13073263.54344 -10186951.07344  22540738.7124   22540739.6534
 96  4 26  3 57 30.0000000  0  7G28G17G 6G23G26G22G21
 -10009130.401 4  -7799319.863 4  22692898.000    22692898.217
 -23895186.12544 -18619603.28644  20603997.0634   20603996.9474
 -14543454.18244 -11332549.54944  22147360.7644   22147360.7544
 -23221052.54544 -18094302.00944  20606825.2894   20606824.9854
  -7773847.12944  -6057535.04144  22455434.6184   22455434.3604
   1605348.95744   1250919.96744  23680710.8574   23680711.4054
 -13141172.22944 -10239866.89044  22527815.7464   22527816.1774
 96  4 26  3 58  0.0000000  0  7G28G17G 6G23G26G22G21
 -10098264.034 4  -7868774.608 4  22675936.421    22675937.233
 -23895390.84144 -18619762.79144  20603958.1664   20603958.2184
 -14450372.32244 -11260018.22844  22165074.4334   22165074.5064
 -23226379.67844 -18098452.99944  20605811.6224   20605811.3984
  -7727563.42644  -6021469.80944  22464241.8664   22464241.0174
   1643582.33844   1280712.19344  23687986.5724   23687987.5664
 -13208864.39244 -10292613.99044  22514934.8564   22514935.5354
 96  4 26  3 58 30.0000000  0  7G28G17G 6G23G26G22G21
 -10187118.003 4  -7938011.430 4  22659028.005    22659028.393
 -23895366.49144 -18619743.79744  20603962.9294   20603962.6524
 -14356959.82144 -11187229.26244  22182849.2284   22182848.6674
 -23231363.01144 -18102336.09644  20604863.0564   20604863.1434
  -7680776.34744  -5985012.33444  22473145.3704   22473144.8194
   1682174.77044   1310784.20044  23695331.3304   23695332.3774
 -13276322.28244 -10345178.54444  22502098.1664   22502098.5464
 96  4 26  3 59  0.0000000  0  7G28G17G 6G23G26G22G21
 -10275684.001 4  -8007023.853 4  22642174.051    22642174.156
 -23895104.48544 -18619539.61844  20604012.6954   20604012.3644
 -14263225.85144 -11114189.79644  22200686.6654   22200686.6294
 -23235979.58744 -18105933.41344  20603984.7374   20603984.4624
  -7633452.86544  -5948136.87744  22482150.1914   22482148.8524
   1721127.68944   1341137.12944  23702743.3334   23702744.6944
 -13343529.23944 -10397547.55244  22489309.1524   22489309.6764
 96  4 26  3 59 30.0000000  0  7G28G17G 6G23G26G22G21
 -10363953.002 4  -8075804.851 4  22625376.599    22625377.159
 -23894598.93444 -18619145.66344  20604108.7964   20604108.8744
 -14169174.70944 -11040903.19344  22218584.0414   22218584.0314
 -23240212.88144 -18109232.06644  20603179.0124   20603178.7384
  -7585572.29344  -5910827.33544  22491262.0354   22491260.7374
   1760449.84544   1371777.75944  23710226.6024   23710227.9654
 -13410462.80044 -10449703.53244  22476572.0774   22476572.2854
 96  4 26  4  0  0.0000000  0  7G28G17G 6G23G26G22G21
 -10451942.639 4  -8144368.169 4  22608632.541    22608633.406
 -23893872.05244 -18618579.24944  20604247.1834   20604247.3314
 -14074828.91944 -10967386.98644  22236537.0114   22236536.5474
 -23244077.57444 -18112243.49944  20602443.6694   20602443.3714
  -7537157.37944  -5873101.41144  22500475.0044   22500473.9934
   1800118.87844   1402688.67344  23717775.7484   23717776.0444
 -13477142.37244 -10501661.60144  22463883.6444   22463883.6374
 96  4 26  4  0 30.0000000  0  7G28G17G 6G23G26G22G21
 -10539637.005 4  -8212701.401 4  22591944.995    22591945.839
 -23892912.85444 -18617831.80344  20604429.5254   20604429.7964
 -13980182.33844 -10893636.39744  22254547.3964   22254547.1864
 -23247569.69644 -18114964.61144  20601779.3534   20601779.0354
  -7488189.71144  -5834944.77744  22509793.3574   22509792.7144
   1840141.52444   1433875.15644  23725390.9944   23725392.1814
 -13543558.04844 -10553414.03644  22451245.4104   22451245.7164
 96  4 26  4  1  0.0000000  0  7G28G17G 6G23G26G22G21
 -10627036.421 4  -8280804.796 4  22575313.590    22575314.175
 -23891741.87544 -18616919.33944  20604652.3744   20604652.6284
 -13885233.00544 -10819649.90444  22272616.0164   22272616.0114
 -23250702.05944 -18117405.39544  20601183.1334   20601182.9394
  -7438682.59144  -5796367.78844  22519214.1874   22519212.9864
   1880530.16444   1465346.80344  23733077.1844   23733077.5654
 -13609717.11444 -10604966.51544  22438655.0824   22438655.6754
 96  4 26  4  1 30.0000000  0  7G28G17G 6G23G26G22G21
 -10714134.119 4  -8348673.087 4  22558739.353    22558740.139
 -23890358.50944 -18615841.37644  20604915.5094   20604915.7504
 -13789971.82044 -10745420.39144  22290743.6564   22290743.5574
 -23253496.18244 -18119582.61344  20600651.2454   20600650.9054
  -7388658.26744  -5757387.78244  22528733.3704   22528731.9254
   1921289.48344   1497107.30744  23740833.1034   23740832.9494
 -13675618.26544 -10656318.01944  22426114.2674   22426114.6094
 96  4 26  4  2  0.0000000  0  7G28G17G 6G23G26G22G21
 -10800940.096 4  -8416314.085 4  22542220.802    22542221.741
 -23888770.63244 -18614604.05344  20605217.8504   20605217.8924
 -13694406.47544 -10670953.88944  22308929.2074   22308928.9034
 -23255969.78144 -18121510.07144  20600180.9454   20600180.4224
  -7338142.21244  -5718024.61144  22538345.8994   22538346.2354
   1962402.18244   1529143.18644  23748656.4424   23748657.2274
 -13741282.23544 -10707484.70244  22413618.9444   22413619.7124
 96  4 26  4  2 30.0000000  0  7G28G17G 6G23G26G22G21
 -10887449.852 4  -8483724.251 4  22525758.803    22525759.167
 -23886961.49244 -18613194.31944  20605562.0584   20605562.1914
 -13598533.63944 -10596247.77844  22327172.8444   22327172.7244
 -23258129.52444 -18123192.96744  20599769.7194   20599769.3614
  -7287136.81544  -5678280.11644  22548052.0644   22548050.7764
   2003860.98844   1561448.74544  23756545.6664   23756546.9064
 -13806703.64244 -10758462.38344  22401169.8854   22401170.3384
 96  4 26  4  3  0.0000000  0  7G28G17G 6G23G26G22G21
 -10973644.840 4  -8550889.133 4  22509356.143    22509356.727
 -23884901.18244 -18611588.87144  20605954.2134   20605954.2354
 -13502325.76844 -10521280.59044  22345480.9214   22345481.1064
 -23259956.84244 -18124616.83444  20599421.9814   20599421.8634
  -7235638.13344  -5638151.25944  22557851.6444   22557851.7654
   2045685.13744   1594038.98044  23764503.5144   23764505.3494
 -13871864.21444 -10809236.80444  22388770.1854   22388770.7674
 96  4 26  4  3 30.0000000  0  7G28G17G 6G23G26G22G21
 -11059542.795 4  -8617822.573 4  22493009.992    22493010.583
 -23882596.08744 -18609792.68244  20606392.4144   20606392.6064
 -13405804.76244 -10446069.41544  22363848.2374   22363848.2474
 -23261446.55644 -18125777.63144  20599138.3704   20599138.0214
  -7183654.35644  -5597644.41144  22567744.2384   22567743.5614
   2087847.48744   1626892.74844  23772526.6084   23772528.8804
 -13936787.85344 -10859826.60544  22376415.1354   22376415.9884
 96  4 26  4  4  0.0000000  0  7G28G17G 6G23G26G22G21
 -11145128.552 4  -8684512.749 4  22476723.467    22476724.275
 -23880021.98944 -18607786.87744  20606882.7004   20606882.3764
 -13308959.99544 -10370605.95944  22382276.8994   22382276.2964
 -23262560.35444 -18126645.50044  20598926.5504   20598926.0294
  -7131160.59244  -5556740.16144  22577733.5624   22577732.8354
   2130365.31744   1660023.52944  23780618.7184   23780620.7674
 -14001458.65444 -10910219.39644  22364108.9364   22364109.6294
 96  4 26  4  4 30.0000000  0  7G28G17G 6G23G26G22G21
 -11230381.840 4  -8750943.852 4  22460500.291    22460501.132
 -23877166.65444 -18605561.92344  20607425.8964   20607425.6754
 -13211784.53444 -10294884.81444  22400769.7334   22400770.2774
 -23263276.33944 -18127203.38844  20598790.4784   20598790.0454
  -7078139.36444  -5515424.91444  22587823.0674   22587821.7324
   2173261.14344   1693448.84344  23788781.9144   23788783.4554
 -14065854.28044 -10960397.76644  22351855.0294   22351855.5564
 96  4 26  4  5  0.0000000  0  7G28G17G 6G23G26G22G21
 -11315310.876 4  -8817122.282 4  22444338.997    22444339.891
 -23874057.50644 -18603139.19544  20608017.5274   20608017.1564
 -13114291.32644 -10218916.06444  22419321.6564   22419320.9334
 -23263590.93444 -18127448.51144  20598730.6194   20598730.1204
  -7024598.90544  -5473705.05044  22598010.9604   22598010.1484
   2216532.17444   1727166.53044  23797016.4244   23797015.9784
 -14129990.48744 -11010373.98844  22339650.2304   22339650.8584
 96  4 26  4  5 30.0000000  0  7G28G17G 6G23G26G22G21
 -11399910.998 4  -8883044.412 4  22428240.123    22428241.346
 -23870716.37844 -18600535.70744  20608653.4894   20608653.3254
 -13016494.07744 -10142710.41844  22437931.7964   22437931.4704
 -23263514.46244 -18127388.90644  20598744.8704   20598744.5904
  -6970537.67044  -5431579.39544  22608298.6214   22608298.1844
   2260169.70544   1761169.82544  23805319.6904   23805320.9174
 -14193858.85044 -11060141.50044  22327496.6624   22327496.8334
 96  4 26  4  6  0.0000000  0  7G28G17G 6G23G26G22G21
 -11484177.755 4  -8948706.788 4  22412204.964    22412205.320
 -23867154.14044 -18597759.92144  20609331.3814   20609331.0644
 -12918399.14044 -10066272.79844  22456599.0804   22456598.3344
 -23263076.28544 -18127047.45144  20598828.1914   20598827.8884
  -6915976.14144  -5389063.90244  22618681.3314   22618680.8774
   2304162.99544   1795450.29844  23813690.3804   23813691.4344
 -14257453.74044 -11109695.92744  22315394.4064   22315395.7384
 96  4 26  4  6 30.0000000  0  7G28G17G 6G23G26G22G21
 -11568105.644 4  -9014105.102 4  22396234.095    22396234.186
 -23863381.64944 -18594820.30444  20610048.9604   20610048.7534
 -12820010.75444  -9989606.50544  22475321.0844   22475321.3354
 -23262291.67044 -18126436.03544  20598977.5344   20598976.9804
  -6860926.77944  -5346168.29344  22629157.1804   22629156.0674
   2348497.63444   1829996.78244  23822127.4834   23822128.7404
 -14320780.33544 -11159041.28444  22303343.8934   22303344.5044
 96  4 26  4  7  0.0000000  0  7G28G17G 6G23G26G22G21
 -11651678.467 4  -9079226.755 4  22380330.604    22380330.793
 -23859379.86444 -18591702.01644  20610810.6094   20610810.2864
 -12721313.46644  -9912699.53444  22494102.7744   22494103.0934
 -23261162.63144 -18125556.24444  20599192.3924   20599192.3594
  -6805368.00044  -5302875.72144  22639729.5054   22639728.3414
   2393181.10044   1864815.03544  23830630.4964   23830631.4894
 -14383828.94644 -11208170.03344  22291346.2224   22291346.8474
 96  4 26  4  7 30.0000000  0  7G28G17G 6G23G26G22G21
 -11734910.573 4  -9144082.908 4  22364491.870    22364492.364
 -23855145.31644 -18588402.35344  20611616.4474   20611616.0974
 -12622334.57944  -9835573.11444  22512937.4634   22512937.1984
 -23259721.95144 -18124433.62644  20599466.5834   20599466.3234
  -6749320.73444  -5259202.50444  22650395.0874   22650394.2194
   2438193.04944   1899889.30344  23839196.4864   23839197.0744
 -14446613.40044 -11257092.94344  22279398.3994   22279398.8204
 96  4 26  4  8  0.0000000  0  7G28G17G 6G23G26G22G21
 -11817791.596 4  -9208665.491 4  22348719.827    22348720.826
 -23850650.67244 -18584900.02044  20612471.7254   20612471.5234
 -12523062.14144  -9758217.94744  22531828.0924   22531827.4194
 -23257941.29044 -18123046.08044  20599805.4154   20599804.9824
  -6692767.99344  -5215135.43144  22661156.5824   22661156.1044
   2483552.16444   1935234.05044  23847829.0834   23847829.3924
 -14509135.46844 -11305811.40444  22267501.3934   22267501.8704
 96  4 26  4  8 30.0000000  0  7G28G17G 6G23G26G22G21
 -11900324.759 4  -9272977.019 4  22333014.261    22333015.235
 -23845895.15744 -18581194.41344  20613376.5664   20613376.4454
 -12423503.86444  -9680640.06044  22550774.0564   22550774.0044
 -23255812.88244 -18121387.56144  20600210.3534   20600210.0224
  -6635695.36144  -5170663.23644  22672017.1204   22672017.5134
   2529260.51544   1970850.94344  23856526.1604   23856525.8684
 -14571398.94144 -11354328.36244  22255652.8424   22255653.2294
 96  4 26  4  9  0.0000000  0  8G28G17G 6G 1G23G26G22G21
 -11982479.217 4  -9336993.438 4  22317381.028    22317381.579
 -23840836.64744 -18577252.70744  20614339.2794   20614338.8764
 -12323631.44344  -9602817.39444  22569779.0534   22569778.7404
        -0.73454         0.31354  25203433.1344   25203428.2154
 -23253299.89544 -18119429.37344  20600688.5084   20600688.0314
  -6578070.24644  -5125760.54744  22682983.3504   22682982.2144
   2575342.91244   2006759.28644  23865296.0164   23865295.9734
 -14633369.90044 -11402617.37644  22243859.8114   22243860.4084
 96  4 26  4  9 30.0000000  0  8G28G17G 6G 1G23G26G22G21
 -12064308.214 4  -9400756.247 4  22301809.334    22301810.002
 -23835537.31344 -18573123.34244  20615347.6064   20615347.2914
 -12223493.10644  -9524787.50044  22588835.4804   22588835.0074
   -110211.63544    -85878.27944  25182461.6114
 -23250446.86644 -18117206.21344  20601231.3734   20601230.7824
  -6519962.66144  -5080481.90244  22694040.5184   22694040.3704
   2621739.20744   2042912.24944  23874124.1054   23874123.7334
 -14695101.77544 -11450720.09644  22232112.7344   22232113.2364
 96  4 26  4 10  0.0000000  0  8G28G17G 6G 1G23G26G22G21
 -12145824.114 4  -9464275.100 4  22286297.385    22286297.838
 -23830022.59944 -18568826.14644  20616397.0204   20616396.7024
 -12123098.77644  -9446558.13344  22607939.6604   22607939.2794
   -220509.64944                  25161471.9014
 -23247269.77444 -18114730.54644  20601835.9864   20601835.7694
  -6461398.03144  -5034847.10944  22705184.8764   22705184.3654
   2668426.60844   2079292.04044  23883008.5924   23883011.2094
 -14756615.80544 -11498653.07244  22220407.4054   22220408.0054
 96  4 26  4 10 30.0000000  0  8G28G17G 6G 1G23G26G22G21
 -12226990.401 4  -9527521.523 4  22270851.852    22270852.535
 -23824257.78144 -18564334.06744  20617494.1254   20617493.7114
 -12022423.52144  -9368109.87944  22627097.3174   22627096.9594
   -330844.79444   -257800.27444  25140474.7074
 -23243750.17344 -18111987.98644  20602505.8494   20602505.3764
  -6402355.90744  -4988840.23544  22716420.3774   22716418.9974
   2715426.16644   2115915.06944  23891951.8254   23891952.6974
 -14817871.64044 -11546384.85644  22208750.5734   22208750.8894
 96  4 26  4 11  0.0000000  0  8G28G17G 6G 1G23G26G22G21
 -12307794.561 4  -9590485.759 4  22255475.594    22255476.335
 -23818231.70144 -18559638.40644  20618640.6054   20618640.3724
 -11921456.16444  -9289433.99944  22646310.3024   22646310.3944
   -441196.42444   -343788.52444  25119476.1604
 -23239889.90844 -18108979.97144  20603240.2604   20603239.9124
  -6342836.45244  -4942461.42144  22727746.7414   22727745.7284
   2762745.71544   2152787.43944  23900955.8114   23900957.4844
 -14878858.38244 -11593906.94744  22197145.3624   22197145.6114
 96  4 26  4 11 30.0000000  0  8G28G17G 6G 1G23G26G22G21
 -12388237.974 4  -9653168.898 4  22240167.543    22240168.448
 -23811953.57544 -18554746.34744  20619835.4284   20619835.2794
 -11820204.36044  -9210536.48144  22665577.9704   22665577.8794
   -551576.09744                  25098471.7124
 -23235705.45344 -18105719.34544  20604036.7274   20604036.3864
  -6282834.24644  -4895706.44544  22739164.7854   22739164.0114
   2810392.80344   2189915.02944  23910023.3544   23910026.1614
 -14939586.42644 -11641227.46344  22185588.2684   22185589.0614
 96  4 26  4 12  0.0000000  0  8G28G17G 6G 1G23G26G22G21
 -12468317.382 4  -9715568.398 4  22224928.831    22224929.772
 -23805417.69944 -18549653.44344  20621079.4084   20621079.1484
 -11718687.82344  -9131432.65944  22684895.5564   22684895.3044
   -662005.40944   -515847.48444  25077457.9594   25077460.9814
 -23231199.64444 -18102208.30744  20604894.2724   20604893.6684
  -6222344.67644  -4848571.71244  22750674.9424   22750674.3934
   2858358.80144   2227291.13944  23919151.7494   23919152.9844
 -15000054.58244 -11688345.46944  22174081.9324   22174081.4604
 96  4 26  4 12 30.0000000  0  8G28G17G 6G 1G23G26G22G21
 -12548032.375 4  -9777683.931 4  22209759.510    22209760.316
 -23798632.31044 -18544366.11144  20622370.2194   20622370.1454
 -11616914.18244  -9052128.52744  22704262.5414   22704261.8384
   -772504.08944   -601950.32544  25056430.4044
 -23226367.81644 -18098443.22644  20605813.6054   20605813.1014
  -6161355.45844  -4801047.61844  22762281.2704   22762280.4394
   2906633.80244   2264908.03744  23928338.5464   23928339.0874
 -15060248.93444 -11735250.11644  22162627.1224   22162627.3704
 96  4 26  4 13  0.0000000  0  8G28G17G 6G 1G23G26G22G21
 -12627378.602 4  -9839512.130 4  22194660.013    22194661.172
 -23791603.39444 -18538889.02444  20623707.8264   20623707.9374
 -11514881.16544  -8972622.28344  22723679.2354   22723679.5624
   -883080.81644   -688113.93744  25035387.7934
 -23221200.68344 -18094416.87344  20606796.6694   20606796.4844
  -6099858.84744  -4753128.16844  22773983.3924   22773983.1084
   2955219.80144   2302767.24844  23937583.6734   23937584.7364
 -15120172.42344 -11781943.70444  22151224.4284   22151224.2374
 96  4 26  4 13 30.0000000  0  8G28G17G 6G 1G23G26G22G21
 -12706366.776 4  -9901061.332 4  22179629.215    22179630.150
 -23784346.69144 -18533234.43844  20625088.7674   20625088.6354
 -11412607.79944  -8892928.73844  22743141.0644   22743140.7244
   -993767.49244   -774363.25444  25014325.4604
 -23215698.46044 -18090129.41444  20607843.9154   20607843.3864
  -6037881.12344  -4704833.83344  22785776.6164   22785775.2614
   3004100.65644   2340856.24344  23946885.8074   23946886.1604
 -15179837.87744 -11828436.22844  22139870.1964   22139870.2754
 96  4 26  4 14  0.0000000  0  8G28G17G 6G 1G23G26G22G21
 -12784988.589 4  -9962325.034 4  22164668.372    22164668.861
 -23776856.19744 -18527397.68144  20626514.1614   20626513.9824
 -11310093.03844  -8813047.09944  22762648.6974   22762648.8894
  -1104557.59944                  24993244.0204
 -23209850.14544 -18085572.26444  20608956.7024   20608956.2884
  -5975429.77144  -4656170.41144  22797661.9624   22797660.6244
   3053274.03944   2379173.16544  23956242.5534   23956244.6984
 -15239228.25244 -11874714.39144  22128568.9574   22128568.5694
 96  4 26  4 14 30.0000000  0  8G28G17G 6G 1G23G26G22G21
 -12863238.716 4 -10023299.113 4  22149777.370    22149778.671
 -23769128.59744 -18521376.16344  20627984.4834   20627984.5444
 -11207322.32144  -8732966.02044  22782205.5534   22782205.0904
  -1215427.44544   -947085.28344  24972146.2614   24972147.2584
 -23203662.19944 -18080750.47344  20610134.1854   20610134.0234
  -5912512.48344  -4607143.94544  22809633.9644   22809633.8004
   3102755.65844   2417730.27644  23965658.1644   23965657.6924
 -15298346.64944 -11920780.64044  22117318.7244   22117318.9054
 96  4 26  4 15  0.0000000  0  8G28G17G 6G 1G23G26G22G21
 -12941111.623 4 -10083979.273 4  22134958.852    22134959.954
 -23761149.11244 -18515158.37744  20629502.8114   20629502.7484
 -11104287.11944  -8652678.84944  22801813.1094   22801812.6134
  -1326358.90944                  24951034.7294
 -23197146.52044 -18075673.30244  20611374.0764   20611373.6514
  -5849144.17844  -4557766.02944  22821692.9794   22821692.4794
   3152559.28644   2456538.31144  23975135.2474   23975138.0974
 -15357203.95144 -11966643.43644  22106118.4854   22106119.2054
 96  4 26  4 15 30.0000000  0  8G28G17G 6G 1G23G26G22G21
 -13018601.924 4 -10144361.302 4  22120213.046    22120213.744
 -23752908.76644 -18508737.32144  20631071.2944   20631071.3114
 -11000975.40744  -8572176.21344  22821471.6524   22821471.9214
  -1437328.26144                  24929916.3794
 -23190311.33744 -18070347.16744  20612674.4384   20612674.0904
  -5785323.32244  -4508035.46444  22833837.5054   22833836.7414
   3202683.34444   2495596.05944  23984673.0894   23984673.6034
 -15415798.30844 -12012301.33344  22094968.4644   22094969.0934
 96  4 26  4 16  0.0000000  0  8G28G17G 6G 1G23G26G22G21
 -13095729.230 4 -10204460.464 4  22105536.122    22105536.444
 -23744434.02144 -18502133.61344  20632683.5684   20632683.6684
 -10897408.42044  -8491474.66444  22841180.2394   22841180.0824
  -1548322.21044                  24908795.8264
 -23183193.86144 -18064801.06844  20614029.0954   20614028.7014
  -5721066.34744  -4457965.07844  22846065.2014   22846065.3944
   3253088.59044   2534872.89044  23994265.7734   23994266.6094
 -15474154.53944 -12057773.68244  22083863.6364   22083863.9344
 96  4 26  4 16 30.0000000  0  8G28G17G 6G 1G23G26G22G21
 -13172467.055 4 -10264256.140 4  22090933.381    22090933.828
 -23735700.96344 -18495328.62444  20634345.5064   20634345.3164
 -10793560.45044  -8410554.17044  22860941.9384   22860942.0924
  -1659302.02344                  24887678.5034
 -23175773.24544 -18059018.75544  20615441.2204   20615440.7534
  -5656358.89144  -4407543.68544  22858378.1044   22858376.9004
   3303797.43044   2574386.29944  24003915.6884   24003915.8774
 -15532257.31944 -12103048.53144  22072806.8664   22072807.6454
 96  4 26  4 17  0.0000000  0  8G28G17G 6G 1G23G26G22G21
 -13248823.146 4 -10323754.362 4  22076403.106    22076403.913
 -23726712.68044 -18488324.75844  20636056.1604   20636055.8594
 -10689452.15144  -8329430.83144  22880752.7494   22880753.3164
  -1770282.13844  -1379439.45644  24866559.8454
 -23168050.87444 -18053001.30744  20616910.8344   20616910.2254
  -5591199.15344  -4356769.84244  22870777.6564   22870776.5754
   3354777.86144   2614111.32844  24013615.9814   24013617.9864
 -15590115.53244 -12148132.82044  22061797.2714   22061797.0134
 96  4 26  4 17 30.0000000  0  8G28G17G 6G 1G23G26G22G21
 -13324796.536 4 -10382954.381 4  22061945.678    22061947.000
 -23717481.20344 -18481131.38644  20637812.7784   20637812.5114
 -10585097.08744  -8248115.16244  22900611.2854   22900611.3694
  -1881261.91044                  24845440.4744
 -23160020.42444 -18046743.79644  20618438.8814   20618438.2984
  -5525586.88544  -4305643.39444  22883263.6124   22883262.1524
   3406021.07944   2654041.11144  24023367.7054   24023370.7284
 -15647728.88244 -12193026.30244  22050833.6114   22050833.4164
 96  4 26  4 18  0.0000000  0  8G28G17G 6G 1G23G26G22G21
 -13400370.609 4 -10441843.240 4  22047564.472    22047565.552
 -23707991.19444 -18473736.56744  20639618.5464   20639618.5064
 -10480500.73344  -8166611.50644  22920514.8394   22920514.6274
  -1992237.12844                  24824322.2164
 -23151666.38944 -18040234.14244  20620028.4694   20620027.9494
  -5459514.10444  -4254158.10144  22895836.5194   22895836.3614
   3457540.79244   2694186.34544  24033171.3794   24033175.1134
 -15705088.54544 -12237722.10544  22039918.5004   22039918.6554
 96  4 26  4 18 30.0000000  0  8G28G17G 6G 1G23G26G22G21
 -13475541.366 4 -10500417.818 4  22033259.946    22033261.099
 -23698232.27944 -18466132.20844  20641475.7164   20641475.7564
 -10375660.37844  -8084917.72444  22940465.2574   22940464.6744
  -2103230.27644  -1638879.53044  24803202.4404   24803201.0034
 -23142971.37044 -18033458.78744  20621683.2244   20621682.7024
  -5392969.93544  -4202305.49344  22908499.7264   22908498.8574
   3509345.62244   2734553.74144  24043029.7794   24043030.1804
 -15762199.40344 -12282224.04444  22029050.3024   22029050.3544
 96  4 26  4 19  0.0000000  0  8G28G17G 6G 1G23G26G22G21
 -13550303.329 4 -10558673.870 4  22019033.137    22019034.191
 -23688211.14944 -18458323.52444  20643382.5604   20643382.2924
 -10270580.20444  -8003037.06944  22960461.8104   22960461.8444
  -2214249.68644                  24782076.3954
 -23133927.53344 -18026411.62844  20623404.0244   20623403.7794
  -5325937.73544  -4150072.59244  22921255.2634   22921253.6664
   3561444.87244   2775150.56944  24052943.8734   24052943.8664
 -15819051.67244 -12326524.47844  22018231.4344   22018231.8944
 96  4 26  4 19 30.0000000  0  8G28G17G 6G 1G23G26G22G21
 -13624675.045 4 -10616625.822 4  22004880.711    22004881.494
 -23677961.54544 -18450336.81044  20645333.1664   20645332.9154
 -10165284.69844  -7920988.62044  22980498.5114   22980497.8204
  -2325331.70144  -1811945.47344  24760937.2574
 -23124561.82544 -18019113.66044  20625186.3424   20625185.8734
  -5258448.43844  -4097483.49044  22934098.2664   22934097.3104
   3613834.50644   2815973.71644  24062914.0474   24062915.9354
 -15875656.60444 -12370632.18544  22007460.0044   22007460.5614
 96  4 26  4 20  0.0000000  0  8G28G17G 6G 1G23G26G22G21
 -13698645.548 4 -10674265.148 4  21990804.419    21990805.485
 -23667469.79544 -18442161.41044  20647329.8184   20647329.5004
 -10059767.79344  -7838767.63944  23000576.9814   23000577.3134
  -2436473.61344  -1898549.55744  24739788.3524   24739788.6064
 -23114862.37444 -18011555.63244  20627032.1774   20627031.6454
  -5190494.05044  -4044532.01244  22947029.5594   22947028.3154
   3666513.72744   2857022.49644  24072937.7224   24072938.7534
 -15931999.58344 -12414535.77144  21996738.2044   21996738.3154
 96  4 26  4 20 30.0000000  0  8G28G17G 6G 1G23G26G22G21
 -13772216.802 4 -10731593.379 4  21976804.438    21976805.211
 -23656741.13044 -18433801.40644  20649371.2414   20649371.0274
  -9954040.10244  -7756382.41444  23020697.1704   23020697.7904
  -2547685.96644  -1985208.51044  24718624.9174
 -23104829.76544 -18003738.00044  20628941.2034   20628940.7774
  -5122092.89844  -3991232.39944  22960046.0604   22960045.7004
   3719474.71344   2898290.78344  24083016.0204   24083018.2484
 -15988068.86544 -12458226.08344  21986068.4394   21986068.7644
 96  4 26  4 21  0.0000000  0  8G28G17G 6G 1G23G26G22G21
 -13845391.729 4 -10788612.772 4  21962879.631    21962880.589
 -23645778.45444 -18425259.05344  20651457.2374   20651457.2484
  -9848116.90744  -7673844.86044  23040853.1454   23040853.2644
  -2658968.30744  -2071922.03144  24697448.4434
 -23094492.90944 -17995683.29644  20630908.2804   20630907.7714
  -5053273.81044  -3937607.13844  22973141.6264   22973141.4704
   3772714.58044   2939776.41344  24093147.9434   24093147.5704
 -16043855.85244 -12501696.42844  21975452.1704   21975452.4764
 96  4 26  4 21 30.0000000  0  8G28G17G 6G 1G23G26G22G21
 -13918159.394 4 -10845314.823 4  21949032.438    21949033.215
 -23634558.31544 -18416516.07744  20653592.3594   20653592.0744
  -9741994.31644  -7591151.93344  23061048.0414   23061048.5864
  -2770289.23844  -2158665.60344  24676264.2624   24676265.9974
 -23083853.72144 -17987393.00344  20632932.7904   20632932.1474
  -4984052.84744  -3883668.71544  22986314.2664   22986313.1374
   3826214.46244   2981464.65044  24103327.6234   24103328.4174
 -16099362.54444 -12544948.36244  21964889.6184   21964889.5224
 96  4 26  4 22  0.0000000  0  8G28G17G 6G 1G23G26G22G21
 -13990518.452 4 -10901698.480 4  21935262.966    21935263.744
 -23623064.20544 -18407559.61444  20655779.7574   20655779.4404
  -9635677.02044  -7508307.29144  23081279.3884   23081279.6444
  -2881621.87444  -2245418.27344  24655078.8414   24655081.3324
 -23072911.93944 -17978866.92244  20635014.6274   20635014.3074
  -4914439.86444  -3829424.83944  22999561.2804   22999560.0274
   3879952.30844   3023338.32144  24113554.2654   24113555.6024
 -16154597.91344 -12587988.87944  21954378.6714   21954378.8544
 96  4 26  4 22 30.0000000  0  7G28G17G 6G 1G23G26G21
 -14062457.443 4 -10957754.816 4  21921573.592    21921574.219
 -23611289.79944 -18398384.74244  20658020.3444   20658019.9264
  -9529147.66244  -7425297.40244  23101551.7084   23101552.0484
  -2992952.72244  -2332169.56144  24633893.2414   24633894.9724
 -23061666.42144 -17970104.16444  20637154.7194   20637154.4234
  -4844429.02244  -3774870.92244  23012883.7524   23012882.4944
 -16209550.43244 -12630808.99144  21943922.1964   21943921.8724
 96  4 26  4 23  0.0000000  0  7G28G17G 6G 1G23G26G21
 -14133961.382 4 -11013472.148 4  21907966.868    21907967.494
 -23599220.54644 -18388980.12444  20660316.7854   20660316.3124
  -9422374.84844  -7342097.78844  23121869.2944   23121870.2544
  -3104251.24744  -2418895.65444  24612714.2924   24612717.4814
 -23050114.65344 -17961102.76844  20639353.0874   20639352.7104
  -4773989.67344  -3719983.08644  23026287.8034   23026285.8964
 -16264221.98944 -12673410.17344  21933518.0774   21933518.5674
 96  4 26  4 23 30.0000000  0  7G28G17G 6G 1G23G26G21
 -14205000.885 4 -11068827.585 4  21894448.290    21894449.387
 -23586832.41044 -18379327.02244  20662674.4084   20662673.9504
  -9315329.17344  -7258685.57044  23142238.7934   23142239.1374
  -3215479.66444  -2505567.14444  24591548.7744   24591547.0904
 -23038221.18144 -17951835.11244  20641616.2994   20641615.7474
  -4703076.25844  -3664725.85044  23039782.5184   23039781.3314
 -16318591.01644 -12715775.61644  21923172.0684   21923172.3504
 96  4 26  4 24  0.0000000  0  7G28G 6G17G 1G23G26G21
 -14275596.854 4 -11123837.408 4  21881014.008    21881015.259
  -9208024.99344  -7175071.94144  23162658.4934   23162658.6194
 -23574153.00344 -18369446.95744  20665087.0314   20665086.7014
  -3326676.93644  -2592214.33144  24570387.9744   24570385.8524
 -23026008.48644 -17942318.70744  20643940.6484   20643940.1064
  -4631685.03944  -3609096.30844  23053366.9664   23053366.0594
 -16372673.06544 -12757917.43944  21912880.5884   21912880.9424
 96  4 26  4 24 30.0000000  0  7G28G17G 6G 1G23G26G21
 -14345761.070 4 -11178510.802 4  21867662.220    21867663.394
 -23561209.56944 -18359361.15344  20667550.3494   20667550.2014
  -9100462.84444  -7091257.28244  23183126.8814   23183126.3834
  -3437859.14544  -2678849.79744  24549229.5874   24549226.6364
 -23013505.93444 -17932576.44444  20646319.3614   20646319.0084
  -4559819.17844  -3553096.92644  23067043.0004   23067042.2504
 -16426492.54244 -12799854.66244  21902639.2094   21902639.1494
 96  4 26  4 25  0.0000000  0  7G28G17G 6G 1G23G26G21
 -14415503.599 4 -11232855.607 4  21854390.753    21854391.873
 -23547999.81444 -18349067.82544  20670063.9544   20670063.7204
  -8992673.68444  -7007265.73644  23203638.7824   23203638.3124
  -3549033.12244  -2765478.84844  24528073.4704
 -23000729.16144 -17922620.50444  20648750.6984   20648750.2774
  -4487489.07444  -3496735.79644  23080807.2074   23080805.6584
 -16480071.83044 -12841604.72344  21892443.1764   21892443.4164
 96  4 26  4 25 30.0000000  0  7G28G17G 6G 1G23G26G21
 -14484792.580 4 -11286847.005 4  21841205.695    21841206.708
 -23534498.83044 -18338547.57044  20672632.9184   20672632.7914
  -8884648.69144  -6923090.43344  23224195.8594   23224194.7224
  -3660175.15344  -2852083.03444  24506924.2634   24506923.6584
 -22987639.79044 -17912420.98144  20651241.4554   20651240.8674
  -4414689.77144  -3440009.07444  23094659.7034   23094658.7884
 -16533377.59344 -12883141.64644  21882299.2404   21882299.3074
 96  4 26  4 26  0.0000000  0  7G28G17G 6G 1G23G26G21
 -14553649.749 4 -11340501.918 4  21828102.540    21828103.409
 -23520742.76844 -18327828.55544  20675250.6714   20675250.2554
  -8776415.94744  -6838753.21344  23244791.3014   23244791.4994
  -3771315.29644  -2938685.70444  24485775.9834   24485775.3954
 -22974256.41944 -17901992.36944  20653788.2914   20653787.8964
  -4341466.86044  -3382952.26844  23108593.4884   23108592.8924
 -16586433.32444 -12924483.74344  21872203.5904   21872203.9034
 96  4 26  4 26 30.0000000  0  7G28G17G 6G 1G23G26G21
 -14622156.453 4 -11393883.740 4  21815066.029    21815066.981
 -23506819.56644 -18316979.30144  20677900.2354   20677900.0924
  -8668077.62844  -6754333.72444  23265407.5824   23265407.9404
  -3882537.00744  -3025351.97944  24464611.5154   24464613.8244
 -22960659.73244 -17891397.54044  20656375.7364   20656375.2634
  -4267928.69444  -3325649.79544  23122587.9994   23122586.5814
 -16639316.25944 -12965691.19144  21862140.3014   21862140.4844
 96  4 26  4 27  0.0000000  0  7G28G 6G17G 1G23G26G21
 -14690244.983 4 -11446939.727 4  21802109.169    21802110.328
  -8559593.96944  -6669800.97744  23286051.5544   23286051.1354
 -23492658.71544 -18305944.86144  20680594.7374   20680594.5184
  -3993774.78844  -3112030.74344  24443443.5044   24443447.4484
 -22946766.63044 -17880571.73144  20659019.4694   20659018.9984
  -4194023.84544  -3268061.58944  23136651.6584   23136651.3604
 -16691940.38744 -13006696.97444  21852126.4694   21852126.2014
 96  4 26  4 27 30.0000000  0  7G28G17G 6G 1G23G26G21
 -14757899.773 4 -11499657.731 4  21789234.799    21789235.929
 -23478266.94244 -18294730.48344  20683333.6104   20683333.0574
  -8450937.23444  -6585133.40344  23306728.8554   23306728.6534
  -4105008.34044  -3198706.19844  24422275.6084   24422278.1154
 -22932563.46944 -17869504.32344  20661721.9694   20661721.5934
  -4119739.78044  -3210177.89544  23150786.8654   23150786.3904
 -16744288.28344 -13047487.51044  21842164.6614   21842165.0184
 96  4 26  4 28  0.0000000  0  7G28G 6G17G 1G23G26G21
 -14825112.300 4 -11552031.093 4  21776444.810    21776445.715
  -8342101.95644  -6500326.69344  23327438.8394   23327439.3724
 -23463624.66744 -18283320.90944  20686119.7514   20686119.5144
  -4216214.51444  -3285360.31044  24401114.0884   24401116.4554
 -22918054.20544 -17858198.39244  20664483.1534   20664482.7654
  -4045052.86344  -3151980.28444  23164999.2544   23164998.7524
 -16796352.90244 -13088057.31744  21832256.9824   21832257.0004
 96  4 26  4 28 30.0000000  0  7G28G17G 6G 1G23G26G21
 -14891865.137 4 -11604046.271 4  21763742.052    21763743.051
 -23448692.75544 -18271685.64544  20688961.1414   20688960.7594
  -8233078.92244  -6415373.70444  23348184.8654   23348185.0804
  -4327365.62744  -3371971.53544  24379961.9514   24379962.9264
 -22903231.44344 -17846648.17844  20667303.7794   20667303.4024
  -3969927.38044  -3093440.91944  23179295.0894   23179294.2144
 -16848123.20344 -13128397.78244  21822405.4724   21822405.3084
 96  4 26  4 29  0.0000000  0  8G28G17G 6G 1G23G26G 9G21
 -14958146.565 4 -11655694.124 4  21751128.964    21751130.004
 -23433454.17544 -18259811.41644  20691861.4014   20691861.1224
  -8123848.35044  -6330258.97044  23368971.0764   23368971.5674
  -4438441.38444  -3458524.06044  24358825.0694   24358824.7734
 -22888087.40944 -17834847.62844  20670185.6944   20670185.3184
  -3894343.40744  -3034544.30644  23193678.8234   23193678.8704
        -1.17854                  25068901.8554
 -16899598.94644 -13168508.71944  21812609.6774   21812609.9334
 96  4 26  4 29 30.0000000  0  8G28G17G 6G 1G23G26G 9G21
 -15023982.438 4 -11706994.786 4  21738600.820    21738601.917
 -23417935.99044 -18247719.32444  20694814.1064   20694813.9884
  -8014431.65344  -6244999.17644  23389792.6174   23389793.0184
  -4549482.67344  -3545049.70144  24337695.4754   24337695.3654
 -22872658.38144 -17822824.99244  20673121.7694   20673121.3434
  -3818330.29044  -2975313.29744  23208143.1474   23208142.5634
    -61149.79544                  25057263.7214
 -16950823.64844 -13208424.04844  21802861.9124   21802861.9714
 96  4 26  4 30  0.0000000  0  8G28G17G 6G 1G23G26G 9G21
 -15089382.806 4 -11757956.085 4  21726155.734    21726156.945
 -23402139.14444 -18235410.09144  20697820.1354   20697819.9744
  -7904849.89044  -6159610.77144  23410644.3084   23410643.7964
  -4660515.68044  -3631568.89444  24316566.7264   24316565.6464
 -22856961.89344 -17810593.94544  20676108.7004   20676108.3234
  -3741913.65144  -2915767.86344  23222684.4564   23222683.9834
   -122198.81244                  25045646.6814
 -17001816.11544 -13248158.41244  21793158.2504   21793158.7364
 96  4 26  4 30 30.0000000  0  8G28G17G 6G 1G23G26G 9G21
 -15154336.417 4 -11808569.268 4  21713795.395    21713796.589
 -23386068.75644 -18222887.70144  20700878.4894   20700878.0754
  -7795086.09144  -6074080.52544  23431532.5964   23431531.4844
  -4771549.49144  -3718088.70444  24295438.1374   24295440.8144
 -22840991.62644 -17798149.57844  20679147.4724   20679146.9894
  -3665104.09644  -2855916.27744  23237302.0194   23237301.0944
   -183148.01444                  25034048.1354
 -17052567.16344 -13287704.65744  21783501.1704   21783500.9114
 96  4 26  4 31  0.0000000  0  8G28G17G 6G 1G23G26G 9G21
 -15218838.442 4 -11858830.569 4  21701521.005    21701522.013
 -23369737.17644 -18210161.78944  20703986.0274   20703985.7464
  -7685128.94344  -5988399.62144  23452455.7134   23452455.3854
  -4882589.14744  -3804613.10244  24274307.2474   24274306.7184
 -22824750.18044 -17785493.89444  20682238.4194   20682237.7384
  -3587924.81444  -2795776.55844  23251988.2114   23251987.5814
   -243987.31344                  25022471.5744
 -17103073.91244 -13327060.53944  21773889.7194   21773889.3784
 96  4 26  4 31 30.0000000  0  8G28G17G 6G 1G23G26G 9G21
 -15282887.428 4 -11908738.853 4  21689333.101    21689333.772
 -23353145.71644 -18197233.36644  20707143.2934   20707143.0854
  -7574979.81744  -5902569.14044  23473417.5894   23473417.5894
  -4993632.51444  -3891140.36144  24253176.5144   24253177.8334
 -22808241.04644 -17772629.62644  20685379.7514   20685379.3544
  -3510386.46944  -2735357.05244  23266743.4334   23266742.0514
   -304714.74544                  25010915.0754
 -17153335.89644 -13366225.69144  21764325.0954   21764325.1624
 96  4 26  4 32  0.0000000  0  8G28G17G 6G 1G23G26G 9G21
 -15346474.193 4 -11958286.961 4  21677232.803    21677233.882
 -23336290.93144 -18184099.76044  20710350.8484   20710350.6164
  -7464637.22444  -5816587.88744  23494414.5674   23494412.2424
  -5104642.34144  -3977641.50644  24232051.5774   24232052.1554
 -22791463.03944 -17759555.85044  20688572.5314   20688572.0654
  -3432480.76744  -2674651.31444  23281568.3114   23281567.4604
   -365316.00444                  24999382.7424
 -17203336.80744 -13405187.41444  21754810.0884   21754810.1424
 96  4 26  4 32 30.0000000  0  8G28G17G 6G 1G23G26G 9G21
 -15409573.619 4 -12007455.329 4  21665225.323    21665226.293
 -23319139.43544 -18170734.95544  20713614.4614   20713614.3154
  -7354092.12844  -5730448.87344  23515451.0024   23515449.2334
  -5215579.22744  -4064085.79844  24210941.0324   24210940.6834
 -22774389.94244 -17746252.12444  20691821.3924   20691820.9994
  -3354185.09744  -2613641.70544  23296467.3334   23296465.4844
   -425761.05144                  24987880.7624
 -17253045.48144 -13443921.42344  21745351.0744   21745350.9544
 96  4 26  4 33  0.0000000  0  8G28G17G 6G 1G23G26G 9G21
 -15472204.920 4 -12056258.923 4  21653306.860    21653307.802
 -23301710.67944 -18157154.09844  20716931.2034   20716931.0104
  -7243377.47044  -5644177.70944  23536518.7304   23536517.8564
  -5326453.48044  -4150481.28044  24189843.2194   24189842.6304
 -22757033.57644 -17732727.67844  20695123.9944   20695123.7954
  -3275511.56844  -2552337.65844  23311439.2124   23311437.6994
   -486063.43544                  24976405.6264
 -17302484.52944 -13482445.32944  21735942.9134   21735943.0934
 96  4 26  4 33 30.0000000  0  8G28G17G 6G 1G23G26G 9G21
 -15534372.943 4 -12104701.523 4  21641476.995    21641477.580
 -23284011.00244 -18143362.14144  20720299.1054   20720298.7324
  -7132525.56644  -5557799.55644  23557613.0324   23557612.2674
  -5437274.29244  -4236835.13044  24168754.6204   24168754.3114
 -22739399.15644 -17718986.56044  20698479.9574   20698479.5904
  -3196461.55544  -2490740.24944  23326481.3654   23326480.0024
   -546228.19544                  24964957.6054
 -17351659.34844 -13520763.35144  21726585.4844   21726585.2474
 96  4 26  4 34  0.0000000  0  8G28G17G 6G 1G23G26G 9G21
 -15596052.097 4 -12152763.178 4  21629739.762    21629740.577
 -23266015.13644 -18129339.38444  20723723.7254   20723723.3044
  -7021522.49044  -5471303.62144  23578736.6924   23578735.9524
  -5548028.23344  -4323136.87044  24147678.5364   24147678.8994
 -22721472.91944 -17705018.05644  20701891.1964   20701890.7094
  -3117014.73044  -2428833.62244  23341599.3164   23341598.7834
   -606216.61944                  24953542.7924
 -17400550.57744 -13558860.38644  21717281.4044   21717281.6134
 96  4 26  4 34 30.0000000  0  8G28G17G 6G 1G23G26G 9G21
 -15657242.067 4 -12200443.663 4  21618095.434    21618096.725
 -23247721.34244 -18115084.48144  20727204.7294   20727204.4094
  -6910366.44744  -5384688.52544  23599889.6994   23599889.1324
  -5658739.47644  -4409405.35844  24126610.6514   24126612.0584
 -22703255.06144 -17690822.31144  20705357.8004   20705357.3914
  -3037173.90544  -2366620.01344  23356792.8114   23356793.1074
   -666027.13444                  24942159.6714
 -17449167.57644 -13596743.74044  21708030.0364   21708030.1054
 96  4 26  4 35  0.0000000  0  8G28G17G 6G 1G23G26G 9G21
 -15717955.144 4 -12247752.538 4  21606542.206    21606543.346
 -23229163.50244 -18100623.81544  20730736.1104   20730735.6914
  -6799063.74844  -5297959.14944  23621069.2794   23621066.8334
  -5769433.18044  -4495660.17944  24105546.2684   24105547.9444
 -22684758.11544 -17676409.09744  20708877.9214   20708877.3734
  -2956947.15144  -2304105.65244  23372059.8474   23372058.6764
   -725667.94844                  24930810.8044
 -17497526.91844 -13634426.31744  21698827.3564   21698827.2784
 96  4 26  4 35 30.0000000  0  8G28G17G 6G 1G23G26G 9G21
 -15778183.232 4 -12294683.490 4  21595081.257    21595082.254
 -23210325.24644 -18085944.65144  20734321.0554   20734321.0304
  -6687606.97944  -5211109.72544  23642278.7874   23642279.2124
  -5880093.04244  -4581888.61044  24084488.2944   24084488.3674
 -22665984.08544 -17661779.97344  20712450.4654   20712449.8244
  -2876341.15144  -2241295.78044  23387397.8364   23387397.7704
   -785131.51944   -611788.29344  24919495.9324   24919495.9824
 -17545623.92744 -13671904.47844  21689674.8804   21689674.6004
 96  4 26  4 36  0.0000000  0  8G28G17G 6G 1G23G26G 9G21
 -15837918.487 4 -12341230.431 4  21583713.943    21583714.954
 -23191197.25444 -18071039.72744  20737960.8434   20737960.8744
  -6575973.86444  -5124122.89544  23663521.4684   23663521.5544
  -5990685.21344  -4668064.30544  24063441.9344   24063441.8004
 -22646928.28544 -17646931.28544  20716076.5064   20716076.1214
  -2795353.41844  -2178188.46844  23402809.1974   23402807.3514
   -844416.79644   -657980.14044  24908213.3184   24908212.0034
 -17593458.57544 -13709178.20644  21680572.3984   21680572.5404
 96  4 26  4 36 30.0000000  0  8G28G17G 6G 1G23G26G 9G21
 -15897159.485 4 -12387392.237 4  21572440.821    21572441.555
 -23171778.36844 -18055908.12244  20741656.4344   20741655.9914
  -6464174.74544  -5037006.71644  23684796.0514   23684795.4884
  -6101194.36144  -4754175.31444  24042411.8794   24042410.6374
 -22627578.40544 -17631853.44944  20719758.6344   20719758.0524
  -2713987.01844  -2114786.06344  23418292.4654   23418291.2684
   -903533.32044   -704036.77544  24896964.5774   24896963.4404
 -17641032.25144 -13746248.57844  21671519.4904   21671519.6824
 96  4 26  4 37  0.0000000  0  8G28G17G 6G 1G23G26G 9G21
 -15955924.676 4 -12433183.277 4  21561258.182    21561259.097
 -23152083.28244 -18040561.30144  20745404.0344   20745403.9634
  -6352237.24244  -4949782.68344  23706097.0104   23706096.1364
  -6211620.09844  -4840221.31544  24021400.3274   24021401.4454
 -22607957.58444 -17616564.48644  20723492.3184   20723491.8064
  -2632271.50644  -2051111.62144  23433843.2344   23433842.4434
   -962501.42344   -749996.90644  24885743.0594   24885742.7074
 -17688364.38744 -13783130.74144  21662512.3954   21662512.0264
 96  4 26  4 37 30.0000000  0  8G28G17G 6G 1G23G26G 9G21
 -16014202.011 4 -12478594.171 4  21550168.198    21550169.175
 -23132093.77144 -18024985.06144  20749208.1444   20749207.7924
  -6240154.76644  -4862445.70044  23727425.7344   23727425.8974
  -6321936.55244  -4926182.20244  24000408.3874   24000408.7134
 -22588067.35044 -17601065.59444  20727277.4644   20727276.8554
  -2550201.59344  -1987161.04744  23449460.1324   23449458.7764
  -1021312.23744   -795827.51544  24874550.3724   24874550.1364
 -17735450.65344 -13819821.31444  21653551.8854   21653551.8154
 96  4 26  4 38  0.0000000  0  8G28G17G 6G 1G23G26G 9G21
 -16071980.942 4 -12523616.701 4  21539172.946    21539174.269
 -23111812.56844 -18009181.52344  20753067.4624   20753067.0664
  -6127920.89244  -4774990.71844  23748783.7834   23748784.1584
  -6432154.11044  -5012065.98644  23979434.2864   23979434.0354
 -22567906.75344 -17585356.02944  20731114.0184   20731113.2664
  -2467762.13644  -1922922.51444  23465147.8604   23465146.0204
  -1079947.26344   -841518.40044  24863392.2674
 -17782283.61144 -13856314.50744  21644640.2004   21644640.2204
 96  4 26  4 38 30.0000000  0  8G28G17G 6G 1G23G26G 9G21
 -16129264.990 4 -12568253.617 4  21528272.405    21528273.595
 -23091239.55644 -17993150.61144  20756982.1874   20756981.9414
  -6015540.87944  -4687421.84044  23770168.8364   23770167.5934
  -6542301.39144  -5097895.00044  23958474.7004   23958474.8144
 -22547485.17844 -17569443.09944  20734999.9704   20734999.4054
  -2384958.26344  -1858399.99044  23480905.5544   23480902.5244
  -1138401.91844   -887066.14344  24852270.6244   24852272.7524
 -17828854.63544 -13892603.59944  21635777.7054   21635777.9044
 96  4 26  4 39  0.0000000  0  8G28G17G 6G 1G23G26G 9G21
 -16186055.600 4 -12612506.027 4  21517465.639    21517466.507
 -23070386.34544 -17976901.35544  20760950.2044   20760950.2444
  -5903007.12344  -4599733.15344  23791581.2664   23791579.1454
  -6652388.74044  -5183677.31744  23937524.4324   23937523.7734
 -22526810.43644 -17553332.90644  20738934.1114   20738933.6624
  -2301791.61744  -1793594.78344  23496732.0284   23496730.1564
  -1196676.84744                  24841180.5174
 -17875155.58144 -13928682.23444  21626967.0924   21626966.8384
 96  4 26  4 39 30.0000000  0  8G28G17G 6G 1G23G26G 9G21
 -16242371.008 4 -12656388.147 4  21506749.015    21506749.939
 -23049271.13644 -17960447.94544  20764968.5404   20764968.4574
  -5790342.77044  -4511942.74044  23813022.0094   23813021.5214
  -6762451.46744  -5269440.44944  23916581.2604   23916580.4644
 -22505901.77044 -17537040.43144  20742912.9114   20742912.4744
  -2218279.45244  -1728520.37244  23512623.2374   23512621.6504
  -1254795.71844                  24830121.5894
 -17921207.29444 -13964566.65844  21618203.8624   21618203.6254
 96  4 26  4 40  0.0000000  0  8G28G17G 6G 1G23G26G 9G21
 -16298179.749 4 -12699875.476 4  21496128.905    21496130.032
 -23027860.01244 -17943763.95244  20769042.9964   20769043.0264
  -5677526.32144  -4424033.77844  23834490.1964   23834491.1734
  -6872458.58744  -5355160.24544  23895646.1474   23895645.6444
 -22484726.49444 -17520540.20844  20746942.4284   20746941.8194
  -2134396.92844  -1663157.38444  23528585.6774   23528583.8154
  -1312733.55044                  24819096.2584
 -17966973.85344 -14000228.89644  21609494.5154   21609494.3884
 96  4 26  4 40 30.0000000  0  8G28G17G 6G 1G23G26G 9G21
 -16353485.162 4 -12742970.587 4  21485604.988    21485605.824
 -23006152.60644 -17926849.08444  20773174.0884   20773173.8414
  -5564582.05544  -4336025.25544  23855983.7664   23855981.1154
  -6982390.35544  -5440821.33944  23874728.0304   23874729.4024
 -22463282.49844 -17503830.59344  20751023.2544   20751022.6514
  -2050150.65644  -1597510.94244  23544616.7914   23544615.9254
  -1370499.28344                  24808103.4014
 -18012454.25144 -14035668.15044  21600839.8694   21600839.5924
 96  4 26  4 41  0.0000000  0  8G28G21G17G 6G 1G23G26G 9
 -16408282.345 4 -12785669.675 4  21475177.297    21475178.193
 -18057664.09344 -14070896.57644  21592236.4714   21592236.5174
 -22984155.28244 -17909708.31144  20777359.5604   20777359.4794
  -5451520.59844  -4247925.45544  23877497.6954   23877496.1074
  -7092219.53944  -5526402.50044  23853827.6214   23853828.3894
 -22441574.05644 -17486914.91844  20755154.0234   20755153.4964
  -1965547.23544  -1531586.19744  23560717.2514   23560715.4894
  -1428088.67544                  24797144.4314
 96  4 26  4 41 30.0000000  0  8G28G17G 6G 1G23G26G 9G21
 -16462571.815 4 -12827973.152 4  21464846.079    21464847.107
 -22961876.68744 -17892348.36444  20781599.4384   20781598.9834
  -5338347.45144  -4159738.58744  23899034.4614   23899034.8244
  -7201935.06944  -5611895.09144  23832949.8234   23832950.2164
 -22419617.63744 -17469806.01344  20759332.3294   20759331.7574
  -1880605.73944  -1465398.01544  23576880.5534   23576877.6574
  -1485494.11044                  24786219.0874
 -18102619.00144 -14105926.35544  21583682.1174   21583682.0764
 96  4 26  4 42  0.0000000  0  7G28G21G 6G 1G17G23G26
 -16516356.986 4 -12869883.661 4  21454611.266    21454612.303
 -18147326.13644 -14140763.07044  21575174.5974   21575174.5924
  -5225067.82944  -4071468.76044  23920589.9074   23920589.3174
  -7311525.59944  -5697290.29044  23812095.2364   23812094.9034
 -22939334.73044 -17874783.19944  20785888.7304   20785888.4974
 -22397417.92244 -17452507.52944  20763556.6924   20763556.1304
  -1795347.82944  -1398963.28544  23593105.2944   23593105.8734
 96  4 26  4 42 30.0000000  0  7G28G21G 6G 1G26G17G23
 -16569649.543 4 -12911410.316 4  21444469.666    21444471.103
 -18191810.73244 -14175426.37444  21566709.6164   21566709.1624
  -5111686.08044  -3983119.36044  23942166.3664   23942167.9094
  -7421012.24044  -5782604.53644  23791261.1974   23791261.5314
  -1709799.02444  -1332301.89144  23609383.7054   23609384.0064
 -22916547.51844 -17857026.93144  20790224.9834   20790224.9004
 -22374990.91044 -17435031.92544  20767824.6624   20767823.8644
 96  4 26  4 43  0.0000000  0  7G28G21G 6G 1G17G23G26
 -16622420.936 4 -12952530.876 4  21434427.682    21434428.781
 -18236056.89044 -14209903.87644  21558289.9804   21558289.7814
  -4998153.44844  -3894652.38444  23963770.9084   23963772.0634
  -7530380.69544  -5867826.67044  23770449.3734   23770450.6394
 -22893489.05344 -17839059.29444  20794613.0764   20794612.7064
 -22352315.45944 -17417362.73444  20772139.6124   20772138.8434
  -1623945.78644  -1265403.26944  23625720.9094   23625719.4934
 96  4 26  4 43 30.0000000  0  7G28G21G 6G 1G26G17G23
 -16674684.568 4 -12993255.776 4  21424482.580    21424483.479
 -18280075.46344 -14244204.04444  21549913.2824   21549913.4064
  -4884493.13844  -3806085.89744  23985399.3694   23985400.3084
  -7639661.96744  -5952980.88844  23749652.9404   23749651.6284
  -1537795.84344  -1198273.43144  23642115.3534   23642115.0864
 -22870165.37544 -17820884.99644  20799051.3474   20799051.2024
 -22329393.12644 -17399501.16944  20776501.2954   20776500.6994
 96  4 26  4 44  0.0000000  0  7G28G21G17G 6G 1G23G26
 -16726439.092 4 -13033583.962 4  21414634.008    21414634.900
 -18323863.60544 -14278324.65844  21541580.7004   21541580.3734
 -22846554.38244 -17802486.82344  20803544.0934   20803543.9784
  -4770720.34944  -3717431.78744  24007049.5014   24007050.8404
  -7748866.04044  -6038074.96444  23728872.9694   23728872.9154
 -22306218.06444 -17381442.67144  20780911.3344   20780910.7014
  -1451331.74344  -1130898.81844  23658567.9574   23658566.6064
 96  4 26  4 44 30.0000000  0  7G28G21G 6G 1G26G17G23
 -16777671.612 4 -13073505.394 4  21404884.778    21404885.763
 -18367405.95644 -14312253.74044  21533294.9024   21533294.5674
  -4656833.78744  -3628689.03244  24028721.9194   24028721.5944
  -7857985.31044  -6123102.96044  23708106.1884   23708105.7554
  -1364532.73844  -1063263.23444  23675085.5734   23675084.5494
 -22822640.41744 -17783852.56644  20808094.7854   20808094.8084
 -22282788.91644 -17363186.18444  20785369.8154   20785369.2984
 96  4 26  4 45  0.0000000  0  7G28G21G17G 6G 1G23G26
 -16828407.866 4 -13113040.126 4  21395229.697    21395230.931
 -18410722.32744 -14346006.74044  21525051.9074   21525051.8294
 -22798448.82844 -17765001.98144  20812698.4614   20812698.3414
  -4542878.54744  -3539892.72844  24050406.3824   24050405.9904
  -7967038.54544  -6208079.46744  23687354.5544   23687354.6044
 -22259133.73144 -17344753.56944  20789871.4244   20789870.8674
  -1277420.68944   -995383.72444  23691663.1864   23691662.0124
 96  4 26  4 45 30.0000000  0  7G28G21G 6G 1G26G17G23
 -16878607.885 4 -13152157.012 4  21385676.958    21385678.084
 -18453765.01944 -14379546.47944  21516861.1804   21516860.8134
  -4428826.38244  -3451020.91744  24072110.4744   24072109.0444
  -8075986.47944  -6292973.95044  23666622.7264   23666620.8194
  -1189952.50844   -927226.69744  23708306.7304   23708305.3544
 -22773938.71644 -17745903.19644  20817362.4044   20817362.4584
 -22235212.61844 -17326113.73744  20794423.4774   20794422.9034
 96  4 26  4 46  0.0000000  0  7G28G21G 6G 1G17G23G26
 -16928268.461 4 -13190853.555 4  21376226.956    21376227.887
 -18496531.01744 -14412870.61444  21508723.1764   21508722.7594
  -4314671.42544  -3362068.99144  24093833.6674   24093833.8954
  -8184824.55444  -6377782.81544  23645911.0004   23645910.6714
 -22749114.62944 -17726559.75244  20822086.6444   20822086.4244
 -22211034.44044 -17307273.58744  20799024.2544   20799023.5824
  -1102133.93144   -858796.62844  23725017.5124   23725017.1204
 96  4 26  4 46 30.0000000  0  7G28G21G 6G 1G26G17G23
 -16977404.394 4 -13229141.286 4  21366876.702    21366877.812
 -18539027.74744 -14445984.93144  21500636.3324   21500635.8754
  -4200427.80544  -3273047.96844  24115573.2684   24115570.3354
  -8293560.74744  -6462512.30144  23625220.5674   23625220.8204
  -1013998.21644   -790119.42744  23741790.8154   23741790.2544
 -22724002.24744 -17706991.66544  20826864.9104   20826864.8934
 -22186613.28444 -17288244.10544  20803671.4754   20803670.9934
 96  4 26  4 47  0.0000000  0  7G28G21G 6G 1G26G17G23
 -17026008.175 4 -13267014.356 4  21357627.690    21357628.778
 -18581251.36044 -14478886.42744  21492601.3544   21492600.9754
  -4086084.70944  -3183949.50444  24137332.3884
  -8402186.57544  -6547155.78844  23604549.4664   23604550.8974
   -925543.73644   -721193.84244  23758623.0234   23758622.6094
 -22698593.06044 -17687192.29944  20831700.4794   20831700.4264
 -22161938.68744 -17269017.14344  20808366.7934   20808366.4364
 96  4 26  4 47 30.0000000  0  7G28G21G 6G 1G26G17G23
 -17074075.146 4 -13304469.126 4  21348480.945    21348482.218
 -18623198.17044 -14511572.24144  21484619.4474   21484619.1874
  -3971640.27944  -3094771.98444  24159109.8274   24159110.6894
  -8510696.70244  -6631709.11444  23583900.6094   23583900.2734
   -836766.07544   -652016.44444  23775516.6844   23775516.5594
 -22672891.75144 -17667165.31144  20836591.3054   20836590.9274
 -22137007.76144 -17249590.44844  20813110.9914   20813110.6474
 96  4 26  4 48  0.0000000  0  7G28G21G 6G 1G17G23G26
 -17121606.090 4 -13341506.219 4  21339436.175    21339437.212
 -18664869.90844 -14544043.70844  21476689.1474   21476688.9944
  -3857104.06944  -3005523.01244  24180903.9014
  -8619080.04044  -6716163.62644  23563275.8464   23563276.8274
 -22646909.81144 -17646919.65144  20841535.7294   20841535.3584
 -22111838.03744 -17229977.67244  20817900.3654   20817900.0224
   -747676.00344   -582595.60944  23792469.7644   23792470.3954
 96  4 26  4 48 30.0000000  0  7G28G21G 6G 1G26G17G23
 -17168598.300 4 -13378123.514 4  21330493.789    21330494.646
 -18706264.67044 -14576299.34944  21468811.9514   21468811.9554
  -3742464.69544                  24202720.2664
  -8727323.34044  -6800509.05244  23542677.5634   23542677.8494
   -658275.33044   -512932.73644  23809481.4274   23809480.2184
 -22620639.25044 -17626449.09144  20846534.4604   20846534.2074
 -22086435.19844 -17210183.24244  20822734.4694   20822734.1024
 96  4 26  4 49  0.0000000  0  7G28G21G 6G 1G26G17G23
 -17215052.963 4 -13414321.947 4  21321653.672    21321654.551
 -18747397.96844 -14608351.25544  21460984.3654   21460984.6144
  -3627718.95444  -2826781.28444  24224554.7354
  -8835431.54744  -6884749.19244  23522104.6944   23522105.0404
   -568555.87044   -443021.46644  23826554.8884   23826552.9294
 -22594079.46944 -17605753.16244  20851588.7684   20851588.8074
 -22060804.69444 -17190211.41744  20827612.1804   20827611.7744
 96  4 26  4 49 30.0000000  0  6G28G 1G26G21G17G23
 -17260973.990 4 -13450104.556 4  21312915.119    21312916.024
  -8943406.73144  -6968885.68844  23501557.7664   23501557.9054
   -478529.22944   -372870.78544  23843686.3004   23843683.8304
 -18788280.93744 -14640208.09944  21453204.8534   21453204.5414
 -22567234.82544 -17584835.25844  20856696.8964   20856696.8804
 -22034952.48344 -17170066.83244  20832531.5944   20832531.0104
 96  4 26  4 50  0.0000000  0  6G28G 1G26G21G17G23
 -17306356.960 4 -13485467.904 4  21304278.944    21304280.084
  -9051252.53744  -7052921.36344  23481035.8044   23481035.9054
   -388213.29044   -302494.71944  23860873.0444   23860873.0994
 -18828914.44744 -14671870.55644  21445472.4704   21445472.2174
 -22540086.24944 -17563680.52844  20861863.5464   20861863.6674
 -22008878.74544 -17149749.62844  20837493.3574   20837492.6134
